[[{"header":{"parameterUnit":"m.s-1","parameterCategory":1,"la1":30.6,"la2":28.766,"lo1":-90.7593,"lo2":-88.6598,"dx":0.0162,"dy":0.0183,"nx":116,"ny":114,"refTime":"2022-12-03T06:00:00:Z","depth":0,"parameterNumber":2,"parameterNumberName":"U-component_of_WINDS"},"data":[0.0,0.0,0.0,0.0,0.0,0.0,0.0,0.0,0.0,0.0,0.0,0.0,0.0,0.0,0.0,0.0,0.0,0.0,0.0,0.0,0.0,0.0,0.0,0.0,0.0,0.0,0.0,0.0,0.0,0.0,0.0,0.0,0.0,0.0,0.0,0.0,0.0,0.0,0.0,0.0,0.0,0.0,0.0,0.0,0.0,0.0,0.0,0.0,0.0,0.0,0.0,0.0,0.0,0.0,0.0,0.0,0.0,0.0,0.0,0.0,0.0,0.0,0.0,0.0,0.0,0.0,0.0,0.0,0.0,0.0,0.0,0.0,0.0,0.0,0.0,0.0,0.0,0.0,0.0,0.0,0.0,0.0,0.0,0.0,0.0,0.0,0.0,0.0,0.0,0.0,0.0,0.0,0.0,0.0,0.0,0.0,0.0,0.0,0.0,0.0,0.0,0.0,0.0,0.0,0.0,0.0,0.0,0.0,0.0,0.0,0.0,0.0,0.0,0.0,0.0,0.0,0.0,0.0,0.0,0.0,0.0,0.0,0.0,0.0,0.0,0.0,0.0,0.0,0.0,0.0,0.0,0.0,0.0,0.0,0.0,0.0,0.0,0.0,0.0,0.0,0.0,0.0,0.0,0.0,0.0,0.0,0.0,0.0,0.0,0.0,0.0,0.0,0.0,0.0,0.0,0.0,0.0,0.0,0.0,0.0,0.0,0.0,0.0,0.0,0.0,0.0,0.0,0.0,0.0,0.0,0.0,0.0,0.0,0.0,0.0,0.0,0.0,0.0,0.0,0.0,0.0,0.0,0.0,0.0,0.0,0.0,0.0,0.0,0.0,0.0,0.0,0.0,0.0,0.0,0.0,0.0,0.0,0.0,0.0,0.0,0.0,0.0,0.0,0.0,0.0,0.0,0.0,0.0,0.0,0.0,0.0,0.0,0.0,0.0,0.0,0.0,0.0,0.0,0.0,0.0,0.0,0.0,0.0,0.0,0.0,0.0,0.0,0.0,0.0,0.0,0.0,0.0,0.0,0.0,0.0,0.0,0.0,0.0,0.0,0.0,0.0,0.0,0.0,0.0,0.0,0.0,0.0,0.0,0.0,0.0,0.0,0.0,0.0,0.0,0.0,0.0,0.0,0.0,0.0,0.0,0.0,0.0,0.0,0.0,0.0,0.0,0.0,0.0,0.0,0.0,0.0,0.0,0.0,0.0,0.0,0.0,0.0,0.0,0.0,0.0,0.0,0.0,0.0,0.0,0.0,0.0,0.0,0.0,0.0,0.0,0.0,0.0,0.0,0.0,0.0,0.0,0.0,0.0,0.0,0.0,0.0,0.0,0.0,0.0,0.0,0.0,0.0,0.0,0.0,0.0,0.0,0.0,0.0,0.0,0.0,0.0,0.0,0.0,0.0,0.0,0.0,0.0,0.0,0.0,0.0,0.0,0.0,0.0,0.0,0.0,0.0,0.0,0.0,0.0,0.0,0.0,0.0,0.0,0.0,0.0,0.0,0.0,0.0,0.0,0.0,0.0,0.0,0.0,0.0,0.0,0.0,0.0,0.0,0.0,0.0,0.0,0.0,0.0,0.0,0.0,0.0,0.0,0.0,0.0,0.0,0.0,0.0,0.0,0.0,0.0,0.0,0.0,0.0,0.0,0.0,0.0,0.0,0.0,0.0,0.0,0.0,0.0,0.0,0.0,0.0,0.0,0.0,0.0,0.0,0.0,0.0,0.0,0.0,0.0,0.0,0.0,0.0,0.0,0.0,0.0,0.0,0.0,0.0,0.0,0.0,0.0,0.0,0.0,0.0,0.0,0.0,0.0,0.0,0.0,0.0,0.0,0.0,0.0,0.0,0.0,0.0,0.0,0.0,0.0,0.0,0.0,0.0,0.0,0.0,0.0,0.0,0.0,0.0,0.0,0.0,0.0,0.0,0.0,0.0,0.0,0.0,0.0,0.0,0.0,0.0,0.0,0.0,0.0,0.0,0.0,0.0,0.0,0.0,0.0,0.0,0.0,0.0,0.0,0.0,0.0,0.0,0.0,0.0,0.0,0.0,0.0,0.0,0.0,0.0,0.0,0.0,0.0,0.0,0.0,0.0,0.0,0.0,0.0,0.0,0.0,0.0,0.0,0.0,0.0,0.0,0.0,0.0,0.0,0.0,0.0,0.0,0.0,0.0,0.0,0.0,0.0,0.0,0.0,0.0,0.0,0.0,0.0,0.0,0.0,0.0,0.0,0.0,0.0,0.0,0.0,0.0,0.0,0.0,0.0,0.0,0.0,0.0,0.0,0.0,0.0,0.0,0.0,0.0,0.0,0.0,0.0,0.0,0.0,0.0,0.0,0.0,0.0,0.0,0.0,0.0,0.0,0.0,0.0,0.0,0.0,0.0,0.0,0.0,0.0,0.0,0.0,0.0,0.0,0.0,0.0,0.0,0.0,0.0,0.0,0.0,0.0,0.0,0.0,0.0,0.0,0.0,0.0,0.0,0.0,0.0,0.0,0.0,0.0,0.0,0.0,0.0,0.0,0.0,0.0,0.0,0.0,0.0,0.0,0.0,0.0,0.0,0.0,0.0,0.0,0.0,0.0,0.0,0.0,0.0,0.0,0.0,0.0,0.0,0.0,0.0,0.0,0.0,0.0,0.0,0.0,0.0,0.0,0.0,0.0,0.0,0.0,0.0,0.0,0.0,0.0,0.0,0.0,0.0,0.0,0.0,0.0,0.0,0.0,0.0,0.0,0.0,0.0,0.0,0.0,0.0,0.0,0.0,0.0,0.0,0.0,0.0,0.0,0.0,0.0,0.0,0.0,0.0,0.0,0.0,0.0,0.0,0.0,0.0,0.0,0.0,0.0,0.0,0.0,0.0,0.0,0.0,0.0,0.0,0.0,0.0,0.0,0.0,0.0,0.0,0.0,0.0,0.0,0.0,0.0,0.0,0.0,0.0,0.0,0.0,0.0,0.0,0.0,0.0,0.0,0.0,0.0,0.0,0.0,0.0,0.0,0.0,0.0,0.0,0.0,0.0,0.0,0.0,0.0,0.0,0.0,0.0,0.0,0.0,0.0,0.0,0.0,0.0,0.0,0.0,0.0,0.0,0.0,0.0,0.0,0.0,0.0,0.0,0.0,0.0,0.0,0.0,0.0,0.0,0.0,0.0,0.0,0.0,0.0,0.0,0.0,0.0,0.0,0.0,0.0,0.0,0.0,0.0,0.0,0.0,0.0,0.0,0.0,0.0,0.0,0.0,0.0,0.0,0.0,0.0,0.0,0.0,0.0,0.0,0.0,0.0,0.0,0.0,0.0,0.0,0.0,0.0,0.0,0.0,0.0,0.0,0.0,0.0,0.0,0.0,0.0,0.0,0.0,0.0,0.0,0.0,0.0,0.0,0.0,0.0,0.0,0.0,0.0,0.0,0.0,0.0,0.0,0.0,0.0,0.0,0.0,0.0,0.0,0.0,0.0,0.0,0.0,0.0,0.0,0.0,0.0,0.0,0.0,0.0,0.0,0.0,0.0,0.0,0.0,0.0,0.0,0.0,0.0,0.0,0.0,0.0,0.0,0.0,0.0,0.0,0.0,0.0,0.0,0.0,0.0,0.0,0.0,0.0,0.0,0.0,0.0,0.0,0.0,0.0,0.0,0.0,0.0,0.0,0.0,0.0,0.0,0.0,0.0,0.0,0.0,0.0,0.0,0.0,0.0,0.0,0.0,0.0,0.0,0.0,0.0,0.0,0.0,0.0,0.0,0.0,0.0,0.0,0.0,0.0,0.0,0.0,0.0,0.0,0.0,0.0,0.0,0.0,0.0,0.0,0.0,0.0,0.0,0.0,0.0,0.0,0.0,0.0,0.0,0.0,0.0,0.0,0.0,0.0,0.0,0.0,0.0,0.0,0.0,0.0,0.0,0.0,0.0,0.0,0.0,0.0,0.0,0.0,0.0,0.0,0.0,0.0,0.0,0.0,0.0,0.0,0.0,0.0,0.0,0.0,0.0,0.0,0.0,0.0,0.0,0.0,0.0,0.0,0.0,0.0,0.0,0.0,0.0,0.0,0.0,0.0,0.0,0.0,0.0,0.0,0.0,0.0,0.0,0.0,0.0,0.0,0.0,0.0,0.0,0.0,0.0,0.0,0.0,0.0,0.0,0.0,0.0,0.0,0.0,0.0,0.0,0.0,0.0,0.0,0.0,0.0,0.0,0.0,0.0,0.0,0.0,0.0,0.0,0.0,0.0,0.0,0.0,0.0,0.0,0.0,0.0,0.0,0.0,0.0,0.0,0.0,0.0,0.0,0.0,0.0,0.0,0.0,0.0,0.0,0.0,0.0,0.0,0.0,0.0,0.0,0.0,0.0,0.0,0.0,0.0,0.0,0.0,0.0,0.0,0.0,0.0,0.0,0.0,0.0,0.0,0.0,0.0,0.0,0.0,0.0,0.0,0.0,0.0,0.0,0.0,0.0,0.0,0.0,0.0,0.0,0.0,0.0,0.0,0.0,0.0,0.0,0.0,0.0,0.0,0.0,0.0,0.0,0.0,0.0,0.0,0.0,0.0,0.0,0.0,0.0,0.0,0.0,0.0,0.0,0.0,0.0,0.0,0.0,0.0,0.0,0.0,0.0,0.0,0.0,0.0,0.0,0.0,0.0,0.0,0.0,0.0,0.0,0.0,0.0,0.0,0.0,0.0,0.0,0.0,0.0,0.0,0.0,0.0,0.0,0.0,0.0,0.0,0.0,0.0,0.0,0.0,0.0,0.0,0.0,0.0,0.0,0.0,0.0,0.0,0.0,0.0,0.0,0.0,0.0,0.0,0.0,0.0,0.0,0.0,0.0,0.0,0.0,0.0,0.0,0.0,0.0,0.0,0.0,0.0,0.0,0.0,0.0,0.0,0.0,0.0,0.0,0.0,0.0,0.0,0.0,0.0,0.0,0.0,0.0,0.0,0.0,0.0,0.0,0.0,0.0,0.0,0.0,0.0,0.0,0.0,0.0,0.0,0.0,0.0,0.0,0.0,0.0,0.0,0.0,0.0,0.0,0.0,0.0,0.0,0.0,0.0,0.0,0.0,0.0,0.0,0.0,0.0,0.0,0.0,0.0,0.0,0.0,0.0,0.0,0.0,0.0,0.0,0.0,0.0,0.0,0.0,0.0,0.0,0.0,0.0,0.0,0.0,0.0,0.0,0.0,0.0,0.0,0.0,0.0,0.0,0.0,0.0,0.0,0.0,0.0,0.0,0.0,0.0,0.0,0.0,0.0,0.0,0.0,0.0,0.0,0.0,0.0,0.0,0.0,0.0,0.0,0.0,0.0,0.0,0.0,0.0,0.0,0.0,0.0,0.0,0.0,0.0,0.0,0.0,0.0,0.0,0.0,0.0,0.0,0.0,0.0,0.0,0.0,0.0,0.0,0.0,0.0,0.0,0.0,0.0,0.0,0.0,0.0,0.0,0.0,0.0,0.0,0.0,0.0,0.0,0.0,0.0,0.0,0.0,0.0,0.0,0.0,0.0,0.0,0.0,0.0,0.0,0.0,0.0,0.0,0.0,0.0,0.0,0.0,0.0,0.0,0.0,0.0,0.0,0.0,0.0,0.0,0.0,0.0,0.0,0.0,0.0,0.0,0.0,0.0,0.0,0.0,0.0,0.0,0.0,0.0,0.0,0.0,0.0,0.0,0.0,0.0,0.0,0.0,0.0,0.0,0.0,0.0,0.0,0.0,0.0,0.0,0.0,0.0,0.0,0.0,0.0,0.0,0.0,0.0,0.0,0.0,0.0,0.0,0.0,0.0,0.0,0.0,0.0,0.0,0.0,0.0,0.0,0.0,0.0,0.0,0.0,0.0,0.0,0.0,0.0,0.0,0.0,0.0,0.0,0.0,0.0,0.0,0.0,0.0,0.0,0.0,0.0,0.0,0.0,0.0,0.0,0.0,0.0,0.0,0.0,0.0,0.0,0.0,0.0,0.0,0.0,0.0,0.0,0.0,0.0,0.0,0.0,0.0,0.0,0.0,0.0,0.0,0.0,0.0,0.0,0.0,0.0,0.0,0.0,0.0,0.0,0.0,0.0,0.0,0.0,0.0,0.0,0.0,0.0,0.0,0.0,-0.9296,0.0,0.0,0.0,0.0,0.0,0.0,0.0,0.0,0.0,0.0,0.0,0.0,0.0,0.0,0.0,0.0,0.0,0.0,0.0,0.0,0.0,0.0,0.0,0.0,-1.1219,-1.114,-1.1024,-1.0584,0.0,0.0,0.0,0.0,0.0,0.0,0.0,0.0,0.0,-1.0179,-1.1139,-1.1426,-1.2444,-1.4115,-1.3068,-1.2225,-1.1534,0.0,0.0,0.0,0.0,0.0,0.0,0.0,0.0,0.0,0.0,0.0,0.0,0.0,0.0,0.0,0.0,0.0,0.0,0.0,0.0,0.0,0.0,0.0,0.0,0.0,0.0,0.0,0.0,0.0,0.0,0.0,0.0,0.0,0.0,0.0,0.0,0.0,0.0,0.0,0.0,0.0,0.0,0.0,0.0,0.0,0.0,0.0,0.0,0.0,0.0,0.0,0.0,0.0,0.0,0.0,0.0,0.0,0.0,0.0,0.0,0.0,0.0,0.0,0.0,0.0,0.0,0.0,0.0,0.0,0.0,0.0,-0.9419,0.0,0.0,0.0,0.0,0.0,0.0,0.0,0.0,0.0,0.0,0.0,0.0,0.0,0.0,0.0,0.0,0.0,0.0,0.0,0.0,0.0,-1.0181,-1.0292,-1.0894,-1.1337,-1.1518,-1.1256,-1.1066,-1.1009,-1.0269,0.0,0.0,0.0,0.0,-0.9675,-0.9791,-1.0791,-1.2675,-1.3422,-1.4691,-1.64,-1.64,-1.5772,-1.4572,-1.2884,0.0,0.0,0.0,0.0,0.0,0.0,0.0,0.0,0.0,0.0,0.0,0.0,0.0,0.0,0.0,0.0,0.0,0.0,0.0,0.0,0.0,0.0,0.0,0.0,0.0,0.0,0.0,0.0,0.0,0.0,0.0,0.0,0.0,0.0,0.0,0.0,0.0,0.0,0.0,0.0,0.0,0.0,0.0,0.0,0.0,0.0,0.0,0.0,0.0,0.0,0.0,0.0,0.0,0.0,0.0,0.0,0.0,0.0,0.0,0.0,0.0,0.0,0.0,-1.0912,-1.1133,-1.1102,-1.1299,-1.1859,-1.2565,-1.1064,-1.062,-1.0847,-0.971,0.0,0.0,0.0,0.0,0.0,0.0,0.0,0.0,0.0,0.0,0.0,0.0,0.0,0.0,0.0,0.0,0.0,0.0,0.0,-1.1273,-1.1914,-1.1971,-1.2516,-1.3913,-1.2701,-1.186,-1.1845,-1.1086,0.0,0.0,0.0,-0.9641,-0.953,-1.0145,-1.1178,-1.2616,-1.6343,-1.8511,-1.9169,-1.9169,-1.9031,-1.8697,-1.6166,-1.5081,-1.4984,0.0,0.0,0.0,0.0,0.0,0.0,0.0,0.0,0.0,0.0,0.0,0.0,0.0,0.0,0.0,0.0,0.0,0.0,0.0,0.0,0.0,0.0,0.0,0.0,0.0,0.0,0.0,0.0,0.0,0.0,0.0,0.0,0.0,0.0,0.0,0.0,0.0,0.0,0.0,0.0,0.0,-1.2818,-1.309,0.0,0.0,0.0,0.0,0.0,0.0,0.0,0.0,0.0,0.0,0.0,0.0,0.0,-1.1172,-1.1572,-1.1971,-1.2288,-1.2586,-1.3078,-1.3245,-1.3098,-1.3023,-1.3054,-1.3166,-1.2925,0.0,-1.2196,-1.1626,0.0,0.0,0.0,0.0,0.0,0.0,0.0,0.0,0.0,0.0,0.0,0.0,0.0,0.0,0.0,0.0,0.0,0.0,0.0,0.0,0.0,-1.419,-1.5147,-1.6315,-1.5751,-1.4936,-1.4035,-1.2799,0.0,0.0,-0.976,-0.9672,-1.0008,-1.1128,-1.3182,-1.6196,-1.9217,-2.079,-2.1003,-2.0947,-2.0919,-2.0841,-1.9627,-1.8186,-1.6622,-1.5138,0.0,0.0,0.0,0.0,0.0,0.0,0.0,0.0,0.0,0.0,0.0,0.0,0.0,0.0,0.0,0.0,0.0,0.0,0.0,0.0,0.0,0.0,0.0,0.0,0.0,0.0,0.0,0.0,0.0,0.0,0.0,0.0,0.0,0.0,0.0,0.0,0.0,0.0,0.0,-1.2616,-1.3263,-1.3657,-1.2228,-1.0788,0.0,0.0,0.0,0.0,0.0,0.0,0.0,0.0,0.0,-1.2089,-1.2016,-1.2307,-1.3002,-1.3278,-1.3464,-1.361,-1.3903,-1.4015,-1.3942,-1.3959,-1.3974,-1.3974,-1.3974,-1.3641,-1.3012,-1.2316,-1.154,-1.0703,0.0,0.0,0.0,0.0,-0.961,-0.9233,0.0,0.0,0.0,0.0,0.0,0.0,0.0,0.0,0.0,0.0,0.0,0.0,-1.52,-1.6497,-1.7708,-1.8739,-1.8433,-1.7799,-1.6784,-1.4639,-1.2817,-1.1584,-1.0322,-0.9961,-1.0615,-1.2807,-1.5671,-1.9265,-2.1147,-2.2073,-2.2044,-2.1955,-2.1928,-2.1899,-2.1825,-2.0619,-1.853,-1.741,-1.5994,-1.4376,0.0,0.0,0.0,0.0,0.0,0.0,0.0,0.0,0.0,0.0,0.0,0.0,0.0,0.0,0.0,0.0,0.0,0.0,0.0,0.0,0.0,0.0,0.0,0.0,0.0,0.0,0.0,0.0,0.0,0.0,0.0,0.0,0.0,0.0,0.0,0.0,0.0,-1.3514,-1.391,-1.4072,-1.2855,-1.1326,0.0,0.0,0.0,0.0,0.0,0.0,-1.2371,-1.2255,-1.2641,-1.3651,-1.3392,-1.3623,-1.4426,-1.4436,-1.4353,-1.4189,-1.4251,-1.4201,-1.4038,-1.4055,-1.4079,-1.407,-1.401,-1.37,-1.3206,-1.2724,-1.2061,-1.1338,-1.0931,-1.0483,-1.0052,-1.0417,-1.0071,-0.9603,0.0,0.0,0.0,0.0,0.0,0.0,0.0,0.0,0.0,0.0,0.0,-1.6062,-1.7554,-1.8477,-1.9612,-2.1188,-1.992,-1.9331,-2.001,-1.6356,-1.4108,-1.4012,-1.1665,-1.0621,-1.1246,-1.5377,-1.8335,-1.9947,-2.1519,-2.2254,-2.22,-2.2061,-2.1955,-2.1899,-2.1825,-2.1729,-2.1448,-1.93,-1.8365,-1.8004,-1.4476,0.0,0.0,0.0,0.0,0.0,0.0,0.0,0.0,0.0,0.0,0.0,0.0,0.0,0.0,0.0,0.0,0.0,0.0,0.0,0.0,0.0,0.0,0.0,0.0,0.0,0.0,0.0,0.0,0.0,0.0,0.0,0.0,0.0,0.0,0.0,0.0,0.0,0.0,-1.4229,-1.3471,0.0,0.0,0.0,0.0,-1.0965,-1.1885,-1.2665,-1.3206,-1.4053,-1.4576,-1.4723,-1.5059,-1.5283,-1.5313,-1.5313,-1.5051,-1.4473,-1.4296,-1.3888,-1.3334,-1.3039,-1.2887,-1.2856,-1.2665,-1.2573,-1.2596,-1.3176,-1.2368,-1.0731,-1.0718,-1.0233,-0.9637,-1.0405,-1.0494,-1.0365,0.0,0.0,0.0,-1.3391,-1.2953,-1.2609,-1.2317,-1.2385,-1.2862,-1.3928,-1.5829,-1.7682,-1.9275,-2.0608,-2.1839,-2.289,-2.2335,-2.1614,-2.0859,-1.7924,-1.6351,-1.6691,-1.4387,-1.4289,-1.6842,-1.8415,-1.9963,-2.1485,-2.2026,-2.2282,-2.2254,-2.2166,-2.2061,-2.1955,-2.1882,-2.184,-2.1731,-2.0721,-1.9493,-1.8078,-1.6558,-1.424,0.0,0.0,0.0,0.0,0.0,0.0,0.0,0.0,0.0,0.0,0.0,0.0,0.0,0.0,0.0,0.0,0.0,0.0,0.0,0.0,0.0,0.0,0.0,0.0,0.0,0.0,0.0,0.0,0.0,0.0,0.0,0.0,0.0,0.0,0.0,0.0,0.0,-1.3785,-1.3406,0.0,-1.1284,-1.1344,-1.1727,-1.2399,-1.3393,-1.4174,-1.4636,-1.498,-1.5161,-1.5186,-1.4954,-1.4824,-1.4824,-1.4401,-1.4073,-1.3833,-1.3713,-1.3502,-1.3299,-1.3039,-1.2887,-1.2795,-1.2734,-1.2366,-1.1872,-1.2097,-1.2056,-1.1868,-1.1868,-1.1689,-1.1422,-1.1262,-1.1159,-1.1056,0.0,0.0,0.0,-1.4153,-1.3734,-1.3384,-1.3025,-1.3348,-1.4124,-1.547,-1.7427,-1.9331,-2.0934,-2.2223,-2.3174,-2.3653,-2.3479,-2.3123,-2.2581,-1.9689,-1.8374,-1.9252,-1.6959,-1.704,-1.9934,-2.0508,-2.14,-2.2682,-2.2893,-2.3013,-2.3013,-2.2893,-2.2651,-2.2323,-2.2265,-2.2073,-2.1783,-2.1449,-2.0453,-1.9052,-1.8302,-1.6183,-1.3435,0.0,0.0,0.0,0.0,0.0,0.0,0.0,0.0,0.0,0.0,0.0,0.0,0.0,0.0,0.0,0.0,0.0,0.0,0.0,0.0,0.0,0.0,0.0,0.0,0.0,0.0,0.0,0.0,0.0,0.0,0.0,0.0,0.0,0.0,0.0,-1.4348,-1.3256,-1.3417,-1.3096,-1.1762,-1.2364,-1.3083,-1.3691,-1.4505,-1.5117,-1.54,-1.5206,-1.5089,-1.5089,-1.449,-1.4172,-1.4172,-1.3722,-1.339,-1.3169,-1.3078,-1.2926,-1.272,-1.2528,-1.2366,-1.2282,-1.2251,-1.1849,-1.1272,-1.1334,-1.1608,-1.1934,-1.1872,-1.1872,-1.181,-1.1358,-1.1209,-1.1146,0.0,0.0,-1.4902,-1.4881,-1.4036,-1.3595,-1.4383,-1.4399,-1.5187,-1.7592,-1.9313,-2.0916,-2.2518,-2.3178,-2.3504,-2.3504,-2.3253,-2.3716,-2.5248,-2.1562,-2.001,-2.1515,-1.9263,-1.8645,-2.0103,-2.1586,-2.2685,-2.3427,-2.4079,-2.4403,-2.4386,-2.4178,-2.3698,-2.3015,-2.2937,-2.2477,-2.1766,-2.1449,-2.1309,-2.1164,-1.9656,-1.8327,-1.7102,0.0,0.0,0.0,0.0,0.0,0.0,0.0,0.0,0.0,0.0,0.0,0.0,0.0,0.0,0.0,0.0,0.0,0.0,0.0,0.0,0.0,0.0,0.0,0.0,0.0,0.0,0.0,0.0,0.0,0.0,0.0,0.0,0.0,-1.3346,-1.3913,-1.3891,-1.2774,-1.3587,-1.3681,-1.2332,-1.3496,-1.4454,-1.4793,-1.5186,-1.5381,-1.5381,-1.4824,-1.4499,-1.4469,-1.3812,-1.3472,-1.3472,-1.345,-1.31,-1.2481,-1.2481,-1.2158,-1.1591,-1.1404,-1.1303,-1.1303,-1.1153,-1.0996,-1.0839,-1.1028,-1.0996,-1.0807,-1.0649,-1.0624,-1.0624,-1.0593,-1.0593,-1.0593,-1.5096,-1.5026,-1.4921,-1.4785,-1.4463,-1.4277,-1.4344,-1.4826,-1.582,-1.7664,-1.9313,-2.0916,-2.2518,-2.3178,-2.3504,-2.3504,-2.3089,-2.3228,-2.4185,-2.1464,-2.0258,-2.1271,-2.1654,-2.2293,-2.3255,-2.3139,-2.3448,-2.413,-2.4317,-2.4354,-2.4258,-2.421,-2.3761,-2.2998,-2.2967,-2.2538,-2.1781,-2.1708,-2.1526,-2.1214,-2.0271,-1.8843,-1.7278,0.0,0.0,0.0,0.0,0.0,0.0,0.0,0.0,0.0,0.0,0.0,0.0,0.0,0.0,0.0,0.0,0.0,0.0,0.0,0.0,0.0,0.0,0.0,0.0,0.0,0.0,0.0,0.0,0.0,0.0,0.0,0.0,-1.3281,-1.3455,-1.3994,-1.4232,-1.389,-1.4398,-1.4658,-1.4388,-1.4713,-1.5046,-1.5205,-1.5352,-1.5206,-1.4765,-1.4588,-1.4291,-1.3773,-1.313,-1.2757,-1.2757,-1.2343,-1.2019,-1.1856,-1.1856,-1.1771,-1.1591,-1.1529,-1.1428,-1.1303,-1.1272,-1.1153,-1.1028,-1.109,-1.1059,-1.0996,-1.0807,-1.0744,-1.0744,-1.0656,-1.0593,-1.0593,-1.5096,-1.5015,-1.4896,-1.4724,-1.434,-1.411,-1.4277,-1.4981,-1.62,-1.8153,-1.9793,-2.1405,-2.2998,-2.3251,-2.3324,-2.3324,-2.3115,-2.3175,-2.3602,-2.2255,-2.1634,-2.2104,-2.2936,-2.3763,-2.4474,-2.4374,-2.4496,-2.4856,-2.5143,-2.5212,-2.508,-2.5046,-2.4464,-2.3418,-2.3418,-2.2821,-2.1812,-2.1812,-2.1693,-2.1464,-2.0893,-1.9747,-1.8406,-1.8577,-1.7456,-1.5844,-1.6028,-1.5704,-1.5221,-1.5371,0.0,0.0,0.0,0.0,0.0,0.0,0.0,0.0,0.0,0.0,0.0,0.0,0.0,0.0,0.0,0.0,0.0,0.0,0.0,0.0,0.0,0.0,0.0,0.0,-1.3707,-1.3855,-1.4105,-1.4267,-1.432,-1.4223,-1.4635,-1.4977,-1.5087,-1.5129,-1.5196,-1.5381,-1.541,-1.5147,-1.4529,-1.4231,-1.3773,-1.31,-1.2458,-1.2128,-1.2128,-1.1771,-1.1591,-1.1591,-1.1591,-1.1591,-1.1591,-1.1591,-1.1529,-1.1435,-1.1435,-1.1341,-1.1185,-1.1279,-1.1247,0.0,0.0,0.0,0.0,0.0,-1.0593,-1.0593,-1.5096,-1.4927,-1.475,-1.4719,-1.3934,-1.3523,-1.4192,-1.506,-1.6472,-1.8805,-2.0499,-2.2093,-2.3632,-2.337,-2.3091,-2.3091,-2.3357,-2.3511,-2.3511,-2.3596,-2.3562,-2.341,-2.3477,-2.3881,-2.4609,-2.527,-2.5611,-2.5613,-2.6218,-2.6416,-2.6278,-2.6239,-2.5407,-2.4,-2.4,-2.3172,-2.1812,-2.1812,-2.1812,-2.1766,-2.148,-2.0829,-2.0032,-1.994,-1.9414,-1.8659,-1.8068,-1.7589,-1.7152,-1.6637,0.0,0.0,0.0,0.0,0.0,0.0,0.0,0.0,0.0,0.0,0.0,0.0,0.0,0.0,0.0,0.0,0.0,0.0,0.0,0.0,0.0,0.0,0.0,0.0,-1.4143,-1.4572,-1.4935,-1.4687,-1.4408,-1.4297,-1.4655,-1.4952,-1.5103,-1.5115,-1.5189,-1.542,-1.5352,-1.503,-1.441,0.0,0.0,0.0,0.0,-1.1685,-1.1591,-1.1591,-1.1591,-1.1591,-1.1591,-1.1591,-1.1591,-1.1591,-1.1591,-1.1591,-1.1591,-1.1498,-1.1334,-1.1529,-1.1466,-1.1272,-1.0965,-1.0839,-1.0776,-1.0656,-1.0593,-1.0593,-1.5096,-1.4516,-1.416,-1.4616,-1.3965,-1.3598,-1.4204,-1.5519,-1.7102,-1.8878,-2.0499,-2.2093,-2.3632,-2.337,-2.3091,-2.3091,-2.3838,-2.4288,-2.4288,-2.4847,-2.4644,-2.3444,-2.3966,-2.4643,-2.5372,-2.5541,-2.5831,-2.6302,-2.6435,-2.6398,-2.6221,-2.6203,-2.5407,-2.4,-2.4,-2.3172,-2.1812,-2.1812,-2.1812,-2.1781,-2.1738,-2.1369,-2.0846,-2.054,-2.0076,-1.9544,-1.9409,-1.9076,-1.8757,-1.9163,-1.8323,-1.7158,-1.764,-1.6514,0.0,0.0,0.0,0.0,0.0,0.0,0.0,0.0,0.0,0.0,0.0,0.0,0.0,0.0,0.0,0.0,0.0,0.0,0.0,-1.5151,-1.5329,-1.5322,-1.5039,-1.5245,-1.5421,-1.5395,-1.5467,-1.5612,-1.5855,-1.5802,-1.5698,-1.5662,-1.504,-1.438,-1.3722,-1.3563,-1.2964,-1.1802,-1.212,-1.2097,-1.1591,-1.1591,-1.1591,-1.1591,0.0,0.0,-1.1591,-1.1591,-1.1591,-1.1591,-1.1591,-1.1591,-1.1529,-1.1591,-1.1466,-1.1272,-1.1122,-1.0933,-1.0776,-1.0656,-1.0593,-1.0593,-1.5105,-1.4699,-1.443,-1.4653,-1.3954,-1.3566,-1.4198,-1.4976,-1.6378,-1.8787,-2.0499,-2.2093,-2.3632,-2.3502,-2.3077,-2.2553,-2.2718,-2.3154,-2.3898,-2.4289,-2.4323,-2.3966,-2.4644,-2.5389,-2.6133,-2.615,-2.6286,-2.6554,-2.6554,-2.6485,-2.6345,-2.6345,-2.5545,-2.4066,-2.4066,-2.3204,-2.1812,-2.1812,-2.1812,-2.1812,-2.1812,-2.166,-2.1431,-2.1229,-2.0682,-2.0072,-2.0278,-1.9929,-1.9443,-1.9782,-1.9178,-1.8323,-1.8683,-1.769,-1.6225,0.0,0.0,0.0,0.0,0.0,0.0,0.0,0.0,0.0,0.0,0.0,0.0,0.0,0.0,-1.4466,0.0,0.0,-1.5578,-1.5682,-1.595,-1.6131,-1.61,-1.6307,-1.6233,-1.5619,-1.5766,-1.5936,-1.5989,-1.5943,-1.5827,-1.5701,-1.501,-1.4291,-1.3541,-1.3511,-1.3047,-1.2066,-1.2336,-1.2358,-1.2035,-1.174,-1.1591,-1.1591,-1.1591,-1.1591,-1.1591,-1.1591,-1.1591,-1.1591,-1.1591,-1.1591,-1.1591,-1.1591,-1.1529,-1.1435,-1.1279,-1.109,-1.0933,-1.0744,-1.0713,-1.0681,-1.5087,-1.4979,-1.4841,-1.4727,-1.3903,-1.352,-1.4192,-1.4427,-1.5621,-1.8697,-2.0355,-2.1858,-2.3415,-2.3261,-2.2762,-2.2077,-2.1537,-2.1908,-2.3509,-2.3613,-2.3799,-2.4271,-2.5135,-2.5879,-2.6471,-2.6623,-2.6657,-2.6589,-2.6589,-2.6487,-2.6267,-2.6267,-2.5414,-2.3881,-2.3881,-2.3118,-2.1812,-2.1812,-2.1812,-2.1812,-2.1812,-2.1812,-2.1781,-2.1738,-2.1182,-2.0483,-2.0796,-2.0395,-1.9708,-1.9708,-1.942,-1.9101,-1.9101,-1.8404,-1.7458,-1.6917,-1.6184,0.0,0.0,0.0,0.0,0.0,0.0,0.0,0.0,0.0,-1.4297,-1.4555,-1.4935,-1.5116,-1.472,-1.5371,-1.5955,-1.5894,-1.6271,-1.6737,-1.7152,-1.719,-1.6843,-1.588,-1.603,-1.6181,-1.6,-1.5972,-1.5875,-1.5788,-1.5118,-1.443,-1.3773,-1.3713,-1.3411,-1.2726,-1.2696,-1.2634,-1.2512,-1.1888,-1.1591,-1.1591,-1.1591,-1.1591,-1.1591,-1.1591,-1.1591,-1.1591,-1.1591,-1.1591,-1.1591,-1.1591,-1.1591,-1.1591,-1.1435,-1.1279,-1.1185,-1.0933,-1.0839,-1.0776,-1.5019,-1.4894,-1.4789,-1.4708,-1.3877,-1.3457,-1.4186,-1.4909,-1.6255,-1.8761,-1.9884,-2.1043,-2.2644,-2.1954,-2.1659,-2.237,-2.1794,-2.2231,-2.4252,-2.4372,-2.4118,-2.3545,-2.4864,-2.5642,-2.5711,-2.6353,-2.6657,-2.6589,-2.6589,-2.6202,-2.543,-2.543,-2.4612,-2.3131,-2.3131,-2.2619,-2.1812,-2.1812,-2.1812,-2.1812,-2.1812,-2.1812,-2.1812,-2.1797,-2.1432,-2.0926,-2.0959,-2.043,-1.9708,-1.9708,-1.942,-1.9101,-1.9101,-1.8999,-1.885,-1.8722,-1.8155,-1.743,-1.6761,-1.556,-1.4571,-1.487,-1.4556,-1.4644,0.0,0.0,-1.5312,-1.6214,-1.6232,-1.5929,-1.554,-1.5776,-1.6039,-1.6143,-1.6376,-1.6661,-1.7152,-1.719,-1.714,-1.7002,-1.6832,-1.662,-1.6374,-1.6192,-1.6056,-1.6056,-1.5332,-1.4805,-1.4588,-1.4567,-1.4192,-1.3411,-1.3381,-1.31,-1.2512,-1.1888,-1.1591,-1.1591,-1.1591,-1.1591,-1.1591,-1.1591,-1.1591,-1.1591,-1.1591,-1.1591,-1.1591,-1.1591,-1.1591,-1.1591,-1.1591,-1.156,-1.1498,-1.1185,-1.0965,-1.0807,-1.5011,-1.483,-1.4661,-1.4658,-1.4259,-1.4027,-1.4258,-1.4589,-1.5675,-1.8099,-1.9095,-2.0047,-2.1188,-2.0386,-2.0291,-2.1575,-2.1141,-2.1576,-2.3328,-2.3716,-2.3714,-2.341,-2.4391,-2.5152,-2.5592,-2.5473,-2.5609,-2.6016,-2.5594,-2.519,-2.4838,-2.4838,-2.422,-2.3108,-2.3108,-2.263,-2.1812,-2.1812,-2.1812,-2.1812,-2.1812,-2.1812,-2.1812,-2.1812,-2.1525,-2.1151,-2.1503,-2.1211,0.0,-2.0406,-2.0049,-1.9609,-1.9217,-1.9101,-1.9082,-1.9064,-1.9022,-1.8845,-1.8329,-1.7365,-1.6436,0.0,-1.5891,-1.5808,-1.6412,-1.6158,-1.5832,-1.6022,-1.5944,-1.5736,-1.5367,-1.588,-1.6371,0.0,-1.6976,-1.7508,-1.7694,-1.7717,-1.7673,-1.7507,-1.7396,-1.7155,-1.6676,-1.642,-1.622,-1.6114,-1.5459,-1.5011,-1.4835,-1.4805,-1.4638,-1.4201,-1.4201,-1.3833,-1.31,-1.2428,-1.195,-1.1591,-1.1591,-1.1591,-1.1591,-1.1591,-1.1694,-1.1838,-1.1838,-1.1941,-1.2123,-1.2123,-1.2006,-1.1838,-1.1838,-1.1753,-1.156,-1.131,-1.1146,-1.1052,-1.5,-1.4808,-1.4644,-1.4608,-1.4549,-1.4447,-1.4319,-1.43,-1.5175,-1.7573,-1.8407,-1.8987,-1.9576,-1.8985,-1.8968,-2.0016,-2.0416,-2.1108,-2.2289,-2.3106,-2.3425,-2.3105,-2.3814,-2.4457,-2.4983,-2.4677,-2.4762,-2.5304,-2.4762,-2.4389,-2.4203,-2.4203,-2.3739,-2.2931,-2.2899,-2.2491,-2.1842,-2.1796,-2.1812,-2.1812,-2.1812,-2.1812,-2.1812,-2.1812,-2.1324,-2.0777,-2.1569,-2.1454,-2.0845,-2.021,-1.9942,-1.972,-1.884,-1.8825,-1.9174,-1.9522,-1.982,-1.9872,-1.9181,-1.85,0.0,-1.7167,-1.6956,-1.6818,-1.6434,-1.6262,-1.6078,-1.568,-1.5524,-1.539,-1.5153,-1.5807,-1.6449,-1.6575,-1.7332,-1.7951,-1.8088,-1.8084,-1.803,-1.7822,-1.7739,-1.7545,-1.7099,-1.6705,-1.6449,-1.6285,-1.5826,-1.5429,-1.5235,-1.5235,-1.5167,-1.504,-1.4854,-1.446,-1.3842,-1.3,-1.2336,-1.1856,-1.1685,-1.1591,-1.1591,-1.1591,-1.1736,-1.2003,-1.2003,-1.2186,-1.2485,-1.2485,-1.2353,-1.2135,-1.2135,-1.2028,-1.1823,-1.1696,-1.1485,-1.1272,-1.5007,-1.4898,-1.4748,-1.4624,-1.4549,-1.4447,-1.4319,-1.43,-1.5175,-1.7573,-1.7918,-1.7954,-1.7972,-1.7954,-1.784,-1.763,-1.9737,-2.1207,-2.1519,-2.3001,-2.3423,-2.2378,-2.3038,-2.3427,-2.346,-2.4152,-2.4508,-2.4525,-2.4508,-2.4135,-2.3427,-2.3427,-2.2994,-2.2216,-2.2092,-2.1972,-2.1882,-2.1825,-2.1812,-2.1812,-2.1812,-2.1812,-2.1812,-2.1812,-2.0788,-1.9512,-2.0777,-2.0711,-1.9823,-1.8455,-1.8574,-1.9093,-1.7684,-1.8114,-1.9348,-2.0582,-2.0912,-2.0557,-1.9086,-1.8503,-1.8127,-1.7462,-1.7381,-1.738,-1.7063,-1.6561,-1.6078,-1.568,-1.5345,-1.5108,-1.5108,-1.5556,-1.6084,-1.6518,-1.706,-1.7576,-1.8043,-1.8084,-1.8084,-1.8084,-1.7877,-1.7684,0.0,-1.7155,-1.679,-1.6779,-1.6516,-1.6278,-1.6075,-1.6056,-1.6009,-1.5885,-1.5225,-1.4835,-1.4686,-1.3403,-1.2673,-1.2481,-1.1888,-1.1591,-1.1591,-1.1591,-1.1736,-1.2003,-1.2003,-1.2186,-1.2485,-1.2485,-1.2485,-1.247,-1.247,-1.247,-1.2456,-1.2456,-1.1963,-1.1272,-1.6542,-1.5662,-1.4963,-1.5501,-1.5025,-1.4549,-1.4447,-1.4356,-1.4789,-1.6128,-1.6776,0.0,0.0,0.0,0.0,0.0,-2.0425,-2.1583,-2.2741,-2.304,-2.3235,-2.3354,-2.2954,-2.2945,-2.3376,-2.3156,-2.3274,-2.378,-2.3274,-2.2919,-2.2682,-2.2682,-2.2504,-2.22,-2.2152,-2.2061,-2.1955,-2.1882,-2.1869,-2.1855,-2.1811,-2.1812,-2.1912,-2.2891,-2.1739,-1.9759,0.0,-2.0049,-1.878,-1.8966,-1.8853,-1.8475,-1.761,-1.7573,-1.8067,-1.9267,-1.9866,-2.0039,-1.947,-1.8787,-1.8173,-1.794,-1.7632,-1.7263,-1.69,-1.6441,-1.5986,-1.5491,-1.594,-1.629,-1.5846,-1.7004,-1.7873,-1.7349,-1.7894,-1.8322,-1.8134,-1.8084,-1.8084,-1.8084,-1.803,0.0,0.0,0.0,0.0,-1.6807,-1.6733,-1.6563,-1.6306,-1.6306,-1.622,-1.6038,-1.5816,-1.542,-1.4835,-1.4412,-1.3687,-1.2704,-1.1957,-1.1701,-1.1875,-1.1875,-1.2175,-1.2645,-1.2645,-1.2862,-1.317,-1.317,-1.3038,-1.2848,-1.2848,-1.2543,-1.2164,-1.2164,-1.1894,-1.1495,-1.7401,-1.6569,-1.5937,-1.6443,-1.5721,0.0,0.0,0.0,0.0,0.0,0.0,0.0,0.0,0.0,0.0,0.0,0.0,-2.1527,-2.2178,-2.2735,-2.3225,-2.3598,-2.2721,-2.2647,-2.3562,-2.2552,-2.2598,-2.3797,-2.2801,-2.2567,-2.3071,-2.2547,-2.2268,-2.2225,-2.2214,-2.2152,-2.2075,-2.1969,-2.2228,-2.2648,-2.2071,-2.1976,-2.2243,-2.2659,-2.1166,0.0,-1.939,-1.8349,-1.6799,-1.7311,-1.7413,-1.7269,-1.6843,-1.729,-1.8077,-1.8832,-1.9291,-1.9525,-1.9407,-1.8911,-1.8406,-1.838,-1.7996,-1.751,-1.7131,-1.6676,-1.617,-1.569,-1.6205,-1.6634,-1.6244,-1.7465,-1.8395,-1.802,-1.8538,-1.8924,-1.8757,-1.8573,-1.843,-1.8375,-1.8226,-1.8084,0.0,0.0,0.0,-1.6976,-1.6835,-1.6676,-1.6402,-1.6413,-1.6345,-1.621,-1.621,-1.5902,-1.5323,-1.5119,-1.4387,-1.3137,-1.2312,-1.2089,-1.2401,-1.2237,-1.247,-1.3009,-1.3009,-1.3192,-1.3492,-1.3492,-1.3375,-1.3184,-1.3184,-1.2928,-1.2521,-1.2521,-1.2358,-1.2058,-1.762,-1.7558,-1.7477,0.0,0.0,0.0,0.0,0.0,0.0,0.0,0.0,0.0,0.0,0.0,0.0,0.0,0.0,0.0,-2.0053,-2.2125,-2.3294,-2.3063,-2.2317,-2.2494,-2.3769,-2.2332,-2.2517,-2.4418,-2.3016,-2.305,-2.4386,-2.2953,-2.2296,-2.2296,-2.2225,-2.2214,-2.2214,-2.2075,-2.274,-2.3764,-2.2348,-2.2137,-2.2542,-2.1216,-1.9223,-1.7138,-1.7079,-1.5853,-1.4233,-1.3965,-1.4688,-1.5699,-1.561,-1.7254,-1.9214,-1.9225,-1.918,-1.9078,-1.9031,-1.8908,-1.8784,-1.8731,-1.8459,-1.8129,-1.7801,-1.7214,-1.6633,-1.6201,-1.6173,-1.6249,0.0,0.0,-1.7845,-1.8487,-1.8896,-1.9308,-1.9796,-1.9425,-1.9031,0.0,0.0,0.0,0.0,0.0,0.0,-1.7273,0.0,-1.6733,-1.6431,-1.6431,-1.6402,-1.6413,-1.6413,-1.6306,-1.6114,-1.5497,-1.4754,-1.385,-1.3004,-1.2787,-1.3109,-1.277,-1.2758,-1.3031,-1.3031,-1.3206,-1.3492,-1.3492,-1.3492,-1.3492,-1.3492,-1.3484,-1.347,-1.347,-1.3265,-1.2813,0.0,0.0,0.0,0.0,0.0,0.0,0.0,0.0,0.0,0.0,0.0,0.0,0.0,0.0,0.0,0.0,0.0,0.0,-2.1066,-2.1524,-2.2,-2.2489,-2.2153,-2.2113,-2.2401,-2.2601,-2.2943,-2.3458,-2.2884,-2.2798,-2.3158,-2.2578,-2.2296,-2.2296,-2.2282,-2.2268,-2.2268,-2.218,-2.1687,-2.0941,-2.0444,-2.004,-1.9767,-2.045,-1.9512,-1.7851,-1.789,-1.6747,-1.5339,-1.6001,-1.6578,-1.6997,-1.6933,-1.7288,-1.783,-1.8324,-1.873,-1.9017,-1.9012,-1.8908,-1.8803,-1.8779,-1.8678,-1.8464,-1.8022,-1.7707,-1.7284,-1.6407,-1.7267,-1.7806,0.0,0.0,0.0,-1.8625,-1.9094,0.0,-1.9183,-1.9034,0.0,-1.8352,0.0,-1.8084,-1.8084,-1.8084,0.0,0.0,-1.7507,-1.7239,-1.6733,-1.6705,-1.6602,-1.6413,-1.6413,-1.6374,-1.6316,-1.5594,-1.5078,-1.4846,-1.4316,-1.3896,-1.3576,-1.3805,-1.3712,-1.3367,-1.3367,-1.3418,-1.3492,-1.3492,-1.3492,-1.3492,-1.3492,-1.3345,-1.3133,-1.3133,-1.2928,-1.2543,0.0,0.0,0.0,0.0,0.0,0.0,0.0,0.0,0.0,0.0,0.0,0.0,0.0,0.0,0.0,0.0,0.0,0.0,0.0,-2.0336,-2.0774,-2.1893,-2.1503,-2.1512,-2.207,-2.1487,-2.1772,-2.3005,-2.1863,-2.1606,-2.2156,-2.1332,-2.0726,-2.0318,-2.0318,-2.0318,-2.0318,-2.028,-2.014,0.0,0.0,-1.8901,-1.91,-1.924,-1.8689,-1.7809,-1.7502,-1.6996,-1.6512,-1.6974,-1.7317,-1.7532,-1.7434,-1.7729,-1.8203,-1.8564,-1.8854,-1.9055,-1.9055,-1.8965,-1.8889,-1.8889,-1.8831,-1.8664,-1.8417,-1.8133,-1.7693,-1.6874,-1.7684,-1.8056,-1.6433,-1.7918,-1.9153,0.0,0.0,0.0,-1.9431,-1.9234,-1.9002,0.0,-1.8386,0.0,-1.822,-1.815,-1.8041,0.0,-1.7767,-1.749,-1.7004,-1.6864,-1.6733,-1.6563,-1.6459,-1.6413,-1.6413,-1.5749,-1.5605,-1.5946,-1.5327,-1.4841,-1.4501,-1.4576,-1.423,-1.3492,0.0,-1.3492,-1.3492,-1.3492,-1.3492,-1.3492,-1.3492,-1.3382,-1.3221,-1.3221,-1.3104,-1.2921,0.0,0.0,0.0,0.0,0.0,0.0,0.0,0.0,0.0,-1.6159,-1.587,-1.5972,0.0,0.0,0.0,0.0,0.0,0.0,0.0,0.0,-1.9721,-2.1115,-2.0626,-2.0841,-2.2003,-2.0091,-2.0271,-2.2707,-2.0589,-2.0094,-2.1098,-1.9602,-1.8414,-1.7534,-1.7523,-1.7563,-1.7648,-1.7648,-1.8306,-1.921,-1.7853,-1.8038,-1.8996,0.0,-1.7332,-1.7432,-1.6873,-1.6998,-1.7427,-1.7495,-1.7667,-1.7852,-1.7737,-1.8432,-1.9321,-1.9302,-1.9213,-1.912,-1.9101,-1.9059,-1.8998,-1.8998,-1.8927,-1.8836,-1.8836,-1.8449,-1.7916,-1.7308,-1.76,-1.7525,-1.615,-1.7213,-1.8295,-1.8211,0.0,-1.9237,-1.9906,-1.9641,-1.9336,-1.9225,-1.8744,-1.8422,-1.8422,-1.8275,-1.8166,-1.8139,-1.7931,-1.7645,-1.7284,-1.7032,-1.6864,-1.6818,-1.6545,-1.6413,-1.6413,-1.6061,-1.6228,-1.6903,-1.6265,-1.5836,-1.5563,-1.5296,-1.4589,-1.3564,-1.3564,-1.3564,-1.3492,-1.3492,-1.3492,-1.3492,-1.3492,-1.3492,-1.3492,-1.3492,-1.3492,-1.3484,0.0,0.0,0.0,0.0,0.0,0.0,0.0,0.0,0.0,0.0,-1.781,-1.6802,0.0,0.0,0.0,0.0,0.0,0.0,0.0,0.0,0.0,-1.9503,-2.001,-2.0409,-2.0643,-2.0887,-2.1247,-2.1746,-2.0463,-1.9615,-1.9167,-1.7889,-1.6894,-1.614,-1.6024,-1.6333,-1.6891,-1.6891,-1.6678,-1.6319,-1.5997,-1.5986,-1.6102,-1.5793,0.0,0.0,-1.7976,-1.7657,-1.7221,-1.8637,-1.9165,-1.9251,-1.9233,-1.9291,-1.9376,-1.9321,-1.9284,-1.9246,-1.912,-1.9082,-1.9082,-1.9082,-1.9021,-1.8974,-1.8974,-1.8427,0.0,-1.7296,-1.7235,-1.7084,-1.6492,-1.6904,-1.7637,-1.8523,-1.8646,-1.8795,-1.935,-1.9378,-1.9155,0.0,-1.8619,-1.856,-1.856,-1.8533,0.0,0.0,-1.8313,-1.8084,-1.7629,-1.7573,-1.7323,-1.6818,-1.6545,-1.6413,-1.6413,-1.6658,-1.6856,-1.699,-1.7623,-1.7285,-1.6098,-1.6397,-1.5604,-1.3985,-1.3985,0.0,-1.3492,-1.3492,-1.3492,-1.3492,-1.3492,-1.3492,-1.3492,-1.3492,-1.3492,-1.3455,0.0,0.0,0.0,0.0,0.0,0.0,0.0,-2.0041,-2.0919,-2.2802,-2.1962,-2.0659,-1.9303,-1.7682,-1.7019,0.0,0.0,0.0,0.0,0.0,0.0,-1.7827,-1.8226,-1.8425,-1.8425,-1.8399,-1.8572,-1.9005,0.0,-1.7384,-1.6916,-1.6229,-1.5462,-1.465,-1.45,-1.4437,-1.4403,-1.4403,-1.4217,-1.3887,-1.3809,-1.4435,-1.5389,-1.5331,0.0,0.0,-1.8257,-1.8546,-1.87,-1.914,-1.9823,-2.0376,-1.97,-1.9465,-1.9395,-1.9358,-1.9358,-1.9339,-1.9265,-1.9228,-1.9195,-1.9195,-1.9134,-1.9055,-1.9055,0.0,0.0,-1.7245,-1.6644,-1.6055,-1.5686,-1.6394,-1.7148,-1.7452,-1.8092,-1.865,-1.8953,-1.9015,-1.899,-1.8836,-1.8759,-1.8706,-1.8706,-1.864,-1.856,-1.8518,-1.8449,-1.8259,-1.7931,-1.7794,-1.7423,-1.6818,-1.6676,-1.6545,-1.6413,-1.6591,-1.6933,-1.7378,-1.7812,-1.7658,-1.6994,-1.6917,-1.6026,-1.4517,-1.4238,-1.3884,-1.3492,-1.3492,-1.3492,-1.3492,-1.3492,-1.3492,-1.3492,-1.3492,-1.3492,-1.347,0.0,0.0,0.0,0.0,0.0,0.0,0.0,-2.2771,-2.3617,-2.6207,-2.6155,-2.4721,-2.1679,-1.8996,-1.7542,0.0,0.0,0.0,0.0,0.0,0.0,0.0,0.0,0.0,0.0,0.0,0.0,-1.6965,-1.6153,0.0,0.0,0.0,0.0,0.0,-1.2976,-1.2592,-1.2043,-1.2043,-1.2145,0.0,0.0,-1.3504,0.0,0.0,0.0,0.0,0.0,-1.932,-2.0023,-1.9691,-2.0242,-2.0889,-1.9885,-1.9508,-1.9498,-1.9594,-1.9535,-1.9446,-1.9413,-1.9358,-1.9302,-1.9302,-1.9195,-1.9072,-1.8941,-1.7911,-1.6953,-1.6822,-1.5792,-1.4905,-1.4921,-1.5757,-1.6476,-1.6486,-1.7435,-1.8301,-1.8672,-1.8695,-1.8782,-1.9131,-1.8991,0.0,-1.8851,-1.8759,0.0,-1.8652,-1.8518,-1.8329,-1.8111,-1.7849,-1.7479,-1.7015,-1.6874,-1.6705,-1.6488,-1.6599,-1.7026,-1.7699,-1.7895,-1.7865,-1.7604,-1.7182,-1.6271,-1.4939,-1.4418,-1.3992,-1.3637,-1.3528,-1.3492,-1.3492,-1.3492,-1.3492,-1.3492,-1.3492,-1.3492,-1.3492,0.0,0.0,0.0,0.0,0.0,0.0,0.0,-2.4497,-2.5713,-2.9694,-2.8773,-2.6987,-2.497,-2.1783,-1.9228,0.0,0.0,0.0,0.0,0.0,0.0,0.0,0.0,0.0,0.0,0.0,0.0,-1.7791,-1.6983,0.0,0.0,0.0,0.0,0.0,0.0,-1.1265,-1.1214,-1.1214,0.0,0.0,0.0,0.0,0.0,0.0,0.0,0.0,0.0,-1.9571,-1.98,-2.0769,-2.0745,-2.0286,-2.0158,-1.9909,-1.9773,-2.0262,-2.002,-1.9556,-1.9431,-1.9358,-1.9302,-1.9302,-1.9195,-1.8956,-1.8419,-1.7258,-1.614,-1.5588,-1.4471,-1.3919,-1.5051,-1.4968,-1.5238,-1.6862,-1.6896,-1.7207,-1.8684,-1.852,-1.8612,-1.9615,0.0,0.0,-1.8999,-1.896,-1.8919,-1.8798,-1.8652,-1.8425,-1.8111,-1.7849,-1.7684,-1.7629,-1.7099,-1.679,-1.6761,-1.7311,-1.7626,-1.7719,-1.8557,-1.8415,-1.7442,-1.7373,-1.6568,-1.5161,-1.474,-1.4353,0.0,-1.3637,-1.3492,-1.3492,-1.3492,-1.3492,-1.3492,-1.3492,-1.3492,-1.3492,0.0,0.0,0.0,0.0,0.0,0.0,-2.5161,-2.5555,-2.6712,-3.0182,-2.9518,-2.8048,-2.6281,-2.3866,-2.132,-1.8644,0.0,0.0,0.0,0.0,0.0,0.0,0.0,0.0,0.0,0.0,-1.7182,-1.7182,-1.6856,0.0,0.0,0.0,0.0,0.0,0.0,-1.2046,-1.113,-1.162,0.0,0.0,0.0,0.0,0.0,0.0,0.0,0.0,0.0,0.0,-2.0938,-2.094,-2.1202,-2.1439,-2.0942,-2.0597,-2.0395,-2.0557,-2.0456,-2.0154,-1.97,-1.9241,-1.8874,-1.8874,-1.8749,-1.8567,-1.8376,-1.6948,-1.5604,-1.5402,-1.3712,-1.2754,-1.4413,-1.4242,-1.4439,-1.6245,-1.6404,-1.6698,-1.7786,-1.7777,-1.7983,-1.8841,-1.8702,0.0,0.0,0.0,-1.8946,-1.8798,-1.8732,-1.8625,-1.8398,-1.822,-1.7986,-1.7711,-1.7462,-1.7286,-1.7214,-1.7467,-1.7768,-1.8123,-1.8161,-1.8112,-1.793,-1.7235,-1.6464,-1.5621,-1.4919,-1.4425,0.0,-1.3674,-1.3492,-1.3492,-1.3492,-1.3492,-1.3492,-1.3492,-1.3492,-1.3492,0.0,0.0,0.0,0.0,0.0,-2.2306,-2.5626,-2.6099,-2.7094,-2.9953,-2.9556,-2.8311,-2.6561,-2.478,-2.2629,-1.9965,-1.879,0.0,0.0,0.0,0.0,0.0,0.0,0.0,0.0,0.0,-1.7056,-1.7056,-1.7056,-1.6758,0.0,0.0,-1.4821,-1.4146,0.0,0.0,0.0,0.0,0.0,0.0,0.0,0.0,0.0,0.0,0.0,0.0,0.0,0.0,0.0,0.0,0.0,-2.2117,-2.1439,-2.1247,-2.1268,-2.1401,-2.1024,-2.0508,-2.034,-1.9453,-1.8609,-1.8609,-1.8458,-1.8191,-1.7672,-1.6385,-1.5169,-1.4643,-1.2923,-1.1969,-1.3456,-1.3555,-1.3934,-1.5597,-1.6101,-1.6678,-1.7907,-1.7527,-1.7581,-1.8733,0.0,-1.8038,0.0,-1.8903,-1.8972,-1.8866,-1.8878,-1.8786,-1.8679,-1.8518,-1.8286,-1.7931,-1.794,-1.7894,-1.7813,-1.7875,-1.8131,-1.8542,-1.8192,-1.8128,-1.8269,-1.726,-1.6603,-1.6114,-1.5204,-1.4561,0.0,-1.3855,-1.3601,-1.3492,-1.3492,-1.3492,-1.3492,-1.3492,-1.3492,-1.3492,0.0,0.0,0.0,0.0,0.0,0.0,-2.5686,-2.6091,-2.6884,-2.9381,-2.9013,-2.7776,-2.5819,-2.4228,-2.286,-2.1777,-1.9964,0.0,0.0,0.0,0.0,0.0,0.0,0.0,0.0,0.0,-1.7881,-1.7881,-1.7881,-1.7881,-1.7827,-1.5904,-1.5004,-1.4935,0.0,0.0,0.0,0.0,0.0,0.0,0.0,0.0,0.0,0.0,0.0,0.0,0.0,0.0,0.0,0.0,0.0,0.0,0.0,-2.1746,-2.2401,-2.2991,-2.1768,-2.0411,-2.1403,-2.0169,-1.8609,-1.8609,-1.851,-1.791,-1.5963,-1.5463,-1.4847,-1.2933,-1.1978,-1.1693,-1.2311,-1.296,-1.383,-1.511,-1.5917,-1.7199,-1.9555,-1.8094,-1.7603,0.0,0.0,-1.717,-1.8109,-1.8686,-1.8987,-1.8987,-1.8987,0.0,-1.8798,-1.8679,-1.8533,-1.8394,-1.8464,-1.8497,-1.8497,-1.8763,-1.8892,-1.8903,-1.9012,-1.8798,-1.8269,-1.7691,-1.7097,-1.6533,-1.5586,-1.4955,0.0,-1.4238,-1.3848,-1.3492,-1.3492,-1.3492,-1.3492,-1.3492,-1.3492,-1.3492,0.0,0.0,0.0,0.0,0.0,0.0,0.0,-2.3611,-2.4791,-2.6177,-2.6081,-2.5909,-2.5876,-2.375,-2.2167,-2.1738,-2.007,0.0,0.0,0.0,0.0,0.0,0.0,0.0,0.0,-1.8588,-1.8987,-1.954,-1.954,-1.9258,-1.8689,-1.7426,-1.6192,-1.4953,-1.3933,-1.3036,0.0,0.0,0.0,0.0,0.0,0.0,0.0,0.0,0.0,0.0,0.0,0.0,0.0,0.0,0.0,0.0,0.0,0.0,0.0,-2.3002,-2.2795,-2.1969,-2.0685,-2.0195,-1.9815,-1.8904,-1.8597,-1.8159,-1.6649,-1.5846,-1.4861,-1.3026,-1.2064,-1.1772,-1.2417,-1.2341,-1.3163,-1.6174,-1.6479,-1.6848,-1.8397,-1.8807,-1.8843,-1.8473,-1.8678,-1.898,0.0,0.0,-1.8987,-1.8987,-1.9351,-1.9528,-1.9485,-1.9682,-1.9533,-1.8913,-1.8816,-1.8986,-1.9456,-1.9554,-1.9497,-1.9381,-1.9048,-1.8687,-1.8269,-1.7691,-1.7314,-1.7132,-1.6594,-1.5921,-1.5188,-1.4796,-1.4201,-1.3492,-1.3492,-1.3492,-1.3492,-1.3492,-1.3492,-1.3492,0.0,0.0,0.0,0.0,0.0,0.0,0.0,-2.2262,-2.3297,-2.3795,-2.3585,-2.3794,-2.4892,-2.2613,-2.1174,-2.1663,-2.006,0.0,0.0,0.0,0.0,0.0,0.0,0.0,-1.9026,-1.9026,-1.9577,-2.0716,-2.0689,-2.0669,-2.0619,-1.9468,-1.7941,-1.608,-1.4926,-1.3776,0.0,0.0,0.0,0.0,0.0,0.0,-1.776,0.0,0.0,0.0,0.0,0.0,0.0,0.0,0.0,0.0,0.0,0.0,0.0,0.0,-2.2671,-2.245,-2.0731,-1.9918,-1.9373,-1.8536,-1.7935,-1.7277,-1.6219,-1.5343,-1.4298,-1.2657,-1.1944,-1.1729,-1.2156,-1.2071,-1.2783,-1.5402,-1.6072,-1.6752,-1.8135,-1.8793,-1.8666,-1.7491,0.0,0.0,0.0,-1.9071,-1.8987,-1.8987,-1.93,-1.9591,-1.9796,-1.9993,-2.0008,-1.979,-1.9645,-1.9739,-2.0081,-2.0149,-2.011,-1.9966,-1.9386,-1.8988,-1.8774,-1.8056,-1.7759,-1.7681,-1.7044,-1.6376,0.0,-1.5054,-1.4382,-1.3702,-1.3564,-1.3492,-1.3492,-1.3492,-1.3492,-1.3492,0.0,0.0,0.0,0.0,0.0,0.0,0.0,-2.1845,-2.2357,-2.2237,-2.1607,-2.1708,-2.3064,-2.0975,-2.0018,-2.1372,0.0,0.0,0.0,0.0,0.0,0.0,0.0,0.0,-1.8886,-1.885,-1.9687,-2.1483,-2.1414,-2.2043,-2.3277,-2.1817,-2.003,-1.7967,-1.6559,-1.5052,0.0,0.0,0.0,0.0,0.0,-1.776,0.0,0.0,0.0,0.0,0.0,0.0,0.0,0.0,0.0,0.0,0.0,0.0,0.0,0.0,0.0,0.0,0.0,-1.9419,-1.7836,-1.7669,-1.6697,-1.5619,-1.4886,-1.4191,0.0,-1.1985,-1.1648,-1.1634,-1.1744,-1.2124,-1.2729,-1.3551,-1.5139,-1.6873,-1.8576,-1.8145,-1.7514,0.0,-1.7834,0.0,-1.8326,-1.8758,-1.9035,-1.8987,-1.9049,-1.9263,-1.9784,-1.9754,-2.0101,-2.0882,-2.0813,-2.0653,-2.0469,-2.057,-2.0635,-2.0571,-1.9966,-1.9638,-1.9572,-1.8774,-1.8371,0.0,-1.7192,-1.6464,-1.5939,-1.5026,-1.4453,-1.4057,-1.3674,-1.3492,-1.3492,-1.3492,-1.3492,-1.3492,0.0,0.0,0.0,0.0,0.0,0.0,0.0,0.0,0.0,0.0,-2.1174,-2.1051,-2.1313,-2.0109,-1.9346,0.0,0.0,0.0,0.0,0.0,0.0,0.0,0.0,0.0,-1.8868,-1.8355,-1.9435,-2.2232,-2.2229,-2.297,-2.4401,-2.307,-2.0969,-1.8251,-1.6897,-1.5805,0.0,0.0,0.0,0.0,-1.7721,-1.7789,0.0,0.0,0.0,0.0,-1.9441,-2.0004,0.0,0.0,0.0,0.0,0.0,0.0,0.0,0.0,-1.9526,-1.882,-1.7978,0.0,-1.9177,-1.7372,-1.6368,-1.5499,0.0,-1.3863,-1.3334,-1.2041,-1.1714,-1.2004,-1.3079,-1.2523,-1.2895,-1.5962,-1.6791,-1.723,-1.7827,-1.8084,-1.8623,-1.9721,-1.9944,-1.9916,-1.9603,-1.961,-1.9447,-1.9023,-1.9372,-1.9676,-1.9796,-2.0545,-2.0991,-2.105,-2.1329,-2.1323,-2.1017,-2.1037,-2.0903,-2.0603,-2.0442,-2.0096,-1.9605,-1.9374,-1.8942,-1.8303,-1.8032,-1.7192,-1.5974,-1.5471,-1.4832,-1.4057,-1.3674,-1.3492,-1.3492,-1.3492,-1.3492,-1.3492,0.0,0.0,0.0,0.0,0.0,0.0,0.0,0.0,0.0,0.0,0.0,-2.027,-2.0043,0.0,0.0,0.0,0.0,0.0,0.0,0.0,0.0,0.0,0.0,-1.6548,-1.7731,-1.7713,-1.9264,-2.2449,-2.2794,-2.3981,-2.5919,-2.4647,-2.2424,-1.9412,-1.7003,-1.5946,0.0,0.0,0.0,0.0,-1.7709,0.0,0.0,0.0,0.0,0.0,-1.9428,-1.9955,0.0,-2.1131,-2.149,-2.1342,0.0,0.0,0.0,0.0,-1.8473,-1.7544,-1.6486,-1.7455,-1.8449,-1.7058,-1.6009,-1.523,-1.4811,-1.374,-1.2626,-1.1929,-1.1768,-1.1959,-1.2665,-1.265,-1.3192,-1.5228,-1.67,-1.784,-1.8586,-1.8794,-1.9263,-2.0301,-2.016,-1.9936,0.0,-1.9619,-1.93,-1.9011,-1.9263,-1.9555,-1.9796,-2.0334,-2.0758,-2.0996,-2.1212,-2.1304,-2.1305,-2.1221,-2.1094,-2.0871,-2.07,-2.041,-2.0053,-1.9889,-1.9353,-1.8519,-1.825,-1.7423,-1.6219,-1.5401,-1.4804,-1.4274,-1.371,-1.3492,-1.3492,-1.3492,-1.3492,-1.3492,0.0,0.0,0.0,0.0,0.0,0.0,0.0,0.0,0.0,0.0,0.0,0.0,0.0,0.0,0.0,0.0,0.0,0.0,0.0,0.0,0.0,0.0,0.0,-1.5862,-1.7093,-1.7423,-1.9289,-2.2747,-2.3209,-2.4715,-2.7157,-2.6199,-2.4049,-2.0822,-1.7514,-1.6202,-1.6514,0.0,0.0,0.0,-1.7577,0.0,0.0,0.0,0.0,0.0,0.0,0.0,0.0,-2.0562,-2.084,-2.0632,-1.9601,0.0,0.0,0.0,0.0,0.0,-1.5831,-1.6338,-1.6938,-1.6263,-1.5367,-1.4751,-1.5109,-1.3433,-1.1805,-1.1805,-1.1805,-1.1874,-1.2156,-1.2835,-1.3487,-1.3926,-1.618,-1.8422,-1.9889,-1.9815,-1.968,-1.9976,-1.9643,0.0,-1.9691,-1.9351,-1.9083,-1.8999,-1.8987,-1.9191,-1.9664,-1.9844,-2.0208,-2.0836,-2.0953,-2.1155,-2.1431,-2.1285,-2.119,-2.119,-2.086,-2.0667,-2.0571,-2.0302,-1.9628,-1.8667,-1.8206,0.0,-1.6403,-1.5204,-1.4677,-1.4533,-1.3855,-1.3564,-1.3492,-1.3492,-1.3492,-1.3492,0.0,0.0,0.0,0.0,0.0,0.0,0.0,0.0,0.0,0.0,0.0,0.0,0.0,0.0,0.0,0.0,0.0,0.0,0.0,0.0,0.0,-1.6576,-1.5763,-1.6897,-2.0305,-1.8547,-1.9815,-2.4349,-2.3482,-2.4287,-2.6632,-2.7172,-2.5358,-2.1564,-1.9774,-1.8041,-1.6548,-1.7108,0.0,-1.7589,-1.7601,0.0,0.0,0.0,0.0,0.0,0.0,0.0,0.0,-1.9626,-2.0019,-1.9736,-1.8277,0.0,0.0,0.0,0.0,0.0,-1.5328,-1.6284,-1.6511,-1.4021,-1.3675,-1.369,-1.2643,-1.21,-1.1805,-1.1805,-1.1805,-1.2456,-1.4592,-1.3741,-1.3608,-1.6263,-1.7391,-1.8505,0.0,0.0,-2.031,-2.0019,0.0,-2.0101,-1.9349,-1.9537,-1.9495,-1.9023,-1.8987,-1.9049,-1.9107,-1.9985,-2.0533,-2.0632,-2.1233,-2.1616,-2.1655,-2.136,-2.119,-2.119,-2.1126,-2.0935,-2.0603,-2.0539,-1.9639,-1.8138,0.0,-1.7226,-1.5867,-1.5319,-1.4919,-1.4569,-1.4165,-1.3811,-1.3492,-1.3492,-1.3492,-1.3492,0.0,0.0,0.0,0.0,0.0,0.0,0.0,0.0,0.0,0.0,0.0,0.0,0.0,0.0,0.0,0.0,0.0,0.0,0.0,0.0,0.0,-1.7656,-1.7789,-1.8271,-1.919,-1.8574,-2.0555,-2.5301,-2.5385,-2.6144,-2.75,-2.5942,-2.3977,-2.1729,-1.9917,-1.8336,-1.7057,-1.7372,-1.7517,-1.7552,0.0,0.0,0.0,0.0,0.0,0.0,0.0,0.0,0.0,0.0,-1.8859,-1.9395,-1.7053,0.0,0.0,0.0,0.0,0.0,-1.4019,-1.5015,-1.5791,-1.418,-1.5341,-1.6709,-1.6069,-1.5358,-1.4709,-1.4354,-1.428,-1.4527,-1.5333,-1.5514,-1.6297,-1.868,-1.8812,-1.8988,-2.0132,-1.9841,-1.9633,0.0,0.0,-1.9755,-1.9525,-1.9438,-1.9278,-1.9011,-1.8987,-1.9119,-1.9435,-1.9889,-2.0373,-2.0872,-2.1138,-2.1362,-2.1537,-2.0924,-2.0603,-2.0603,-2.0999,-2.07,-1.9737,-2.0139,-1.9365,-1.7687,0.0,-1.6941,-1.5761,-1.539,-1.4955,-1.4569,-1.4238,-1.3848,-1.3492,-1.3492,-1.3492,-1.3492,0.0,0.0,0.0,0.0,0.0,0.0,0.0,0.0,0.0,0.0,0.0,0.0,0.0,0.0,0.0,0.0,0.0,0.0,0.0,0.0,-1.7048,-1.8458,-1.9288,-1.9663,-1.9529,-2.0305,-2.2605,-2.6477,-2.7627,-2.845,-2.8818,-2.5362,-2.3235,-2.2227,-2.011,-1.856,-1.7503,-1.7503,-1.7503,-1.7503,0.0,0.0,0.0,0.0,0.0,0.0,0.0,0.0,0.0,0.0,0.0,0.0,0.0,0.0,0.0,-1.5205,-1.4705,-1.4718,-1.352,-1.437,-1.552,-1.5353,-1.6958,-1.8646,-1.8882,-1.7917,-1.6885,-1.668,-1.6621,-1.6516,-1.6118,-1.7364,-1.8814,-2.0015,-1.9819,-1.9659,-2.0074,-1.9529,-1.93,-1.9885,-1.9579,-1.9407,-1.9591,-1.9227,-1.8987,-1.8987,-1.8987,-1.9215,-1.9772,-1.9929,-2.0349,-2.1158,-2.0944,-2.095,-2.1219,-2.0291,-1.9933,-2.0096,-2.0495,-2.0096,-1.9011,-1.9573,-1.8957,-1.7482,-1.7404,-1.6802,-1.5832,-1.5497,-1.507,-1.4569,-1.431,-1.392,-1.3492,-1.3492,-1.3492,-1.3492,0.0,0.0,0.0,0.0,0.0,0.0,0.0,0.0,0.0,0.0,0.0,0.0,0.0,0.0,0.0,0.0,0.0,0.0,0.0,0.0,-1.6848,-1.7655,-1.8467,-2.0866,-2.5122,-2.5997,-2.7089,-2.8502,-2.9694,-3.0296,-3.0273,-2.7332,-2.5209,-2.3752,-2.1531,-1.9422,-1.7503,-1.7503,-1.7503,-1.7503,-1.7503,0.0,0.0,0.0,0.0,0.0,0.0,0.0,0.0,0.0,0.0,0.0,0.0,0.0,-1.7254,-1.5674,-1.463,-1.419,-1.5051,-1.5661,-1.6268,-1.7157,-1.6632,-1.6157,-1.73,-1.6548,-1.5962,-1.7091,-1.734,-1.7473,-1.7916,-1.8965,-1.9606,-1.9089,-1.9838,-2.0511,-2.0552,0.0,-2.0302,-1.9868,-1.9772,-1.9579,-1.9095,-1.9011,-1.8987,-1.8987,-1.8987,-1.9215,-1.9772,-2.0278,-2.0808,-2.135,-2.0899,-2.0621,-2.0655,-1.9595,-1.9408,-2.0096,-1.9474,-1.91,-1.9011,-1.9044,-1.8576,-1.7672,-1.7482,-1.6906,-1.6061,-1.5867,-1.5292,-1.4605,-1.4569,-1.4137,-1.3492,-1.3492,-1.3492,-1.3492,0.0,0.0,0.0,0.0,0.0,0.0,0.0,0.0,0.0,0.0,0.0,0.0,0.0,0.0,0.0,0.0,0.0,0.0,0.0,-1.5566,-1.6801,-1.8994,-2.0334,-2.2521,-2.5729,-2.6749,-2.8441,-3.0867,-3.0418,-3.0302,-3.0423,-2.6637,-2.4331,-2.3238,-2.1527,-1.9551,-1.7519,-1.7938,-1.7872,-1.7503,-1.7503,-1.7233,0.0,0.0,0.0,0.0,0.0,0.0,0.0,0.0,-1.5894,-1.6976,-1.5804,-1.668,-1.7756,-1.5856,-1.4948,-1.453,-1.4315,-1.5095,-1.6138,-1.6813,-1.7162,-1.7762,-1.9338,-1.966,-1.9729,-2.0167,-2.0494,-2.0611,-2.036,-2.0709,-2.0669,-1.9633,-1.983,-1.9979,-1.9652,-1.96,-1.9528,-1.9338,-1.9287,-1.9215,-1.9011,-1.8987,-1.8987,-1.8987,-1.8987,-1.9372,-2.0249,-2.049,-2.0995,-2.1873,-2.1052,-2.059,-2.059,-1.9123,-1.8533,-1.88,-1.8934,-1.8543,-1.7706,-1.8172,-1.7867,-1.6985,-1.6811,-1.6473,-1.6061,-1.5867,-1.547,-1.4919,-1.4453,-1.4129,-1.3848,-1.3601,-1.3273,-1.2936,0.0,0.0,0.0,0.0,0.0,0.0,0.0,0.0,0.0,0.0,0.0,0.0,0.0,0.0,0.0,0.0,0.0,0.0,-1.4677,-1.5123,-1.6571,-1.9156,-2.0811,-2.2847,-2.5402,-2.7227,-2.9248,-3.1479,-3.0718,-3.0224,-2.9909,-2.5962,-2.3799,-2.3156,-2.1071,-1.9538,-1.8522,-1.8307,-1.8087,-1.7854,-1.7593,-1.72,0.0,0.0,0.0,0.0,0.0,0.0,0.0,0.0,-1.5215,-1.672,-1.5587,-1.6603,-1.7855,-1.6155,-1.5758,-1.5701,-1.4717,-1.5343,-1.6426,-1.7051,-1.7827,-1.8909,-2.0688,-2.1316,-2.1724,-2.2447,-2.2547,-2.2304,-2.1752,-2.136,-2.0834,0.0,-1.9797,-1.9627,-1.9086,-1.8987,-1.8987,-1.8987,-1.8987,-1.8987,-1.8987,-1.8987,-1.8987,-1.8987,-1.9143,-1.9636,-2.055,-2.0551,-2.089,-2.1765,-2.057,-1.9901,-1.9825,-1.8388,-1.7638,-1.7672,-1.8104,-1.7842,-1.6908,-1.7407,-1.7295,-1.6682,-1.6473,-1.6307,-1.6132,-1.5964,-1.5603,-1.5133,-1.4489,-1.4274,-1.4201,-1.3811,-1.3295,-1.2776,0.0,0.0,0.0,0.0,0.0,0.0,0.0,0.0,0.0,0.0,0.0,0.0,0.0,0.0,0.0,0.0,0.0,0.0,-1.5349,-1.5403,-1.6095,-1.764,-1.9192,-2.1488,-2.4605,-2.8026,-2.9804,-2.9907,-3.0698,-3.0326,-2.8785,-2.5598,-2.4065,-2.3834,-2.0291,-1.9499,-2.0653,-1.8517,-1.8028,-1.8626,-1.7824,-1.7505,-1.7337,0.0,0.0,0.0,0.0,0.0,0.0,0.0,-1.5325,-1.5629,-1.704,-1.7486,-1.7354,-1.6619,-1.7097,-1.7668,-1.6725,-1.6781,-1.7319,-1.8259,-1.8513,-1.8992,-2.0722,-2.0644,-2.0921,-2.3391,-2.2889,-2.1988,-2.1843,-2.0765,0.0,-1.9813,-1.9797,-1.9615,-1.9059,-1.8987,-1.8987,-1.8987,-1.8987,-1.8987,-1.8987,-1.8987,-1.8987,-1.8987,-1.9507,-2.0037,-2.0567,-2.0402,-2.0472,-2.0867,-1.9354,-1.8388,-1.82,-1.7329,-1.6908,-1.6908,-1.6908,-1.6908,-1.6908,-1.6908,-1.6908,-1.6908,-1.6682,-1.6473,-1.6272,-1.6167,-1.5736,-1.5169,-1.474,-1.4605,-1.4569,-1.4201,-1.3716,-1.3127,0.0,0.0,0.0,0.0,0.0,0.0,0.0,0.0,0.0,0.0,0.0,0.0,0.0,0.0,0.0,0.0,0.0,0.0,-1.5456,-1.5474,-1.641,-1.8516,-2.0137,-2.1634,-2.3055,-2.5651,-2.8055,-3.0247,-3.002,-2.8562,-2.5999,-2.4849,-2.3896,-2.3093,-2.1611,-2.075,-2.0357,-1.8963,-1.8492,-1.8621,-1.7878,-1.7547,-1.7401,0.0,0.0,0.0,0.0,0.0,0.0,0.0,0.0,0.0,-1.5672,-1.6669,-1.7354,-1.6619,-1.638,-1.6078,-1.4746,-1.582,-1.7286,-1.7194,-1.9115,-2.1178,-2.1687,-2.1672,-2.1923,-2.3319,-2.412,-2.395,-2.2011,-2.1776,0.0,-1.9522,-1.9247,-1.9167,-1.9011,-1.8987,-1.8987,-1.8987,-1.8987,-1.8987,-1.8987,-1.8987,-1.8987,-1.8987,-1.9507,-1.9813,-1.9831,-2.0132,-2.0254,-2.0138,-1.9056,-1.8388,-1.82,-1.7329,-1.6908,-1.6908,-1.6908,-1.6908,-1.6908,-1.6908,-1.6908,-1.6908,-1.6682,-1.6473,-1.6272,-1.6,-1.5797,-1.5576,-1.5177,-1.5026,-1.4911,-1.4006,-1.32,-1.2455,0.0,0.0,0.0,0.0,0.0,0.0,0.0,0.0,-2.0678,-2.1166,-1.9984,-1.9095,0.0,0.0,0.0,-1.6766,-1.5954,0.0,-1.5954,-1.5386,-1.6222,-1.8918,-1.9939,-2.1512,-2.3775,-2.5457,-2.6764,-2.766,-2.8063,-2.7007,-2.4615,-2.4959,-2.4538,-2.3498,-2.3223,-2.2508,-2.1402,-2.0212,-1.9316,-1.8687,-1.8267,-1.7845,-1.7396,0.0,0.0,0.0,0.0,0.0,0.0,0.0,0.0,0.0,-1.4748,-1.5663,-1.6607,-1.6509,-1.678,-1.7021,-1.6504,-1.763,-1.8987,-1.9137,-2.046,-2.1841,-2.2309,-2.2629,-2.2992,-2.3529,-2.3936,-2.3664,-2.1986,-2.1425,0.0,-1.9518,-1.9139,-1.8987,-1.8987,-1.8987,-1.8987,-1.8987,-1.8987,-1.8987,-1.8987,-1.8987,-1.8964,-1.8924,-1.9392,-1.9593,-1.9444,-1.9647,-1.9619,-1.93,-1.8509,-1.7978,-1.7687,-1.7166,-1.6908,-1.6908,-1.6908,-1.6908,-1.6908,-1.6908,-1.6908,-1.6874,-1.6621,-1.6412,-1.6272,-1.5938,-1.5805,-1.577,-1.5541,-1.524,-1.4867,-1.4006,-1.3011,-1.199,0.0,0.0,0.0,0.0,0.0,0.0,0.0,-2.1135,-2.0396,-2.047,-1.9684,-1.9077,0.0,0.0,0.0,-1.6675,-1.5918,-1.5838,-1.6657,-1.5266,-1.5838,-1.9077,-1.937,-2.1432,-2.5697,-2.6437,-2.563,-2.3273,-2.5341,-2.5534,-2.4048,-2.5537,-2.569,-2.4735,-2.4849,-2.435,-2.3291,-2.1681,-2.0154,-1.8798,-1.8747,-1.8277,-1.7457,-1.5963,0.0,0.0,0.0,0.0,0.0,0.0,0.0,0.0,-1.4188,-1.4718,-1.544,-1.6143,-1.7667,-1.9286,-1.9987,-2.0673,-2.1454,-2.2571,-2.2039,-2.1574,-2.2722,-2.3403,-2.3804,-2.378,-2.2899,-2.2035,-2.1763,-2.0294,-1.9283,-1.9661,-1.9338,-1.8987,-1.8987,-1.8987,-1.8987,-1.8987,-1.8987,-1.9011,-1.9059,-1.9006,-1.8939,-1.8868,-1.9256,-1.9414,-1.9207,-1.9057,-1.8811,-1.8408,-1.7794,-1.7289,-1.6908,-1.6908,-1.6908,-1.6908,-1.6908,-1.6908,-1.6908,-1.6908,-1.6908,-1.6839,-1.6491,-1.6307,-1.6237,-1.5859,-1.5726,-1.5805,-1.5655,-1.5169,-1.453,-1.4034,-1.2945,-1.1669,0.0,0.0,0.0,0.0,0.0,0.0,-2.1594,-2.0441,-1.9634,-2.0262,-1.9628,-1.886,-1.8226,-1.799,0.0,-1.5875,-1.5596,-1.5838,-1.6657,-1.5773,-1.6689,-1.9902,-2.1801,-2.322,-2.4181,-2.4298,-2.3441,-2.1625,-2.3946,-2.3981,-2.1936,-2.5063,-2.625,-2.5758,-2.5153,-2.4601,-2.389,-2.0729,-1.9198,-1.8819,-1.8262,-1.8185,-1.8229,-1.6231,-1.5808,0.0,0.0,0.0,0.0,0.0,0.0,0.0,-1.4029,-1.4718,-1.5191,-1.4637,-1.606,-1.7571,-1.6454,-1.8248,-2.0503,-2.0755,-2.1669,-2.273,-2.3514,-2.3357,-2.3005,-2.2885,-2.3041,-2.2702,-2.1139,-2.0566,-2.0095,-1.9298,-1.9086,-1.8987,-1.8987,-1.8987,-1.8987,-1.8987,-1.8987,-1.9155,-1.9591,-1.9148,-1.8965,-1.9337,-1.9357,-1.9089,-1.8542,-1.873,-1.8509,-1.7725,-1.7417,-1.7141,-1.6908,-1.6908,-1.6908,-1.6908,-1.6908,-1.6908,-1.6908,-1.6908,-1.6795,-1.6647,-1.6412,-1.6237,-1.6061,-1.5223,-1.524,-1.5691,-1.4482,-1.425,-1.4422,-1.3135,-1.2372,-1.1818,0.0,0.0,0.0,0.0,0.0,0.0,0.0,0.0,-1.9685,-1.9721,-1.9023,-1.8371,-1.7954,-1.7563,0.0,0.0,-1.5506,-1.5675,-1.6099,-1.5368,-1.6526,-2.0137,-2.2544,-2.3779,-2.3743,-2.2545,-2.1478,-2.0567,-2.1457,-2.1814,-2.1792,-2.4711,-2.5768,-2.5223,-2.4997,-2.4188,-2.2827,-2.0841,-1.9367,-1.8369,-1.8335,-1.8063,-1.7546,-1.6109,-1.5533,-1.5305,-1.3851,0.0,0.0,0.0,0.0,0.0,0.0,0.0,-1.4155,-1.4446,-1.5549,-1.6798,-1.7292,-1.9005,-2.0764,-2.1349,-2.2017,-2.2655,-2.2922,-2.2433,-2.1888,-2.1779,-2.1983,-2.1903,-2.0889,-2.0258,-1.9701,-1.9088,-1.8987,-1.8987,-1.8987,-1.8987,-1.8987,-1.8987,-1.9242,-1.948,-1.9784,-1.9405,-1.9202,-1.9398,-1.9026,-1.8571,-1.8035,-1.8188,-1.8003,-1.7382,-1.7235,-1.7097,-1.6908,-1.6908,-1.6908,-1.6908,-1.6908,-1.6908,-1.6908,-1.6908,-1.6795,-1.6603,-1.6377,-1.6026,-1.5471,-1.4709,-1.4441,-1.4406,-1.349,-1.3099,-1.3022,-1.2219,-1.1641,-1.1144,0.0,0.0,0.0,0.0,0.0,0.0,0.0,0.0,0.0,-1.9186,-1.8407,-1.7845,-1.7708,-1.6976,-1.6178,0.0,0.0,0.0,-1.5488,-1.5277,-1.6599,-1.9956,-2.2347,-2.3593,-2.3577,-2.129,-2.0063,-1.9997,-1.919,-1.9901,-2.2071,-2.4145,-2.4847,-2.4368,-2.4469,-2.3336,-2.1312,-2.082,-1.9384,-1.7462,-1.8082,-1.7558,-1.633,-1.565,-1.4982,-1.4304,-1.3607,-1.3286,-1.3201,-1.3192,0.0,0.0,0.0,0.0,-1.3048,-1.4292,-1.5176,-1.6247,-1.8573,-1.9997,-2.1114,-2.2451,-2.2417,-2.203,-2.1888,-2.1407,-2.0968,-2.082,-2.0696,-2.0635,-2.0635,-1.9747,-1.8987,-1.8987,-1.8987,-1.8987,-1.8987,-1.8987,-1.8987,-1.8987,-1.929,-1.957,-1.9722,-1.9408,-1.9199,-1.9242,-1.8592,-1.8048,-1.7721,-1.7638,-1.751,-1.7201,-1.7166,-1.7072,-1.6908,-1.6908,-1.6908,-1.6908,-1.6908,-1.683,-1.6726,-1.6653,-1.6514,-1.6359,-1.6158,-1.5517,-1.4533,-1.4038,-1.3508,-1.2981,-1.2477,-1.1962,-1.1478,-1.1394,-1.0946,-1.0378,0.0,0.0,0.0,0.0,0.0,0.0,0.0,0.0,0.0,0.0,-1.8407,-1.7636,-1.6947,-1.6135,-1.535,-1.4535,-1.4463,-1.477,-1.5451,0.0,0.0,-1.924,-2.1568,-2.2785,-2.2684,-2.0982,-2.0063,-1.9993,-1.9199,-1.9529,-2.0947,-2.2753,-2.3951,-2.4513,-2.3458,-2.2141,-2.0616,-1.8956,-1.7337,-1.59,-1.6001,-1.5876,-1.558,-1.4843,-1.4489,-1.4295,-1.3521,-1.3218,-1.3201,-1.3199,-1.3163,0.0,0.0,0.0,-1.2758,-1.2577,-1.3721,-1.5059,-1.5226,-1.7368,-1.9978,-2.1826,-2.1898,-2.1465,-2.1334,-2.1164,-2.0968,0.0,-2.0334,-1.9927,-1.9927,-1.9422,-1.8987,-1.8987,0.0,0.0,0.0,0.0,0.0,0.0,0.0,0.0,0.0,0.0,0.0,0.0,-1.8261,-1.775,-1.7706,-1.7407,-1.7235,-1.7201,-1.7038,-1.6943,-1.6908,-1.6908,-1.6908,-1.6908,-1.6908,-1.6586,-1.593,-1.5661,-1.5489,-1.5374,-1.5161,-1.4407,-1.3292,-1.2516,-1.2409,-1.2604,-1.1162,-1.097,-1.1436,-1.0964,-1.0615,-1.0342,0.0,0.0,0.0,0.0,0.0,0.0,0.0,0.0,0.0,0.0,0.0,-1.7599,-1.6784,-1.599,-1.518,-1.4372,-1.43,-1.4644,-1.5451,-1.733,-1.8624,-1.9077,-2.0554,-2.1115,-2.0607,-1.8975,-1.8321,-1.8699,-1.7913,-1.8827,-2.1319,-2.1563,-2.2363,-2.3525,-2.1872,-2.0646,-1.971,-1.7927,-1.6559,-1.5561,-1.5155,-1.5711,-1.6524,-1.413,-1.4249,-1.5431,-1.3421,-1.2908,-1.3201,-1.3192,-1.3164,-1.3084,-1.3002,0.0,0.0,0.0,-1.2991,-1.4165,-1.6156,-1.8212,-2.0198,-2.1812,-2.1803,-2.1296,-2.0845,-2.0472,-2.0156,-1.9939,-1.9668,-1.9539,0.0,0.0,0.0,0.0,0.0,0.0,0.0,0.0,0.0,0.0,0.0,0.0,0.0,0.0,0.0,0.0,-1.8,-1.7604,-1.7432,-1.727,-1.7132,-1.7038,-1.6943,-1.6908,-1.6908,-1.6908,-1.6691,-1.6298,-1.5687,-1.5238,-1.4909,-1.4359,-1.4187,-1.4299,-1.4039,-1.3282,-1.2144,-1.1669,-1.1323,-1.1048,-1.0341,-1.0273,-1.0583,-1.0339,-1.0268,-1.0275,0.0,0.0,0.0,0.0,0.0,0.0,0.0,0.0,0.0,0.0,0.0,-1.7364,-1.6766,0.0,0.0,0.0,-1.4119,-1.4155,-1.4571,-1.6081,-1.7247,-1.7855,-1.9033,-1.9322,-1.8483,-1.7243,-1.6954,-1.7669,-1.689,-1.8322,-2.1808,-2.1103,-2.1611,-2.3024,-2.104,-1.9798,-1.9097,-1.7411,-1.6265,-1.5561,-1.5206,-1.6052,-1.7287,-1.5095,-1.5619,-1.7151,-1.4173,-1.3513,0.0,0.0,-1.2989,-1.3084,-1.3039,-1.2829,0.0,0.0,0.0,-1.3029,-1.648,-1.8101,-1.92,-2.0868,-2.1,-2.0644,-2.0269,0.0,-1.9512,0.0,-1.9208,0.0,0.0,0.0,0.0,0.0,0.0,0.0,0.0,0.0,0.0,0.0,0.0,0.0,0.0,0.0,0.0,0.0,-1.7691,-1.7467,-1.7201,-1.7132,-1.7072,-1.6908,-1.6908,-1.6862,-1.6762,-1.648,-1.6016,-1.5364,-1.4504,-1.406,-1.4018,-1.3225,-1.2934,-1.3051,-1.2852,-1.2135,-1.108,-1.087,-1.0416,-0.9805,-0.9805,-0.9847,-0.9907,-0.9907,-1.0027,-1.0143,0.0,0.0,0.0,0.0,0.0,0.0,0.0,0.0,0.0,0.0,0.0,-1.6747,-1.6693,-1.599,-1.518,-1.4372,-1.3594,-1.2857,-1.2133,-1.3594,-1.4517,-1.4553,-1.6776,0.0,-1.6743,-1.6632,-1.6936,-1.761,-1.6866,-1.8341,-2.1896,-2.1832,-2.2578,-2.3863,-2.1773,-2.0234,-1.9097,-1.7411,-1.6265,-1.5663,-1.6316,-1.6637,-1.6976,-1.8863,-1.9689,-1.9427,-1.6425,0.0,0.0,0.0,0.0,0.0,0.0,0.0,-1.2581,0.0,0.0,0.0,-1.4058,-1.489,-1.5605,-1.8147,-1.887,-1.905,-1.9547,0.0,-1.9512,0.0,0.0,0.0,0.0,0.0,0.0,0.0,0.0,0.0,0.0,0.0,0.0,0.0,0.0,0.0,0.0,0.0,0.0,0.0,-1.7205,-1.7235,-1.7201,-1.7003,-1.6908,-1.6908,-1.6908,-1.6725,-1.6315,-1.5321,-1.4639,-1.4289,-1.3894,-1.37,-1.3592,-1.2485,-1.1829,-1.161,-1.16,-1.0986,-0.9986,-0.9974,-0.979,-0.9534,-0.9534,-0.969,-0.9907,-0.9907,-0.9913,-0.9961,0.0,0.0,0.0,0.0,0.0,0.0,0.0,0.0,0.0,0.0,0.0,0.0,0.0,-1.599,-1.518,-1.4372,-1.4046,-1.3521,-1.2713,-1.4173,-1.5071,-1.5071,-1.6878,-1.7268,-1.593,-1.6366,-1.6466,-1.6192,-1.6438,-1.787,-2.0374,-2.0898,-2.1937,-2.3292,-2.2008,-2.0678,-1.9325,-1.7207,-1.5832,-1.5166,-1.6079,-1.7394,-1.8821,-1.8899,-2.0265,0.0,0.0,0.0,0.0,0.0,0.0,0.0,0.0,0.0,0.0,-1.1265,-1.1238,-1.187,-1.4025,-1.4613,-1.5061,-1.687,-1.7984,-1.8627,-1.849,-1.9107,-1.9656,-1.9368,0.0,0.0,0.0,0.0,0.0,0.0,0.0,0.0,0.0,0.0,0.0,0.0,0.0,0.0,0.0,0.0,0.0,0.0,0.0,-1.6751,-1.6625,-1.6557,-1.6404,-1.6138,-1.5721,-1.5217,-1.4638,-1.3765,-1.3297,-1.3176,-1.2343,-1.1966,-1.1893,-1.1191,-1.074,-1.0522,-1.0464,-1.0132,-0.9654,-0.9654,-0.96,-0.9534,-0.9703,-0.9823,-0.9907,-0.9907,-0.9907,-0.9895,0.0,0.0,0.0,0.0,0.0,0.0,0.0,0.0,0.0,-1.7863,0.0,0.0,0.0,0.0,-1.6056,-1.4445,-1.43,-1.3847,-1.2767,-1.3956,-1.4692,-1.4692,-1.6244,-1.6472,-1.5137,-1.5839,-1.5966,-1.5404,-1.594,-1.7254,-1.9318,-2.0104,-2.1154,-2.2365,-2.1508,-2.0853,-2.0266,-1.8177,-1.6771,-1.6149,-1.7582,-1.8808,-1.9823,0.0,0.0,0.0,0.0,0.0,0.0,0.0,0.0,0.0,0.0,0.0,0.0,-1.0665,-1.0805,-1.1272,-1.3156,-1.3814,-1.4374,-1.5945,-1.6821,-1.7504,-1.8283,0.0,-1.9108,0.0,0.0,0.0,0.0,0.0,0.0,0.0,0.0,0.0,0.0,0.0,0.0,0.0,0.0,0.0,0.0,0.0,0.0,0.0,0.0,0.0,-1.6321,-1.6184,-1.5875,-1.5375,-1.4577,-1.3917,-1.3328,-1.2582,-1.2167,-1.2042,-1.1245,-1.0972,-1.1159,-1.0488,-1.0238,-1.032,-0.9894,-0.9612,-0.9516,-0.9516,-0.9516,-0.9534,-0.9709,-0.9829,-0.9895,-0.9805,-0.9829,-0.9865,0.0,0.0,0.0,0.0,0.0,0.0,0.0,0.0,-1.7019,-1.7827,0.0,0.0,0.0,0.0,0.0,-1.4644,-1.439,-1.3702,-1.2042,-1.2694,-1.3123,-1.3111,-1.4644,-1.5119,-1.4322,-1.5101,-1.5471,-1.5368,-1.5386,-1.6556,-1.8816,-1.9548,-2.0299,-2.1038,-2.0276,-2.0629,-2.1736,0.0,-1.9055,-1.8608,0.0,-2.0812,-1.9809,0.0,0.0,0.0,-2.1695,-2.136,0.0,-1.955,0.0,0.0,0.0,0.0,0.0,0.0,-0.9668,-0.9423,0.0,0.0,0.0,-1.5184,-1.5179,0.0,-1.8852,0.0,0.0,0.0,0.0,0.0,0.0,0.0,0.0,0.0,0.0,0.0,0.0,0.0,0.0,0.0,0.0,0.0,0.0,0.0,0.0,0.0,-1.6361,-1.626,-1.626,-1.589,-1.5362,-1.4672,-1.3639,-1.2936,-1.2535,-1.186,-1.1326,-1.0982,-1.0727,-1.0902,-1.1428,-1.0453,-1.0351,-1.0923,-0.9945,-0.9516,-0.9516,-0.9516,-0.9516,-0.9516,-0.9516,-0.9672,-0.9865,-0.9612,-0.9672,-0.9859,0.0,0.0,0.0,0.0,0.0,-1.857,-1.799,-1.7708,-1.7863,0.0,0.0,0.0,-1.8787,-1.8968,-1.828,-1.6215,-1.6577,-1.5726,-1.2948,-1.3521,-1.3702,-1.3129,-1.4644,-1.5126,-1.4323,-1.509,-1.5221,-1.4603,-1.5137,-1.5706,-1.6309,-1.7099,-1.7555,-1.7743,-1.8145,-1.8217,-1.7959,-1.6977,0.0,-1.8701,-1.9549,-2.0738,0.0,0.0,0.0,0.0,0.0,-2.5792,-2.3807,0.0,-2.0507,-1.6697,0.0,0.0,-0.8239,0.0,-0.9227,-0.9916,-1.0827,0.0,0.0,0.0,0.0,0.0,0.0,0.0,0.0,0.0,0.0,0.0,0.0,0.0,0.0,0.0,0.0,0.0,0.0,0.0,0.0,0.0,0.0,0.0,0.0,0.0,0.0,0.0,-1.6061,-1.5863,-1.5863,-1.5212,-1.4298,-1.315,-1.3277,-1.2656,-1.1182,-1.1389,-1.122,-1.0713,-1.0633,-1.0688,-1.0839,-1.0396,-1.0231,-1.0256,-0.9894,-0.9644,-0.9516,-0.9516,-0.9516,-0.9516,-0.9516,-0.9558,-0.9618,-0.954,-0.9558,-0.9612,0.0,0.0,-1.9313,-1.9974,-1.9811,-1.9684,-1.9909,-1.9637,-1.9701,0.0,0.0,0.0,-2.0599,-2.0608,-1.9956,-1.8334,-1.8008,-1.6958,-1.4747,-1.4415,-1.4083,-1.3612,-1.4499,-1.4782,-1.4318,-1.477,-1.4775,-1.4299,-1.4731,-1.4914,-1.4901,-1.5677,-1.5851,-1.5507,-1.6013,-1.5984,-1.5465,-1.4403,0.0,0.0,-2.0345,0.0,0.0,-2.5798,-2.6792,0.0,0.0,0.0,-2.4637,-2.5225,-2.1478,0.0,0.0,0.0,0.0,0.0,-0.9034,-1.0173,-1.1002,-1.1495,-1.1925,-1.2493,0.0,0.0,-1.4957,-1.4857,0.0,0.0,0.0,0.0,0.0,0.0,0.0,0.0,0.0,0.0,0.0,0.0,0.0,0.0,0.0,0.0,0.0,-1.5766,-1.5937,-1.6514,-1.6019,-1.5542,-1.5221,-1.4502,-1.3731,-1.2948,-1.3009,-1.2397,-1.0996,-1.1334,-1.1209,-1.0593,-1.0593,-1.0561,-1.0466,-1.0269,-1.0085,-0.9894,-0.9734,-0.9612,-0.9516,-0.9516,-0.9516,-0.9516,-0.9516,-0.9516,-0.9516,-0.9516,-0.9516,-0.9516,0.0,0.0,-1.9956,-2.1387,-2.1115,-2.1188,-2.2689,-2.2261,-2.207,0.0,-2.3065,-2.3101,-2.3216,-2.2974,-2.221,-2.0699,-1.9005,-1.7654,-1.6766,-1.5193,-1.43,-1.43,-1.43,-1.43,-1.43,-1.43,-1.43,-1.43,-1.4292,-1.4304,-1.4316,-1.4875,-1.465,-1.38,-1.3806,-1.377,-1.3615,-1.2607,0.0,-1.8024,-2.1738,-2.2561,0.0,0.0,-2.5747,-2.4162,-2.5955,-2.5655,-2.4662,-2.5992,-2.2499,0.0,0.0,0.0,0.0,0.0,-0.9195,-1.0577,-1.1447,-1.185,-1.2269,-1.3319,0.0,0.0,-1.6109,-1.5425,-1.4851,0.0,0.0,0.0,0.0,0.0,0.0,0.0,0.0,0.0,0.0,0.0,0.0,0.0,0.0,0.0,-1.6448,-1.637,-1.6486,-1.6872,-1.6147,-1.5359,-1.4616,-1.3967,-1.3571,-1.3511,-1.2917,-1.2243,-1.1514,-1.1483,-1.1209,-1.0593,-1.0593,-1.0466,-1.0339,-1.0079,-0.9926,-0.9804,-0.958,-0.9516,-0.9516,-0.9516,-0.9516,-0.9516,-0.9516,-0.9516,-0.9516,-0.9516,-0.9516,-0.9516,-2.0898,-2.154,-2.2101,-2.2409,-2.2835,-2.3244,-2.3627,-2.35,-2.3663,-2.4551,-2.4652,-2.5121,-2.6342,-2.4748,-2.3216,-2.23,-2.0173,-1.8244,-1.6802,-1.5193,-1.43,-1.43,-1.43,-1.43,-1.43,-1.43,-1.43,-1.43,-1.4293,-1.4299,-1.428,-1.378,-1.2752,-1.1303,-1.1368,-1.1018,-1.0569,-1.2853,0.0,-1.7866,-1.8726,0.0,-2.4453,-2.6537,-2.7819,-2.8616,-2.9368,-2.8906,-2.7602,-2.5529,-2.4024,-2.2029,0.0,0.0,0.0,-0.9474,0.0,0.0,0.0,0.0,0.0,0.0,0.0,0.0,-1.2243,-1.1986,-1.2224,0.0,0.0,0.0,0.0,0.0,0.0,0.0,0.0,0.0,0.0,0.0,0.0,0.0,0.0,0.0,-1.63,-1.6312,-1.6486,-1.6872,-1.6147,-1.5487,-1.501,-1.456,-1.407,-1.3511,-1.3381,-1.2704,-1.1514,-1.1483,-1.1209,-1.0593,-1.0428,-1.0434,-1.053,-1.0053,-0.9894,-0.9958,-0.9644,-0.9516,-0.9516,-0.9516,-0.9516,-0.9516,-0.9516,-0.9516,-0.9516,-0.9516,-0.9516,-0.9516,-2.1423,-2.2437,-2.3379,-2.3777,-2.4483,-2.5291,-2.617,-2.5923,-2.5953,-2.6792,-2.6878,-2.6855,-2.6855,-2.5382,-2.4085,-2.3324,-2.0699,-1.8769,-1.7954,-1.6008,-1.4716,-1.4318,-1.43,-1.43,-1.43,-1.43,-1.43,-1.43,-1.3902,-1.3696,-1.3684,-1.2877,-1.2907,-1.3534,-1.1151,-1.0994,-1.2442,-1.1647,-1.2672,-1.5214,-1.9232,0.0,-2.5773,-2.7393,-2.8491,-2.9207,-2.9275,-2.8762,-2.7851,-2.6535,-2.4632,0.0,0.0,-1.8042,-1.5752,0.0,-1.2665,-1.3557,0.0,0.0,0.0,-1.2385,0.0,0.0,0.0,0.0,0.0,0.0,0.0,0.0,0.0,0.0,0.0,0.0,0.0,0.0,0.0,0.0,0.0,0.0,0.0,0.0,-1.6597,-1.6615,-1.6615,-1.6615,-1.6239,-1.5735,-1.5129,-1.4594,-1.4044,-1.3519,-1.3169,-1.252,-1.1514,-1.1483,-1.1209,-1.0593,-1.0498,-1.0403,-1.0301,-1.0021,-0.983,-0.9734,-0.958,-0.9516,-0.9516,-0.9516,-0.9516,-0.9516,-0.9516,-0.9516,-0.9516,-0.9516,-0.9516,-0.9516,-2.1876,-2.3198,-2.4411,-2.49,-2.5914,-2.7067,-2.827,-2.8022,-2.7949,-2.8597,-2.8935,-2.8572,-2.7156,-2.6388,-2.5651,-2.4835,-2.2014,-2.0036,-1.9384,-1.7382,-1.5852,-1.5024,-1.4553,-1.4517,-1.497,-1.4535,-1.43,-1.43,-1.3485,-1.3093,-1.308,-1.2138,-1.2996,-1.5195,-1.1892,-1.1978,-1.4372,0.0,0.0,-1.4542,0.0,-2.3901,-2.461,-2.6832,-2.7676,-2.7712,-2.8013,-2.7839,-2.7538,-2.764,-2.5336,-2.2538,-2.338,-2.1069,0.0,0.0,0.0,0.0,0.0,0.0,0.0,0.0,0.0,-1.197,0.0,0.0,0.0,0.0,0.0,0.0,0.0,0.0,0.0,0.0,0.0,0.0,0.0,0.0,0.0,0.0,0.0,0.0,0.0,-1.6208,-1.6156,-1.6279,-1.5881,-1.5496,-1.523,-1.4519,-1.3918,-1.3519,-1.2734,-1.2058,-1.1514,-1.1389,-1.1083,-1.0593,-1.0561,-1.0371,-1.0047,-0.9989,-0.9798,-0.9548,-0.9516,-0.9516,-0.9516,-0.9516,-0.9516,-0.9516,-0.9516,-0.9516,-0.9516,-0.9548,-0.9548,-0.9516,-2.327,-2.4827,-2.5733,-2.5117,-2.6844,-2.8147,-2.7634,-2.8087,-2.8522,-2.8594,-2.9955,-3.0534,-2.9584,-2.9514,-2.918,-2.8317,0.0,0.0,-2.0442,-1.934,-1.8388,-1.7527,-1.5447,-1.5302,-1.7447,-1.5393,-1.43,-1.43,-1.3485,-1.3099,-1.3067,-1.161,-1.0744,-1.0494,-1.2753,-1.282,0.0,0.0,-1.7972,0.0,-2.2463,-2.0807,0.0,-2.2672,-2.4339,-2.4668,-2.7194,-2.8322,-2.8474,0.0,-2.7162,-2.6269,0.0,-2.2329,-2.3036,-1.5776,0.0,0.0,0.0,0.0,0.0,0.0,-1.3583,0.0,0.0,0.0,0.0,-0.8795,0.0,0.0,0.0,0.0,0.0,0.0,0.0,0.0,0.0,0.0,0.0,0.0,0.0,0.0,0.0,-1.3728,-1.4058,-1.6123,-1.4304,-1.3856,-1.5533,-1.466,-1.3918,-1.3519,-1.2282,-1.1577,-1.1483,-1.0965,-1.0688,-1.0593,-1.0434,-1.0308,-1.0276,-0.9958,-0.9804,-0.9772,-0.958,-0.9516,-0.9516,-0.9516,-0.9516,-0.9516,-0.9516,-0.9516,-0.9516,-0.9708,-0.9644,-0.9516,-2.2944,-2.4429,-2.5407,-2.5063,-2.6222,-2.7242,-2.7369,-2.8485,-2.93,-2.93,-2.9927,-3.0244,-2.9878,0.0,0.0,0.0,0.0,-2.4793,0.0,0.0,-1.957,-1.7291,-1.5791,-1.5476,-1.6497,-1.506,-1.4064,-1.3594,-1.2838,-1.2214,-1.1737,-1.0181,-1.0994,-1.3721,-1.3676,-1.5145,-1.762,0.0,-1.7139,0.0,0.0,0.0,0.0,-2.4737,-2.7991,-2.8117,-2.9124,-2.9315,-2.9036,0.0,-2.7202,0.0,0.0,0.0,0.0,0.0,0.0,0.0,0.0,0.0,0.0,0.0,0.0,0.0,-1.1182,0.0,-0.8919,0.0,0.0,0.0,0.0,0.0,0.0,0.0,0.0,0.0,0.0,0.0,0.0,0.0,0.0,0.0,0.0,0.0,0.0,0.0,-1.4139,-1.3809,-1.5597,-1.5118,-1.4282,-1.3199,-1.2293,-1.1443,-1.0643,-1.0491,-1.0434,-1.0434,-1.0339,-1.0238,-1.011,-0.9989,-0.9798,-0.9612,-0.9548,-0.958,-0.9676,-0.9548,-0.958,-0.9676,-0.9676,-0.9612,-0.9548,-0.9798,-0.9798,-0.9676,-2.221,-2.3614,-2.4664,-2.4664,-2.5516,-2.6475,-2.7278,-2.8395,-2.9223,-2.9466,0.0,0.0,-3.0207,-2.9629,0.0,0.0,-2.9125,-2.7357,0.0,0.0,-2.1516,-1.978,-1.6809,0.0,-1.748,-1.5393,-1.3908,-1.3099,-1.237,-1.1708,-1.1089,-0.9527,-1.1163,-1.5388,-1.501,-1.7513,-2.192,0.0,-1.915,-1.8996,-2.03,-2.0318,-2.0273,-2.7091,-3.0224,-3.0971,-3.0725,-3.0019,-2.9178,-2.9071,-2.6945,0.0,-2.6808,0.0,0.0,0.0,0.0,0.0,-1.6136,0.0,0.0,0.0,0.0,0.0,0.0,0.0,0.0,0.0,0.0,0.0,0.0,0.0,0.0,0.0,0.0,0.0,0.0,0.0,0.0,0.0,0.0,0.0,0.0,0.0,0.0,0.0,0.0,-1.3157,-1.5404,-1.5171,-1.4329,-1.2908,-1.2273,-1.143,-1.0243,-1.0406,-1.0503,-1.0536,-1.049,-1.0386,-1.0187,-1.0117,-0.9926,-0.9644,-0.9644,-0.9708,-0.9836,-0.9708,-0.974,-0.9862,-0.9926,-0.9804,-0.967,-0.9958,-0.9989,-0.9862,-2.1387,-2.2781,-2.3842,-2.3842,-2.5153,-2.6475,-2.7278,-2.7441,-2.7773,0.0,0.0,0.0,0.0,0.0,0.0,0.0,0.0,-3.2216,-2.9007,0.0,-2.5016,-2.725,-1.898,-1.6925,0.0,-1.7143,-1.3914,-1.3103,-1.2357,-1.1986,-1.1931,-1.0312,-1.0494,-1.2344,-1.6889,-1.9466,-2.0626,-2.4339,-2.7671,-3.0333,-2.8853,-3.0084,-3.2325,0.0,-2.8286,-3.0998,-3.0985,0.0,0.0,-2.8091,-2.6835,0.0,0.0,0.0,0.0,0.0,0.0,0.0,0.0,0.0,0.0,-1.4088,0.0,0.0,0.0,0.0,-0.8335,0.0,0.0,0.0,0.0,0.0,0.0,0.0,0.0,0.0,0.0,0.0,0.0,0.0,0.0,0.0,0.0,0.0,0.0,0.0,0.0,0.0,-1.4909,-1.451,-1.3697,-1.274,-1.2046,-1.1408,-1.0773,-1.0985,-1.1088,-1.1082,-1.1016,-1.0877,-1.0672,-1.0399,-1.0174,-0.9989,-0.9989,-0.9989,-0.9983,-0.9989,-0.9989,-1.0015,-1.0206,-1.0149,-1.0015,-1.0206,-1.0149,-1.0015,-2.1617,-2.2178,-2.2645,-2.3009,-2.3513,-2.4512,-2.6388,-2.7586,0.0,0.0,0.0,0.0,0.0,-3.3565,-3.4577,0.0,0.0,-3.4289,-3.1567,-2.8317,0.0,0.0,0.0,-1.839,0.0,0.0,-1.4445,-1.3104,-1.2849,-1.2484,-1.1981,-1.0938,-1.128,-1.2886,-1.6676,-2.0247,0.0,0.0,0.0,0.0,0.0,-3.0211,-3.2488,0.0,0.0,-3.2596,-3.2596,-3.1939,0.0,-2.9708,-2.7957,-2.6189,-2.5717,-2.5084,-2.4496,-2.4396,-2.4547,-2.4381,0.0,0.0,-2.3584,-1.7553,0.0,0.0,0.0,0.0,0.0,0.0,0.0,0.0,0.0,0.0,0.0,0.0,0.0,0.0,0.0,0.0,0.0,0.0,0.0,0.0,0.0,0.0,0.0,0.0,0.0,0.0,0.0,-1.4803,-1.4333,-1.3188,-1.2603,-1.1743,-1.0614,-1.0457,-1.0333,-1.0235,-1.0432,-1.0549,-1.0566,-1.0562,-1.0587,-1.06,-1.06,-1.0667,-1.0768,-1.0634,-1.0525,-1.0451,-1.0549,-1.0406,-1.0212,-1.0434,-1.0371,-1.0264,-2.1978,-2.2036,-2.2115,-2.2368,-2.2725,-2.3682,0.0,0.0,0.0,0.0,-3.0732,0.0,-3.2775,0.0,-3.4797,0.0,-3.5958,-3.5257,-3.2771,-3.0363,0.0,-3.018,-2.43,0.0,0.0,0.0,0.0,0.0,-1.4108,-1.3145,-1.237,-1.1629,-1.1949,-1.3225,-1.6205,-2.0328,-2.5135,-2.7327,-2.9536,0.0,0.0,-3.2093,0.0,0.0,-3.3538,-3.2614,0.0,-3.281,-3.1873,-3.0838,-2.9035,-2.721,-2.7129,-2.6116,-2.5155,-2.6116,-2.6299,-2.5963,-2.5052,-2.6031,0.0,-2.0373,-1.8951,0.0,-1.1512,0.0,-1.0156,0.0,0.0,0.0,0.0,0.0,0.0,0.0,0.0,0.0,0.0,0.0,0.0,0.0,0.0,0.0,0.0,0.0,0.0,0.0,0.0,0.0,0.0,0.0,-1.4323,-1.3347,-1.298,-1.226,-1.1147,-1.0985,-1.092,-1.0894,-1.1077,-1.1254,-1.1402,-1.1356,-1.1467,-1.1667,-1.1667,-1.183,-1.2098,-1.1962,-1.1674,-1.1355,-1.1253,-1.0934,-1.0541,-1.0595,-1.0596,-1.0633,-2.2424,-2.2316,-2.2231,-2.2054,-2.2839,0.0,0.0,0.0,-2.8985,0.0,-3.0825,-3.1986,-3.3665,-3.3935,-3.4614,-3.6211,-3.6395,-3.5422,-3.306,-3.2025,0.0,0.0,-2.8867,-2.813,-3.1376,0.0,0.0,0.0,0.0,-1.3932,-1.3194,-1.2466,-1.2492,-1.3256,-1.5642,0.0,-2.5208,-2.8389,-3.2574,-3.6995,-3.6236,-3.584,-3.575,-3.5822,-3.39,-3.131,-3.2904,-3.2745,-3.1722,-3.1323,-3.0013,-2.8453,-2.7997,-2.7858,-2.7992,-2.8661,-2.9439,-2.9692,-2.7871,-2.7435,-2.6521,-2.2557,-2.0702,0.0,0.0,0.0,-1.3699,0.0,0.0,0.0,0.0,0.0,0.0,0.0,0.0,0.0,0.0,0.0,0.0,0.0,0.0,0.0,0.0,0.0,0.0,0.0,0.0,0.0,0.0,0.0,-1.364,-1.3219,-1.3164,-1.288,-1.2311,-1.2479,-1.2654,-1.2822,-1.2741,-1.278,-1.2964,-1.2656,-1.2734,-1.3108,-1.3132,-1.3355,-1.3725,-1.3741,-1.33,-1.2665,-1.2346,-1.1731,-1.1041,-1.072,-1.0801,-1.1096,-2.2737,-2.2444,-2.2617,0.0,-2.3776,-2.4483,0.0,0.0,0.0,0.0,-3.173,-3.29,-3.4509,-3.5807,-3.6721,-3.7144,-3.7734,0.0,0.0,0.0,0.0,-3.7019,-3.1457,-2.9545,-3.2232,-2.527,0.0,-2.0969,0.0,-1.4505,-1.4868,-1.4077,-1.3799,-1.4064,-1.5889,-1.9784,-2.5172,-2.7785,-3.2379,-3.7883,-3.7667,-3.6508,0.0,0.0,-3.5059,-3.2922,-3.3936,-3.3728,-3.2784,-3.1598,-3.0896,-3.0277,-2.9072,-2.8687,-2.8822,-2.9546,-2.9863,-2.9957,-3.0009,-3.0001,-2.9268,-2.6272,-2.4228,-2.2019,0.0,0.0,0.0,0.0,0.0,0.0,0.0,0.0,0.0,0.0,0.0,0.0,0.0,0.0,0.0,0.0,0.0,0.0,0.0,0.0,0.0,0.0,0.0,0.0,0.0,0.0,0.0,-1.3383,-1.2925,-1.2624,-1.246,-1.2247,-1.2121,-1.2089,-1.2414,-1.2625,-1.2772,-1.2846,-1.3028,-1.3342,-1.3644,-1.3844,-1.3947,-1.4236,-1.4153,-1.3779,-1.3685,-1.3059,-1.2076,-1.1219,-1.1062,-1.1369,-2.3116,-2.3674,0.0,-2.5267,0.0,0.0,-2.7525,-2.8257,0.0,-3.1082,-3.2049,0.0,-3.4344,-3.5642,-3.6688,-3.7437,-3.7915,0.0,-3.6633,0.0,0.0,-3.6028,-3.3523,-3.279,-3.4183,-2.8734,0.0,-2.3223,0.0,-1.629,-1.4963,-1.4517,-1.392,-1.3346,-1.5678,-1.9023,-2.3306,-2.8871,-3.3306,-3.6707,-3.7792,-3.7393,0.0,-3.7194,-3.6469,-3.5023,-3.5494,-3.4914,-3.3756,-3.2587,-3.1771,-3.0988,-2.9842,-2.9008,-2.8669,-2.9713,-2.9762,-2.9726,-3.069,-3.0952,-3.0573,-2.9009,-2.7649,-2.5834,-2.2566,-2.1418,-2.0872,0.0,-1.9633,-1.923,0.0,0.0,0.0,0.0,0.0,0.0,0.0,0.0,0.0,0.0,0.0,0.0,0.0,0.0,0.0,0.0,0.0,0.0,0.0,0.0,0.0,-1.3738,-1.2927,-1.2697,-1.3252,-1.2522,-1.2375,-1.2765,-1.3039,-1.3269,-1.3501,-1.3602,-1.392,-1.4427,-1.4647,-1.4926,-1.529,-1.552,-1.5345,-1.4866,-1.4391,-1.3734,-1.3027,-1.2554,-1.2086,-1.1663,-2.3755,-2.5334,0.0,0.0,0.0,0.0,0.0,-2.9673,0.0,-3.1667,0.0,-3.3403,-3.4192,-3.4912,-3.5917,-3.7364,0.0,-3.6538,-3.4284,-3.6152,-3.6064,-3.3206,-3.5147,-3.6303,-3.6303,-3.2978,-2.9331,0.0,0.0,-1.8261,-1.4469,-1.4354,-1.3558,-1.2332,-1.5255,-1.8298,0.0,-3.0459,-3.4498,-3.5258,-3.7375,-3.8209,-3.8209,-3.8209,-3.7774,-3.7158,-3.7158,-3.6109,-3.4641,-3.3842,-3.265,-3.1356,-3.0562,-2.9299,-2.8364,-2.9673,-2.961,-2.9377,-3.0583,-3.0915,-3.0915,-3.0712,-3.0363,-2.9258,-2.6157,-2.4789,-2.4104,-2.3978,-2.1314,-2.0613,0.0,0.0,0.0,0.0,0.0,0.0,0.0,0.0,0.0,0.0,0.0,0.0,0.0,0.0,0.0,0.0,0.0,0.0,0.0,0.0,0.0,-1.4225,-1.3231,-1.3077,-1.4006,0.0,-1.3195,-1.3956,-1.4198,-1.4458,-1.4734,-1.4734,-1.5144,-1.5894,-1.595,-1.6374,-1.7092,-1.7148,-1.6751,-1.6009,-1.4963,-1.4307,-1.4004,-1.4183,-1.3424,-1.2315,-2.5278,-2.601,0.0,0.0,0.0,-3.0407,-3.1236,-3.237,-3.3446,-3.4257,-3.5105,-3.5954,-3.6758,-3.6978,-3.718,-3.7474,-3.7492,0.0,0.0,0.0,0.0,-3.5679,-3.6064,-3.6303,-3.6303,-3.2423,-2.9062,0.0,0.0,-1.8029,-1.5355,-1.4645,-1.4155,-1.3938,-1.5169,-1.9603,-2.6391,-3.0079,0.0,-3.7611,-3.8028,-3.8209,-3.8209,-3.8209,-3.8118,-3.7991,-3.7991,-3.6961,-3.5431,-3.4288,-3.3561,-3.2897,-3.1786,-3.0626,-2.9869,-3.0714,-3.0405,-2.9905,-3.0697,-3.0831,-3.0712,-3.0568,-3.0468,-3.014,-2.9165,-2.879,-2.8429,-2.7597,-2.6903,-2.5665,-2.3185,0.0,0.0,0.0,0.0,0.0,0.0,0.0,0.0,0.0,0.0,0.0,0.0,0.0,0.0,0.0,0.0,0.0,0.0,0.0,0.0,0.0,-1.4241,0.0,0.0,0.0,-1.4574,-1.3681,-1.5191,-1.594,-1.5968,-1.5968,-1.6292,-1.686,-1.7226,-1.7631,-1.8161,-1.8481,-1.824,-1.7541,-1.6674,-1.5965,-1.5356,-1.4746,-1.4443,-1.4351,-2.5639,0.0,0.0,0.0,0.0,0.0,0.0,-3.5349,-3.6021,-3.5123,-3.5375,-3.5771,-3.6156,-3.6597,-3.7052,-3.7456,-3.7492,-3.7345,-3.696,-3.6923,-3.6523,-3.5661,-3.5642,0.0,-3.5018,-3.306,-2.9837,-2.5269,0.0,-1.9415,-1.4976,-1.455,-1.4132,-1.386,-1.6758,-2.0862,0.0,0.0,0.0,-3.6497,-3.7718,-3.8209,-3.8209,-3.8209,-3.8209,-3.8209,-3.8209,-3.7685,-3.6803,-3.516,-3.4245,-3.3528,-3.2138,-3.1086,-3.0474,-3.1029,-3.0627,-3.0147,-3.079,-3.0892,-3.0773,-3.0651,-3.0568,-3.0447,-3.0199,-2.9984,-2.9595,-2.885,-2.8496,-2.6933,-2.2418,-1.8346,0.0,0.0,0.0,0.0,0.0,0.0,0.0,0.0,0.0,0.0,0.0,0.0,0.0,0.0,0.0,0.0,0.0,0.0,0.0,0.0,0.0,0.0,0.0,0.0,0.0,-1.5423,-1.6732,-1.7387,-1.7496,-1.7737,-1.8104,-1.8553,-1.877,-1.9077,-1.9479,-1.9445,-1.9056,-1.8465,-1.8099,-1.7726,-1.7375,-1.6757,-1.6582,-1.6483,-2.6518,-2.7988,0.0,0.0,-3.2981,-3.4891,-3.576,-3.7488,-3.801,-3.605,-3.5793,-3.5793,-3.5793,-3.6395,-3.7,-3.7456,-3.7492,-3.7437,-3.7254,-3.7235,-3.6652,-3.5334,-3.5096,-3.4711,-3.4082,-3.3899,-3.095,0.0,0.0,0.0,-1.5402,-1.4709,-1.4417,-1.4641,0.0,0.0,0.0,0.0,-3.3931,-3.5633,-3.7462,-3.8209,-3.8209,-3.8209,-3.8209,-3.8209,-3.8209,-3.8209,-3.7923,-3.6175,-3.4984,-3.4014,-3.2634,-3.1565,-3.0884,-3.1219,-3.0825,-3.0425,-3.0884,-3.0955,-3.0892,-3.0733,-3.063,-3.0547,-3.0506,-3.0199,-2.9832,-2.9348,-2.8709,-2.6872,-2.2336,-1.9718,0.0,0.0,0.0,0.0,0.0,0.0,0.0,0.0,0.0,0.0,0.0,0.0,0.0,0.0,0.0,0.0,0.0,0.0,0.0,0.0,0.0,-1.3948,-1.5273,0.0,-1.6153,-1.7277,-1.8264,-1.8877,-1.9149,-1.9395,-1.9818,-2.0323,-2.0178,-2.0427,-2.0905,-2.0546,-1.9987,-1.937,-1.937,-1.9209,-1.8887,-1.8468,-1.8322,-1.8077,0.0,0.0,0.0,0.0,0.0,-3.5714,-3.6194,-3.7646,-3.8615,-3.8395,-3.8358,-3.8358,-3.8358,-3.8432,-3.8212,-3.7566,-3.7492,-3.7199,-3.645,-3.6413,-3.634,-3.6193,-3.5426,-3.4954,-3.4894,-3.416,-3.2082,0.0,0.0,-2.2255,-1.8695,-1.5694,-1.5851,-1.8656,0.0,0.0,0.0,-3.1029,-3.3833,-3.7982,-3.8152,-3.8209,-3.8209,-3.8209,-3.8209,-3.8209,-3.8209,-3.8209,-3.8047,-3.7143,-3.6062,-3.4935,-3.4049,-3.2774,-3.1609,-3.1641,-3.1395,-3.1086,-3.1018,-3.0995,-3.0935,-3.0753,-3.0692,-3.0651,-3.0526,-3.0485,-3.03,-2.9832,-2.8873,-2.6746,-2.2316,-2.4283,-2.4462,0.0,0.0,0.0,0.0,0.0,0.0,0.0,0.0,0.0,0.0,0.0,0.0,0.0,0.0,0.0,0.0,0.0,0.0,-1.5354,0.0,-1.4594,-1.3973,-1.7034,-1.8309,-1.775,-1.9344,-2.0372,-2.0852,-2.0419,-2.075,-2.1692,-2.1128,-2.1482,-2.2396,-2.2366,-2.1618,-2.0542,-2.0542,-1.9829,-1.878,-1.8364,-1.8353,-1.8475,0.0,0.0,0.0,0.0,0.0,0.0,0.0,-3.8285,-3.8707,-3.8707,-3.8707,-3.8707,-3.8707,-3.8707,-3.8579,-3.8248,-3.8212,-3.8083,-3.7771,-3.7734,-3.7514,-3.7052,-3.6688,-3.6266,-3.5789,-3.4949,-3.2931,0.0,0.0,0.0,-1.923,-1.7876,-1.8945,-2.2097,0.0,-2.7197,-3.1255,-3.315,-3.5623,-3.829,-3.8242,-3.8209,-3.8209,-3.8209,-3.8209,-3.8209,-3.8209,-3.8209,-3.8154,-3.7828,-3.7094,-3.6008,-3.4484,-3.3576,-3.2897,-3.1963,-3.1601,-3.143,-3.1193,-3.1055,-3.0975,-3.0851,-3.0753,-3.0671,-3.0531,-3.0506,-3.0363,-2.9897,-2.895,-2.7644,-2.5696,-2.4812,-2.3919,-2.2468,0.0,0.0,0.0,0.0,0.0,0.0,0.0,0.0,0.0,0.0,0.0,0.0,0.0,0.0,0.0,0.0,0.0,-1.2848,0.0,-1.6067,-1.5081,-1.7832,-1.9615,-2.0418,-2.1584,-2.2279,-2.2485,-2.2541,-2.242,-2.2214,-2.2658,-2.274,-2.2577,-2.2915,-2.2584,-2.1837,-2.1837,-2.1542,-2.0996,-2.0352,-2.0186,-2.0136,-3.4312,0.0,-3.491,0.0,-3.6941,-3.7323,-3.8508,-3.8707,-3.8707,-3.8707,-3.8707,-3.8707,-3.8707,-3.8707,-3.8707,-3.8707,-3.8707,-3.8707,-3.8707,-3.8707,-3.845,-3.7878,-3.7621,0.0,-3.6684,-3.5826,-3.427,-3.199,-2.7912,0.0,-2.2484,-2.1206,-2.2308,-2.5452,-2.7919,-3.0329,-3.2697,-3.5184,-3.7021,-3.829,-3.8242,-3.8209,-3.8209,-3.8209,-3.8209,-3.8209,-3.8209,-3.8209,-3.8209,-3.8209,-3.7828,-3.7054,-3.54,-3.4482,-3.38,-3.2704,-3.2069,-3.1657,-3.1408,-3.1213,-3.1052,-3.0952,-3.0834,-3.0712,-3.0589,-3.0526,-3.0363,-2.9897,-2.9157,-2.8528,-2.8207,-2.5986,-2.4459,-2.5168,0.0,0.0,0.0,0.0,0.0,0.0,-1.9724,-1.8821,0.0,0.0,0.0,0.0,0.0,0.0,0.0,0.0,0.0,0.0,0.0,0.0,0.0,-1.9623,-2.1521,-2.297,-2.3564,-2.3945,-2.4107,-2.4464,-2.4055,-2.3205,-2.3979,-2.4023,-2.3474,-2.3736,-2.3641,-2.3282,-2.3119,-2.3034,-2.2924,-2.1873,-2.1693,-2.1785,-3.5773,-3.6175,-3.6703,-3.838,-3.867,-3.8689,-3.8707,-3.8707,-3.8707,-3.8707,-3.8707,-3.8707,-3.8707,-3.8707,-3.8707,-3.8707,-3.8707,-3.8707,-3.8707,-3.8707,-3.8707,0.0,0.0,-3.7492,-3.7492,-3.6703,-3.6266,-3.6229,0.0,0.0,-2.999,-2.587,-2.5663,-2.8767,-2.9468,-3.2078,-3.5994,-3.6678,-3.7497,-3.829,-3.8242,-3.8209,-3.8209,-3.8209,-3.8209,-3.8209,-3.8209,-3.8209,-3.8209,-3.8209,-3.8191,-3.8046,-3.723,-3.5611,-3.4007,-3.3972,-3.2897,-3.1695,-3.1712,-3.1449,-3.1171,-3.1035,-3.0952,-3.0871,-3.0733,-3.0589,-3.0363,-2.9897,-2.9579,-2.9248,-2.8779,-2.8865,-2.8036,-2.4999,0.0,0.0,0.0,0.0,0.0,0.0,-1.387,-1.2847,-1.8458,0.0,0.0,0.0,0.0,0.0,0.0,0.0,0.0,-1.8398,-1.9279,0.0,-2.0547,-2.2857,-2.434,-2.4976,-2.4976,-2.5247,-2.5783,-2.5783,-2.5473,-2.4976,-2.4912,-2.5222,-2.5699,-2.5124,-2.4912,-2.4912,-2.4312,-2.4075,-2.3881,-2.2295,-2.2362,-2.3121,-3.7747,-3.7906,-3.8068,-3.8615,-3.9148,-3.9515,-3.9515,-3.9992,-4.0325,-4.0325,-4.0325,-4.0325,-4.0325,-3.9368,-3.9132,0.0,-3.9827,-3.9515,0.0,-3.9515,-3.9276,-3.8726,-3.845,-3.8322,-3.8322,-3.7529,-3.7077,-3.6985,0.0,0.0,0.0,-2.8682,-2.9446,-3.2042,-3.2805,-3.4156,-3.5916,-3.6685,-3.7482,-3.8242,-3.8209,-3.8209,-3.8209,-3.8209,-3.8209,-3.8209,-3.8209,-3.8209,-3.8209,-3.8209,-3.8209,-3.8172,-3.7901,-3.6624,-3.5071,-3.4233,-3.3272,-3.2333,-3.1841,-3.162,-3.1449,-3.1078,-3.0952,-3.0871,-3.0733,-3.0589,-3.0447,-3.0321,-2.9946,-2.9579,-2.9225,-2.928,-2.8835,-2.7219,-2.7026,0.0,-2.4162,0.0,0.0,0.0,-2.0098,-2.0026,0.0,-1.8171,0.0,0.0,0.0,0.0,0.0,0.0,0.0,0.0,-2.0428,0.0,-2.1221,-2.3114,-2.4597,-2.5625,-2.5625,-2.5701,-2.5836,-2.5431,-2.4946,-2.4422,-2.5177,-2.543,-2.5286,-2.5551,-2.5609,-2.5556,-2.5447,-2.5402,-2.5295,-2.4612,-2.4641,-2.4929,-3.8651,-3.8868,-3.9119,-3.9119,-3.9795,-4.0359,-4.0359,-4.0765,-4.1095,-4.1095,-4.1095,-4.1224,-4.1517,-4.0396,0.0,-4.1003,-4.0359,-3.99,-3.99,-3.99,-3.9533,-3.8744,-3.8707,-3.8707,-3.8707,-3.8212,0.0,-3.7744,-3.4946,-3.3145,-3.2319,-3.2192,-3.2801,-3.4026,-3.48,-3.5408,-3.5887,-3.6701,-3.7499,-3.8209,-3.8209,-3.8209,-3.8209,-3.8209,-3.8209,-3.8209,-3.8209,-3.8209,-3.8209,-3.8209,-3.8209,-3.8209,-3.8209,-3.7286,-3.6025,-3.4986,-3.3997,-3.3056,-3.2161,-3.1823,-3.1582,-3.1117,-3.0952,-3.0851,-3.0671,-3.0568,-3.0506,-3.0506,-3.0258,-2.9962,-2.975,-2.9677,-2.9477,-2.8873,-2.8101,-2.7118,-2.5778,0.0,-2.3852,0.0,0.0,0.0,0.0,-2.0382,0.0,0.0,0.0,0.0,0.0,0.0,0.0,-1.9589,-2.2575,0.0,-2.345,-2.476,-2.5781,-2.6522,-2.6522,-2.6522,-2.6522,-2.6152,-2.589,-2.5786,-2.6181,-2.648,-2.6669,-2.6757,-2.6939,-2.7121,-2.6979,-2.7056,-2.7214,-2.6587,-2.6614,-2.6904,-3.8759,-3.9284,-3.9882,-3.9882,-4.0606,-4.1168,-4.1168,-4.1224,-4.126,-4.126,-4.126,-4.1535,-4.2304,-4.168,-4.1205,-4.126,0.0,0.0,-3.9992,-3.9974,-3.9588,-3.8744,-3.8707,-3.8707,-3.8707,-3.8707,-3.8624,-3.851,-3.7685,-3.6872,-3.6073,-3.6015,-3.5557,-3.483,-3.5615,-3.5965,-3.5965,-3.6817,-3.7568,-3.8209,-3.8209,-3.8209,-3.8209,-3.8209,-3.8209,-3.8209,-3.8209,-3.8209,-3.8209,-3.8209,-3.8209,-3.8209,-3.8209,-3.7701,-3.6922,-3.6039,-3.4965,-3.3795,-3.2647,-3.2039,-3.1638,-3.1157,-3.0955,-3.0831,-3.0568,-3.0506,-3.0506,-3.0506,-3.0443,-3.0359,-3.0248,-3.0103,-2.9989,-2.9902,-2.8681,-2.7486,-2.6778,-2.5708,-2.3999,0.0,0.0,0.0,0.0,-2.0415,-2.0957,0.0,0.0,0.0,0.0,0.0,-1.9384,-2.4006,-2.5369,-2.6287,-2.6864,-2.7418,-2.771,-2.771,-2.771,-2.771,-2.771,-2.771,-2.8042,-2.8528,-2.7783,-2.8192,-2.9336,-2.8519,-2.8691,-2.9339,-2.8716,-2.8871,-2.9278,-2.8144,-2.8294,-2.8917,0.0,0.0,-4.0787,-4.0787,-4.148,-4.2029,-4.2029,-4.2543,-4.2928,-4.2928,-4.2928,-4.3002,-4.3185,-4.2506,-4.2268,-4.2873,-4.2194,-4.1479,-4.0857,-4.0836,-4.0178,-3.8762,-3.8707,-3.8707,-3.8707,-3.8707,-3.8624,-3.851,-3.8186,-3.7646,-3.6908,-3.6848,-3.6084,-3.4867,-3.6273,-3.6518,-3.5984,-3.74,-3.8094,-3.8209,-3.8209,-3.8209,-3.8209,-3.8209,-3.8209,-3.8209,-3.8209,-3.8209,-3.8209,-3.8209,-3.8209,-3.8209,-3.8209,-3.8082,-3.7647,-3.6218,-3.516,-3.4204,-3.3011,-3.2418,-3.2056,-3.1582,-3.11,-3.0692,-3.0547,-3.0506,-3.0506,-3.0506,-3.0485,-3.0422,-3.0231,-3.0167,-3.0098,-2.9924,-2.9432,-2.8661,-2.7524,-2.7155,-2.6403,0.0,-2.4637,-2.4825,-2.5127,-2.4866,-2.4379,0.0,0.0,0.0,0.0,-2.2981,-2.3733,-2.5773,-2.6578,-2.7469,-2.8528,-2.8662,-2.8779,-2.8826,-2.8826,-2.8865,-2.8973,-2.8973,-2.9004,-2.9034,-2.8944,-2.9028,-2.9262,-2.9253,-2.9307,-2.9406,-2.9329,-2.9419,-2.9518,-2.923,-2.9336,-2.9563,-4.1034,-4.1304,-4.1612,-4.1612,-4.2306,-4.2837,-4.2837,-4.3222,-4.3515,-4.3515,-4.3515,-4.3515,-4.3515,-4.3112,-4.302,-4.346,-4.2433,-4.1572,-4.1132,-4.0763,-4.001,-3.8762,-3.8707,-3.8707,-3.8707,-3.8707,-3.8609,-3.8462,-3.8354,-3.8089,-3.7669,-3.762,-3.6983,-3.5897,-3.6752,-3.6916,-3.6555,-3.7396,-3.7929,-3.8241,-3.8225,-3.8209,-3.8209,-3.8209,-3.8209,-3.8209,-3.8209,-3.8209,-3.8209,-3.8209,-3.8209,-3.8209,-3.8209,-3.8209,-3.7973,-3.6707,-3.5783,-3.4842,-3.3447,-3.27,-3.2127,-3.1488,-3.1058,-3.077,-3.063,-3.0589,-3.0568,-3.051,-3.0506,-3.0464,-3.0333,-3.0274,-3.0227,-2.9989,-2.9748,-2.9224,-2.8151,-2.7832,-2.7426,-2.6757,-2.6504,-2.6503,-2.6826,-2.6587,-2.5918,-2.4795,-2.4639,0.0,-2.4518,-2.5287,-2.6127,-2.6976,-2.7811,-2.8572,-2.9241,-2.9241,-2.9264,-2.93,-2.93,-2.9323,-2.9406,-2.9406,-2.9502,-2.9701,-2.9701,-2.987,-3.0128,-3.0166,-3.0225,-3.023,-3.023,-3.0272,-3.0335,-3.0335,-3.0372,-3.0435,-4.1333,-4.184,-4.2386,-4.2386,-4.3004,-4.3515,-4.3515,-4.3515,-4.3515,-4.3515,-4.3515,-4.3515,-4.3515,-4.3515,-4.3515,-4.3515,-4.2139,-4.1279,-4.1279,-4.0524,-3.9772,-3.9093,-3.8946,-3.8891,-3.8891,-3.8762,-3.8611,-3.8415,-3.8354,-3.829,-3.8225,-3.8209,-3.7807,-3.7108,-3.7217,-3.7264,-3.7184,-3.7249,-3.7671,-3.8274,-3.8207,-3.8209,-3.8209,-3.8209,-3.8209,-3.8209,-3.8209,-3.8209,-3.8209,-3.8209,-3.8209,-3.8209,-3.8209,-3.8209,-3.8047,-3.7309,-3.6566,-3.5638,-3.4021,-3.2861,-3.19,-3.1046,-3.0683,-3.0516,-3.0379,-3.0359,-3.0318,-3.0216,-3.0257,-3.0319,-3.0252,-3.0314,-3.0164,-2.9489,-2.9583,-2.9327,-2.8185,-2.7984,-2.7927,-2.7874,-2.7194,-2.6972,-2.7535,-2.7049,-2.671,-2.6756,-2.6604,-2.6535,-2.6535,-2.7064,-2.7574,-2.8016,-2.8923,-2.9473,-2.9607,-2.9629,-2.9629,-2.9651,-2.9651,-2.9651,-2.9673,-2.9673,-2.9935,-3.0414,-3.0356,-3.0662,-3.1171,-3.1134,-3.1173,-3.1271,-3.1215,-3.1274,-3.1387,-3.1387,-3.1406,-3.1391,-4.3061,-4.3154,-4.3228,-4.3297,-4.3406,-4.3515,-4.3515,-4.3515,-4.3515,-4.3515,-4.3515,-4.3515,-4.3515,-4.3515,-4.3515,-4.3515,-4.2653,-4.2121,-4.2121,-4.1352,-4.0857,-4.0728,-4.0084,-3.9698,-3.9698,-3.9056,-3.8624,-3.8494,-3.8415,-3.8336,-3.829,-3.8242,-3.7807,-3.7126,-3.7816,-3.7725,-3.716,-3.7834,-3.8148,-3.8225,-3.8209,-3.8209,-3.8209,-3.8209,-3.8209,-3.8209,-3.8209,-3.8209,-3.8209,-3.8209,-3.8209,-3.8209,-3.8209,-3.8209,-3.8105,-3.7578,-3.7124,-3.6455,-3.4846,-3.2841,-3.1029,-3.0249,-2.9484,-2.8879,-2.886,-2.8802,-2.8743,-2.8724,-2.9185,-2.9558,-2.9469,-2.9984,-2.9527,-2.6866,-2.8432,-2.8968,-2.611,-2.7742,-2.9062,-2.86,-2.8428,-2.8373,-2.8482,-2.8254,-2.8144,-2.8326,-2.8168,-2.8064,-2.8064,-2.8669,-2.9185,-2.9545,-2.9454,-2.9821,-3.0654,-3.0671,-3.0695,-3.0757,-3.0757,-3.0818,-3.0918,-3.0918,-3.0898,-3.0918,-3.1281,-3.1298,-3.1095,-3.1787,-3.1896,-3.1657,-3.1967,-3.2144,-3.2214,-3.2214,-3.2248,-3.2299,-4.3304,-4.3376,-4.3412,-4.3446,-4.348,-4.3515,-4.3515,-4.3515,-4.3515,-4.3515,-4.3515,-4.3515,-4.3515,-4.3515,-4.3515,-4.3515,-4.3149,-4.2763,-4.2323,-4.1535,-4.1095,-4.1095,-4.0744,-4.0561,-4.0561,-3.9687,-3.9237,-3.9205,-3.8697,-3.8401,-3.8307,-3.8274,-3.8041,-3.7715,-3.8077,-3.8058,-3.778,-3.8094,-3.8241,-3.8241,-3.8225,-3.8209,-3.8209,-3.8209,-3.8209,-3.8209,-3.8209,-3.8209,-3.8209,-3.8209,-3.8209,-3.8209,-3.8209,-3.8209,-3.8157,-3.795,-3.6964,-3.5725,-3.4593,-3.2719,-3.0974,-3.0432,-2.9519,-2.8734,-2.8641,-2.8584,-2.8527,-2.8412,-2.8658,-2.8834,-2.8827,-2.9092,-2.8969,-2.7856,-2.8707,-2.9105,-2.795,-2.8785,-2.9403,-2.9152,-2.899,-2.8912,-2.8912,-2.8834,-2.8811,-2.8912,-2.8943,-2.8974,-2.9028,-2.9451,-2.9897,-3.0365,-3.0481,-3.0723,-3.1117,-3.1117,-3.1114,-3.1112,-3.1112,-3.1215,-3.1468,-3.1507,-3.1601,-3.1714,-3.1967,-3.195,-3.1787,-3.2196,-3.2231,-3.2109,-3.2317,-3.2401,-3.2402,-3.2435,-3.2467,-3.2534,-4.3178,-4.3269,-4.3341,-4.3394,-4.3446,-4.348,-4.3497,-4.3515,-4.3515,-4.3515,-4.3515,-4.3515,-4.3515,-4.3515,-4.3515,-4.3515,-4.3515,-4.3149,-4.2359,-4.1901,-4.148,-4.1113,-4.0914,-4.0787,-4.0787,-3.988,-3.9445,-3.9497,-3.8839,-3.843,-3.8322,-3.8307,-3.8257,-3.8209,-3.8209,-3.8242,-3.8274,-3.8207,-3.8242,-3.8274,-3.8225,-3.8209,-3.8209,-3.8209,-3.8209,-3.8209,-3.8209,-3.8209,-3.8209,-3.8209,-3.8209,-3.8209,-3.8209,-3.8209,-3.8209,-3.8209,-3.6815,-3.5021,-3.3906,-3.2338,-3.0875,-3.0231,-2.9315,-2.8504,-2.8251,-2.8178,-2.8104,-2.7935,-2.8047,-2.8144,-2.8144,-2.8276,-2.837,-2.8303,-2.8763,-2.912,-2.9044,-2.9399,-2.9605,-2.9515,-2.935,-2.9229,-2.919,-2.9137,-2.9121,-2.919,-2.9348,-2.9496,-2.9607,-2.9876,-3.0302,-3.0905,-3.1291,-3.1443,-3.1351,-3.1351,-3.1329,-3.1269,-3.1269,-3.1447,-3.1769,-3.1824,-3.2021,-3.2351,-3.2503,-3.2519,-3.2453,-3.2619,-3.2635,-3.2586,-3.2715,-3.2731,-3.2699,-3.2745,-3.2793,-3.2856,-4.316,-4.316,-4.3178,-4.3376,-4.3394,-4.3429,-4.3497,-4.3515,-4.3515,-4.3515,-4.3515,-4.3515,-4.3515,-4.3515,-4.3515,-4.3515,-4.3515,-4.3149,-4.2359,-4.2928,-4.2653,-4.1168,-4.0333,-3.99,-3.99,-3.904,-3.8601,-3.8601,-3.8528,-3.8462,-3.8382,-3.8322,-3.8257,-3.8209,-3.8209,-3.8209,-3.8209,-3.8209,-3.8209,-3.8209,-3.8209,-3.8209,-3.8209,-3.8209,-3.8209,-3.8209,-3.8209,-3.8209,-3.8209,-3.8209,-3.8209,-3.8209,-3.8209,-3.8209,-3.8209,-3.8209,-3.7035,-3.5265,-3.3031,-3.1507,-3.0219,-2.8826,-2.7856,-2.716,-2.6843,-2.6619,-2.6479,-2.6462,-2.6939,-2.7365,-2.7365,-2.7945,-2.7727,-2.5653,-2.7561,-2.8533,-2.6409,-2.8437,-2.9995,-2.9538,-2.9592,-2.9614,-2.947,-2.9259,-2.919,-2.9448,-2.9534,-2.9585,-2.9607,-3.0128,-3.0686,-3.1257,-3.1423,-3.1498,-3.1498,-3.1498,-3.1479,-3.1479,-3.1479,-3.1635,-3.1985,-3.1968,-3.2162,-3.2501,-3.2892,-3.2844,-3.255,-3.3232,-3.3324,-3.3081,-3.3397,-3.3541,-3.3597,-3.3597,-3.3652,-3.3721,-4.3178,-4.3251,-4.3305,-4.3394,-4.3429,-4.3463,-4.3497,-4.3515,-4.3515,-4.3515,-4.3515,-4.3515,-4.3515,-4.3515,-4.3515,-4.3515,-4.3515,-4.3149,-4.2359,-4.2121,-4.1974,-4.1864,-4.1418,-4.0984,-4.0559,-3.9602,-3.9132,-3.9179,-3.8716,-3.8478,-3.8399,-3.8385,-3.8322,-3.8257,-3.8225,-3.8209,-3.8209,-3.8209,-3.8209,-3.8209,-3.8209,-3.8209,-3.8209,-3.8209,-3.8209,-3.8209,-3.8209,-3.8209,-3.8209,-3.8209,-3.8209,-3.8209,-3.8209,-3.8209,-3.8209,-3.8209,-3.7051,-3.5503,-3.4112,-3.2156,-3.0374,-2.9799,-2.8396,-2.7101,-2.6841,-2.664,-2.6434,-2.6276,-2.6457,-2.6674,-2.6636,-2.6849,-2.7048,-2.7096,-2.7962,-2.8642,-2.8648,-2.9543,-3.0124,-2.9951,-2.9908,-2.988,-2.982,-2.9665,-2.9637,-2.9748,-3.0087,-3.0309,-3.0339,-3.0965,-3.1408,-3.1598,-3.1783,-3.1764,-3.1559,-3.1559,-3.1538,-3.1498,-3.1498,-3.1819,-3.2369,-3.242,-3.2716,-3.3202,-3.3422,-3.3451,-3.3328,-3.3648,-3.3707,-3.3606,-3.3788,-3.3535,-3.3154,-3.3703,-3.3582,-3.3257,-4.3214,-4.3269,-4.334,-4.3394,-4.3446,-4.348,-4.3497,-4.3515,-4.3515,-4.3515,-4.3515,-4.3515,-4.3515,-4.3515,-4.3515,-4.3515,-4.3515,-4.3149,-4.2359,-4.1791,-4.137,-4.1185,-4.1255,-4.0967,-4.0196,-3.9498,-3.9175,-3.919,-3.8704,-3.8446,-3.8399,-3.8399,-3.8368,-3.8307,-3.8241,-3.8225,-3.8209,-3.8209,-3.8209,-3.8209,-3.8209,-3.8209,-3.8209,-3.8209,-3.8209,-3.8209,-3.8209,-3.8209,-3.8209,-3.8209,-3.8209,-3.8209,-3.8209,-3.8209,-3.8209,-3.8209,-3.7051,-3.5677,-3.5116,-3.3046,-3.089,-3.0284,-2.8779,-2.7396,-2.7083,-2.6874,-2.6657,-2.6398,-2.6312,-2.6313,-2.6365,-2.6292,-2.6654,-2.7996,-2.8243,-2.8685,-2.9885,-3.0206,-3.0274,-3.021,-3.0162,-3.0103,-3.006,-3.0033,-2.9989,-2.9989,-3.0568,-3.1001,-3.1261,-3.1711,-3.1965,-3.1965,-3.209,-3.2055,-3.1821,-3.1821,-3.1802,-3.1746,-3.1746,-3.2073,-3.2705,-3.2814,-3.3142,-3.3629,-3.3807,-3.3855,-3.3855,-3.3908,-3.3934,-3.3934,-3.3985,-3.3474,-3.2809,-3.3413,-3.3278,-3.2871,-4.3214,-4.3214,-4.3251,-4.3394,-4.3394,-4.3411,-4.3497,-4.3515,-4.3515,-4.3515,-4.3515,-4.3515,-4.3515,-4.3515,-4.3515,-4.3515,-4.3515,-4.3149,-4.2359,-4.2304,-4.124,-3.8817,-3.942,-3.9374,-3.8417,-3.8399,-3.8368,-3.8307,-3.8368,-3.8399,-3.8399,-3.8399,-3.8368,-3.8307,-3.8307,-3.8257,-3.8209,-3.8209,-3.8209,-3.8209,-3.8209,-3.8209,-3.8209,-3.8209,-3.8209,-3.8209,-3.8209,-3.8209,-3.8209,-3.8209,-3.8209,-3.8209,-3.8209,-3.8209,-3.8209,-3.8209,-3.7051,-3.5804,-3.5804,-3.4045,-3.1743,-2.9808,-2.8705,-2.795,-2.7336,-2.7149,-2.7006,-2.6674,-2.6434,-2.6418,-2.6741,-2.6469,-2.6561,-2.7618,-2.8139,-2.8602,-2.9206,-2.9997,-3.0405,-3.0248,-3.0333,-3.0338,-3.021,-3.0189,-3.0189,-3.0189,-3.0882,-3.1582,-3.2266,-3.2301,-3.2301,-3.2301,-3.2301,-3.2301,-3.2301,-3.2301,-3.2301,-3.2301,-3.2301,-3.2505,-3.2916,-3.3111,-3.3379,-3.3712,-3.3908,-3.3998,-3.3998,-3.3998,-3.3998,-3.3998,-3.3979,-3.3499,-3.2798,-3.2798,-3.2798,-3.281,-4.334,-4.3375,-4.341,-4.3463,-4.3463,-4.348,-4.3497,-4.3515,-4.3515,-4.3515,-4.3515,-4.3515,-4.3515,-4.3515,-4.3515,-4.3515,-4.3515,-4.3149,-4.2359,-4.2818,-4.2047,-3.9643,-4.0242,-3.994,-3.8435,-3.8399,-3.8336,-3.8242,-3.8401,-3.8446,-3.8399,-3.8446,-3.8462,-3.8449,-3.8338,-3.829,-3.8257,-3.8225,-3.8209,-3.8209,-3.8209,-3.8209,-3.8209,-3.8209,-3.8209,-3.8209,-3.8209,-3.8209,-3.8209,-3.8209,-3.8209,-3.8209,-3.8209,-3.8209,-3.8209,-3.8209,-3.7466,-3.6508,-3.5949,-3.4461,-3.2636,-3.0924,-2.9699,-2.8682,-2.7635,-2.7305,-2.7054,-2.6623,-2.6708,-2.6775,-2.6504,-2.6741,-2.7079,-2.7387,-2.7759,-2.831,-2.9231,-2.9575,-2.9906,-3.0356,-3.0654,-3.0695,-3.0359,-3.051,-3.0493,-3.021,-3.0882,-3.1582,-3.2266,-3.2301,-3.2301,-3.2301,-3.2437,-3.2505,-3.2505,-3.2369,-3.2301,-3.2301,-3.2301,-3.2587,-3.3111,-3.3169,-3.3462,-3.3908,-3.4023,-3.4074,-3.4074,-3.4124,-3.4136,-3.408,-3.3518,-3.2813,-3.2182,-3.2739,-3.259,-3.2256,-4.3323,-4.3411,-4.3445,-4.3445,-4.348,-4.3515,-4.3515,-4.3515,-4.3515,-4.3515,-4.3515,-4.3515,-4.3515,-4.3515,-4.3515,-4.3515,-4.3515,-4.3277,-4.28,-4.3222,-4.2708,-4.0928,-4.1282,-4.0538,-3.8483,-3.8793,-3.8715,-3.8241,-3.837,-3.8401,-3.8352,-3.843,-3.8462,-3.8462,-3.8368,-3.8322,-3.8307,-3.8242,-3.8209,-3.8209,-3.8209,-3.8225,-3.8242,-3.8209,-3.8225,-3.8242,-3.8209,-3.8209,-3.8209,-3.8209,-3.8209,-3.8209,-3.8209,-3.8209,-3.8209,-3.8209,-3.7395,-3.6417,-3.5931,-3.4643,-3.3085,-3.1799,-3.0481,-2.9195,-2.801,-2.7631,-2.7483,-2.7266,-2.7243,-2.7266,-2.7249,-2.7289,-2.7332,-2.7487,-2.7673,-2.8123,-2.9073,-2.9314,-2.9722,-3.0636,-3.0922,-3.1004,-3.0922,-3.1064,-3.1125,-3.1027,-3.1298,-3.1786,-3.2488,-3.2539,-3.2539,-3.2539,-3.2655,-3.2721,-3.2721,-3.2606,-3.2539,-3.2539,-3.2539,-3.2736,-3.3081,-3.3262,-3.3541,-3.3842,-3.4049,-3.4136,-3.4148,-3.4185,-3.4197,-3.4141,-3.3658,-3.2797,-3.1905,-3.2704,-3.25,-3.1979,-4.3196,-4.3305,-4.3394,-4.3394,-4.3428,-4.3497,-4.3497,-4.3497,-4.3515,-4.3515,-4.3515,-4.3515,-4.3515,-4.3515,-4.3515,-4.3515,-4.3515,-4.3515,-4.3515,-4.3515,-4.313,-4.2341,-4.2378,-4.1225,-3.869,-3.9406,-3.9327,-3.8416,-3.8343,-3.8307,-3.8307,-3.8368,-3.8415,-3.8415,-3.8415,-3.8368,-3.8289,-3.8242,-3.8209,-3.8209,-3.8209,-3.8242,-3.829,-3.8207,-3.8242,-3.829,-3.8207,-3.8209,-3.8209,-3.8209,-3.8209,-3.8209,-3.8209,-3.8209,-3.8209,-3.8209,-3.7105,-3.5876,-3.5822,-3.4679,-3.3302,-3.2415,-3.1107,-2.9705,-2.8577,-2.8263,-2.8255,-2.8443,-2.8035,-2.7907,-2.8668,-2.8099,-2.7609,-2.7924,-2.7936,-2.8149,-2.8803,-2.9176,-2.9762,-3.0839,-3.1092,-3.13,-3.1621,-3.1694,-3.1877,-3.2266,-3.1967,-3.2091,-3.2868,-3.29,-3.29,-3.29,-3.29,-3.29,-3.29,-3.29,-3.29,-3.29,-3.29,-3.2916,-3.293,-3.3386,-3.3619,-3.3661,-3.4036,-3.4197,-3.4197,-3.4197,-3.4209,-3.4203,-3.4147,-3.3162,-3.1939,-3.2727,-3.2523,-3.1957,-4.3105,-4.3196,-4.3251,-4.3251,-4.334,-4.3411,-4.3411,-4.3463,-4.3515,-4.3515,-4.3515,-4.3515,-4.3515,-4.3515,-4.3515,-4.3515,-4.3515,-4.3515,-4.3515,-4.3515,-4.313,-4.2341,-4.2892,-4.2103,-3.9664,-3.9731,-3.9617,-3.9232,-3.8662,-3.8336,-3.8307,-3.8415,-3.8478,-3.8478,-3.8478,-3.8446,-3.8385,-3.8323,-3.8259,-3.8209,-3.8209,-3.8209,-3.8225,-3.8209,-3.8209,-3.8225,-3.8209,-3.8209,-3.8209,-3.8209,-3.8209,-3.8209,-3.8209,-3.8209,-3.8209,-3.8209,-3.752,-3.6598,-3.5967,-3.508,-3.4009,-3.256,-3.1926,-3.1386,-3.0241,-2.949,-2.9176,-2.9613,-2.9274,-2.906,-2.9546,-2.9393,-2.9205,-2.9276,-2.8965,-2.8788,-2.888,-2.9007,-2.9301,-2.9864,-3.1037,-3.1695,-3.1413,-3.1582,-3.1877,-3.2266,-3.2231,-3.2386,-3.2884,-3.29,-3.29,-3.29,-3.29,-3.29,-3.29,-3.29,-3.29,-3.29,-3.29,-3.2977,-3.3144,-3.3459,-3.3684,-3.3842,-3.4099,-3.4197,-3.4197,-3.4197,-3.4257,-3.4295,-3.3661,-3.2839,-3.2127,-3.2999,-3.2774,-3.2239,-4.2994,-4.3068,-4.316,-4.316,-4.3251,-4.3286,-4.3286,-4.3394,-4.3464,-4.3464,-4.348,-4.3515,-4.3515,-4.3515,-4.3515,-4.3515,-4.3515,-4.3497,-4.3445,-4.348,-4.3297,-4.2823,-4.326,-4.2927,-4.1642,-4.1176,-4.049,-3.9537,-3.8767,-3.8569,-3.887,-3.8534,-3.843,-3.851,-3.8478,-3.843,-3.8401,-3.8322,-3.8257,-3.8209,-3.8209,-3.8225,-3.8241,-3.8225,-3.8225,-3.8241,-3.8209,-3.8209,-3.8209,-3.8209,-3.8209,-3.8209,-3.8209,-3.8209,-3.8209,-3.8209,-3.7629,-3.6904,-3.649,-3.5802,-3.4881,-3.3647,-3.3339,-3.2878,-3.1146,-3.0402,-3.0245,-3.0734,-3.0451,-3.0231,-3.0637,-3.0463,-3.0262,-3.0272,-2.9885,-2.9681,-3.0006,-2.9937,-3.0141,-3.086,-3.1742,-3.2249,-3.2127,-3.2056,-3.2196,-3.2588,-3.2471,-3.2521,-3.2932,-3.2948,-3.2932,-3.29,-3.2932,-3.2948,-3.2948,-3.2979,-3.3011,-3.3011,-3.3083,-3.3229,-3.3462,-3.3784,-3.3985,-3.4099,-3.4305,-3.4386,-3.4386,-3.4386,-3.442,-3.4458,-3.4027,-3.3152,-3.2255,-3.3504,-3.3673,-3.3419,-4.2956,-4.3121,-4.3304,-4.3304,-4.336,-4.3415,-4.3397,-4.3524,-4.3558,-4.343,-4.3464,-4.3515,-4.3515,-4.3515,-4.3515,-4.3515,-4.3515,-4.3463,-4.3394,-4.3463,-4.3463,-4.3358,-4.3445,-4.3424,-4.3278,-4.2585,-4.1493,-4.0005,-3.9057,-3.89,-3.9472,-3.8672,-3.837,-3.8478,-3.843,-3.8415,-3.8399,-3.8338,-3.8274,-3.8209,-3.8209,-3.8224,-3.8274,-3.8225,-3.8224,-3.8274,-3.8225,-3.8209,-3.8209,-3.8209,-3.8209,-3.8209,-3.8209,-3.8209,-3.8209,-3.8209,-3.7629,-3.6995,-3.6995,-3.6399,-3.5641,-3.4969,-3.4808,-3.428,-3.227,-3.1614,-3.1494,-3.1843,-3.1538,-3.1349,-3.181,-3.148,-3.1159,-3.1289,-3.0877,-3.071,-3.1251,-3.1092,-3.1218,-3.207,-3.2415,-3.2737,-3.3011,-3.2736,-3.2653,-3.2995,-3.2595,-3.2545,-3.2995,-3.2903,-3.287,-3.293,-3.2979,-3.3011,-3.3011,-3.307,-3.3117,-3.3162,-3.3364,-3.3514,-3.3675,-3.4117,-3.4293,-3.4305,-3.4517,-3.4612,-3.4612,-3.4612,-3.4623,-3.4634,-3.4626,-3.3621,-3.2343,-3.3736,-3.4413,-3.4676,-4.3213,-4.365,-4.4141,-4.4141,-4.418,-4.4217,-4.416,-4.4364,-4.4252,-4.3503,-4.3464,-4.3515,-4.3515,-4.3515,-4.3515,-4.3515,-4.3515,-4.3463,-4.3394,-4.3463,-4.3428,-4.3233,-4.341,-4.3151,-4.2387,-4.2327,-4.2093,-4.1665,-4.0102,-3.9362,-3.9386,-3.8655,-3.8338,-3.8415,-3.8462,-3.8462,-3.8399,-3.8382,-3.8303,-3.8209,-3.8209,-3.8209,-3.8225,-3.8209,-3.8209,-3.8225,-3.8209,-3.8209,-3.8209,-3.8209,-3.8209,-3.8209,-3.8209,-3.8209,-3.8209,-3.8209,-3.7629,-3.6995,-3.6995,-3.6399,-3.5768,-3.5659,-3.5641,-3.555,-3.5225,-3.4081,-3.3089,-3.3153,-3.2567,-3.2274,-3.3008,-3.2549,-3.2242,-3.2874,-3.2346,-3.1766,-3.1515,-3.1434,-3.1356,-3.1213,-3.2079,-3.2832,-3.3232,-3.3104,-3.3039,-3.307,-3.2463,-3.2358,-3.305,-3.2475,-3.2421,-3.3052,-3.307,-3.3086,-3.3086,-3.3101,-3.3226,-3.3448,-3.3587,-3.3606,-3.3542,-3.4049,-3.4293,-3.4305,-3.4517,-3.4612,-3.4612,-3.4612,-3.4666,-3.4778,-3.4762,-3.381,-3.247,-3.2689,-3.3703,-3.4946,-4.4485,-4.4358,-4.4451,-4.4926,-4.4673,-4.4546,-4.4963,-4.4747,-4.4382,-4.3999,-4.3596,-4.3358,-4.3446,-4.348,-4.3515,-4.3515,-4.3515,-4.3463,-4.3394,-4.3429,-4.3358,-4.3214,-4.3358,-4.3264,-4.2882,-4.2949,-4.2914,-4.2774,-4.1081,-4.0212,-4.016,-3.931,-3.8758,-3.8462,-3.8446,-3.843,-3.8399,-3.8399,-3.832,-3.8209,-3.8209,-3.8209,-3.8209,-3.8209,-3.8209,-3.8209,-3.8209,-3.8209,-3.8209,-3.8209,-3.8209,-3.8209,-3.8209,-3.8209,-3.8209,-3.8209,-3.7955,-3.7665,-3.7665,-3.7412,-3.7033,-3.658,-3.6798,-3.6906,-3.6003,-3.5602,-3.515,-3.4262,-3.3429,-3.2977,-3.3339,-3.3103,-3.298,-3.3294,-3.3033,-3.2709,-3.2522,-3.2506,-3.2455,-3.236,-3.2775,-3.315,-3.3277,-3.3247,-3.3033,-3.2583,-3.2241,-3.2007,-3.1881,-3.1556,-3.1722,-3.2454,-3.2517,-3.2763,-3.3214,-3.3259,-3.3334,-3.3452,-3.3675,-3.3842,-3.4012,-3.434,-3.452,-3.4649,-3.4722,-3.4791,-3.4821,-3.4821,-3.4879,-3.4908,-3.4433,-3.3824,-3.324,-3.324,-3.3983,-3.5001]},{"header":{"parameterUnit":"m.s-1","parameterCategory":1,"la1":30.6,"la2":28.766,"lo1":-90.7593,"lo2":-88.6598,"dx":0.0162,"dy":0.0183,"nx":116,"ny":114,"refTime":"2022-12-03T06:00:00:Z","depth":0,"parameterNumber":3,"parameterNumberName":"V-component_of_WINDS"},"data":[0.0,0.0,0.0,0.0,0.0,0.0,0.0,0.0,0.0,0.0,0.0,0.0,0.0,0.0,0.0,0.0,0.0,0.0,0.0,0.0,0.0,0.0,0.0,0.0,0.0,0.0,0.0,0.0,0.0,0.0,0.0,0.0,0.0,0.0,0.0,0.0,0.0,0.0,0.0,0.0,0.0,0.0,0.0,0.0,0.0,0.0,0.0,0.0,0.0,0.0,0.0,0.0,0.0,0.0,0.0,0.0,0.0,0.0,0.0,0.0,0.0,0.0,0.0,0.0,0.0,0.0,0.0,0.0,0.0,0.0,0.0,0.0,0.0,0.0,0.0,0.0,0.0,0.0,0.0,0.0,0.0,0.0,0.0,0.0,0.0,0.0,0.0,0.0,0.0,0.0,0.0,0.0,0.0,0.0,0.0,0.0,0.0,0.0,0.0,0.0,0.0,0.0,0.0,0.0,0.0,0.0,0.0,0.0,0.0,0.0,0.0,0.0,0.0,0.0,0.0,0.0,0.0,0.0,0.0,0.0,0.0,0.0,0.0,0.0,0.0,0.0,0.0,0.0,0.0,0.0,0.0,0.0,0.0,0.0,0.0,0.0,0.0,0.0,0.0,0.0,0.0,0.0,0.0,0.0,0.0,0.0,0.0,0.0,0.0,0.0,0.0,0.0,0.0,0.0,0.0,0.0,0.0,0.0,0.0,0.0,0.0,0.0,0.0,0.0,0.0,0.0,0.0,0.0,0.0,0.0,0.0,0.0,0.0,0.0,0.0,0.0,0.0,0.0,0.0,0.0,0.0,0.0,0.0,0.0,0.0,0.0,0.0,0.0,0.0,0.0,0.0,0.0,0.0,0.0,0.0,0.0,0.0,0.0,0.0,0.0,0.0,0.0,0.0,0.0,0.0,0.0,0.0,0.0,0.0,0.0,0.0,0.0,0.0,0.0,0.0,0.0,0.0,0.0,0.0,0.0,0.0,0.0,0.0,0.0,0.0,0.0,0.0,0.0,0.0,0.0,0.0,0.0,0.0,0.0,0.0,0.0,0.0,0.0,0.0,0.0,0.0,0.0,0.0,0.0,0.0,0.0,0.0,0.0,0.0,0.0,0.0,0.0,0.0,0.0,0.0,0.0,0.0,0.0,0.0,0.0,0.0,0.0,0.0,0.0,0.0,0.0,0.0,0.0,0.0,0.0,0.0,0.0,0.0,0.0,0.0,0.0,0.0,0.0,0.0,0.0,0.0,0.0,0.0,0.0,0.0,0.0,0.0,0.0,0.0,0.0,0.0,0.0,0.0,0.0,0.0,0.0,0.0,0.0,0.0,0.0,0.0,0.0,0.0,0.0,0.0,0.0,0.0,0.0,0.0,0.0,0.0,0.0,0.0,0.0,0.0,0.0,0.0,0.0,0.0,0.0,0.0,0.0,0.0,0.0,0.0,0.0,0.0,0.0,0.0,0.0,0.0,0.0,0.0,0.0,0.0,0.0,0.0,0.0,0.0,0.0,0.0,0.0,0.0,0.0,0.0,0.0,0.0,0.0,0.0,0.0,0.0,0.0,0.0,0.0,0.0,0.0,0.0,0.0,0.0,0.0,0.0,0.0,0.0,0.0,0.0,0.0,0.0,0.0,0.0,0.0,0.0,0.0,0.0,0.0,0.0,0.0,0.0,0.0,0.0,0.0,0.0,0.0,0.0,0.0,0.0,0.0,0.0,0.0,0.0,0.0,0.0,0.0,0.0,0.0,0.0,0.0,0.0,0.0,0.0,0.0,0.0,0.0,0.0,0.0,0.0,0.0,0.0,0.0,0.0,0.0,0.0,0.0,0.0,0.0,0.0,0.0,0.0,0.0,0.0,0.0,0.0,0.0,0.0,0.0,0.0,0.0,0.0,0.0,0.0,0.0,0.0,0.0,0.0,0.0,0.0,0.0,0.0,0.0,0.0,0.0,0.0,0.0,0.0,0.0,0.0,0.0,0.0,0.0,0.0,0.0,0.0,0.0,0.0,0.0,0.0,0.0,0.0,0.0,0.0,0.0,0.0,0.0,0.0,0.0,0.0,0.0,0.0,0.0,0.0,0.0,0.0,0.0,0.0,0.0,0.0,0.0,0.0,0.0,0.0,0.0,0.0,0.0,0.0,0.0,0.0,0.0,0.0,0.0,0.0,0.0,0.0,0.0,0.0,0.0,0.0,0.0,0.0,0.0,0.0,0.0,0.0,0.0,0.0,0.0,0.0,0.0,0.0,0.0,0.0,0.0,0.0,0.0,0.0,0.0,0.0,0.0,0.0,0.0,0.0,0.0,0.0,0.0,0.0,0.0,0.0,0.0,0.0,0.0,0.0,0.0,0.0,0.0,0.0,0.0,0.0,0.0,0.0,0.0,0.0,0.0,0.0,0.0,0.0,0.0,0.0,0.0,0.0,0.0,0.0,0.0,0.0,0.0,0.0,0.0,0.0,0.0,0.0,0.0,0.0,0.0,0.0,0.0,0.0,0.0,0.0,0.0,0.0,0.0,0.0,0.0,0.0,0.0,0.0,0.0,0.0,0.0,0.0,0.0,0.0,0.0,0.0,0.0,0.0,0.0,0.0,0.0,0.0,0.0,0.0,0.0,0.0,0.0,0.0,0.0,0.0,0.0,0.0,0.0,0.0,0.0,0.0,0.0,0.0,0.0,0.0,0.0,0.0,0.0,0.0,0.0,0.0,0.0,0.0,0.0,0.0,0.0,0.0,0.0,0.0,0.0,0.0,0.0,0.0,0.0,0.0,0.0,0.0,0.0,0.0,0.0,0.0,0.0,0.0,0.0,0.0,0.0,0.0,0.0,0.0,0.0,0.0,0.0,0.0,0.0,0.0,0.0,0.0,0.0,0.0,0.0,0.0,0.0,0.0,0.0,0.0,0.0,0.0,0.0,0.0,0.0,0.0,0.0,0.0,0.0,0.0,0.0,0.0,0.0,0.0,0.0,0.0,0.0,0.0,0.0,0.0,0.0,0.0,0.0,0.0,0.0,0.0,0.0,0.0,0.0,0.0,0.0,0.0,0.0,0.0,0.0,0.0,0.0,0.0,0.0,0.0,0.0,0.0,0.0,0.0,0.0,0.0,0.0,0.0,0.0,0.0,0.0,0.0,0.0,0.0,0.0,0.0,0.0,0.0,0.0,0.0,0.0,0.0,0.0,0.0,0.0,0.0,0.0,0.0,0.0,0.0,0.0,0.0,0.0,0.0,0.0,0.0,0.0,0.0,0.0,0.0,0.0,0.0,0.0,0.0,0.0,0.0,0.0,0.0,0.0,0.0,0.0,0.0,0.0,0.0,0.0,0.0,0.0,0.0,0.0,0.0,0.0,0.0,0.0,0.0,0.0,0.0,0.0,0.0,0.0,0.0,0.0,0.0,0.0,0.0,0.0,0.0,0.0,0.0,0.0,0.0,0.0,0.0,0.0,0.0,0.0,0.0,0.0,0.0,0.0,0.0,0.0,0.0,0.0,0.0,0.0,0.0,0.0,0.0,0.0,0.0,0.0,0.0,0.0,0.0,0.0,0.0,0.0,0.0,0.0,0.0,0.0,0.0,0.0,0.0,0.0,0.0,0.0,0.0,0.0,0.0,0.0,0.0,0.0,0.0,0.0,0.0,0.0,0.0,0.0,0.0,0.0,0.0,0.0,0.0,0.0,0.0,0.0,0.0,0.0,0.0,0.0,0.0,0.0,0.0,0.0,0.0,0.0,0.0,0.0,0.0,0.0,0.0,0.0,0.0,0.0,0.0,0.0,0.0,0.0,0.0,0.0,0.0,0.0,0.0,0.0,0.0,0.0,0.0,0.0,0.0,0.0,0.0,0.0,0.0,0.0,0.0,0.0,0.0,0.0,0.0,0.0,0.0,0.0,0.0,0.0,0.0,0.0,0.0,0.0,0.0,0.0,0.0,0.0,0.0,0.0,0.0,0.0,0.0,0.0,0.0,0.0,0.0,0.0,0.0,0.0,0.0,0.0,0.0,0.0,0.0,0.0,0.0,0.0,0.0,0.0,0.0,0.0,0.0,0.0,0.0,0.0,0.0,0.0,0.0,0.0,0.0,0.0,0.0,0.0,0.0,0.0,0.0,0.0,0.0,0.0,0.0,0.0,0.0,0.0,0.0,0.0,0.0,0.0,0.0,0.0,0.0,0.0,0.0,0.0,0.0,0.0,0.0,0.0,0.0,0.0,0.0,0.0,0.0,0.0,0.0,0.0,0.0,0.0,0.0,0.0,0.0,0.0,0.0,0.0,0.0,0.0,0.0,0.0,0.0,0.0,0.0,0.0,0.0,0.0,0.0,0.0,0.0,0.0,0.0,0.0,0.0,0.0,0.0,0.0,0.0,0.0,0.0,0.0,0.0,0.0,0.0,0.0,0.0,0.0,0.0,0.0,0.0,0.0,0.0,0.0,0.0,0.0,0.0,0.0,0.0,0.0,0.0,0.0,0.0,0.0,0.0,0.0,0.0,0.0,0.0,0.0,0.0,0.0,0.0,0.0,0.0,0.0,0.0,0.0,0.0,0.0,0.0,0.0,0.0,0.0,0.0,0.0,0.0,0.0,0.0,0.0,0.0,0.0,0.0,0.0,0.0,0.0,0.0,0.0,0.0,0.0,0.0,0.0,0.0,0.0,0.0,0.0,0.0,0.0,0.0,0.0,0.0,0.0,0.0,0.0,0.0,0.0,0.0,0.0,0.0,0.0,0.0,0.0,0.0,0.0,0.0,0.0,0.0,0.0,0.0,0.0,0.0,0.0,0.0,0.0,0.0,0.0,0.0,0.0,0.0,0.0,0.0,0.0,0.0,0.0,0.0,0.0,0.0,0.0,0.0,0.0,0.0,0.0,0.0,0.0,0.0,0.0,0.0,0.0,0.0,0.0,0.0,0.0,0.0,0.0,0.0,0.0,0.0,0.0,0.0,0.0,0.0,0.0,0.0,0.0,0.0,0.0,0.0,0.0,0.0,0.0,0.0,0.0,0.0,0.0,0.0,0.0,0.0,0.0,0.0,0.0,0.0,0.0,0.0,0.0,0.0,0.0,0.0,0.0,0.0,0.0,0.0,0.0,0.0,0.0,0.0,0.0,0.0,0.0,0.0,0.0,0.0,0.0,0.0,0.0,0.0,0.0,0.0,0.0,0.0,0.0,0.0,0.0,0.0,0.0,0.0,0.0,0.0,0.0,0.0,0.0,0.0,0.0,0.0,0.0,0.0,0.0,0.0,0.0,0.0,0.0,0.0,0.0,0.0,0.0,0.0,0.0,0.0,0.0,0.0,0.0,0.0,0.0,0.0,0.0,0.0,0.0,0.0,0.0,0.0,0.0,0.0,0.0,0.0,0.0,0.0,0.0,0.0,0.0,0.0,0.0,0.0,0.0,0.0,0.0,0.0,0.0,0.0,0.0,0.0,0.0,0.0,0.0,0.0,0.0,0.0,0.0,0.0,0.0,0.0,0.0,0.0,0.0,0.0,0.0,0.0,0.0,0.0,0.0,0.0,0.0,0.0,0.0,0.0,0.0,0.0,0.0,0.0,0.0,0.0,0.0,0.0,0.0,0.0,0.0,0.0,0.0,0.0,0.0,0.0,0.0,0.0,0.0,0.0,0.0,0.0,0.0,0.0,0.0,0.0,0.0,0.0,0.0,0.0,0.0,0.0,0.0,0.0,0.0,0.0,0.0,0.0,0.0,0.0,0.0,0.0,0.0,0.0,0.0,0.0,0.0,0.0,0.0,0.0,0.0,0.0,0.0,0.0,0.0,0.0,0.0,0.0,0.0,0.0,0.0,0.0,0.0,0.0,0.0,0.0,0.0,0.0,0.0,0.0,0.0,0.0,0.0,0.0,0.0,0.0,0.0,0.0,0.0,0.0,0.0,0.0,0.0,0.0,0.0,0.0,0.0,0.0,0.0,0.0,0.0,0.0,0.0,0.0,0.0,0.0,0.0,0.0,0.0,0.0,0.0,0.0,0.0,0.0,0.0,0.0,0.0,0.0,0.0,0.0,0.0,0.0,0.0,0.0,0.0,0.0,0.0,0.0,0.0,0.0,0.0,0.0,0.0,0.0,0.0,0.0,0.0,0.0,0.0,0.0,0.0,1.3589,0.0,0.0,0.0,0.0,0.0,0.0,0.0,0.0,0.0,0.0,0.0,0.0,0.0,0.0,0.0,0.0,0.0,0.0,0.0,0.0,0.0,0.0,0.0,0.0,0.2797,0.2946,0.3357,0.3388,0.0,0.0,0.0,0.0,0.0,0.0,0.0,0.0,0.0,0.3895,0.47,0.5117,0.5985,0.7231,0.6356,0.5717,0.5257,0.0,0.0,0.0,0.0,0.0,0.0,0.0,0.0,0.0,0.0,0.0,0.0,0.0,0.0,0.0,0.0,0.0,0.0,0.0,0.0,0.0,0.0,0.0,0.0,0.0,0.0,0.0,0.0,0.0,0.0,0.0,0.0,0.0,0.0,0.0,0.0,0.0,0.0,0.0,0.0,0.0,0.0,0.0,0.0,0.0,0.0,0.0,0.0,0.0,0.0,0.0,0.0,0.0,0.0,0.0,0.0,0.0,0.0,0.0,0.0,0.0,0.0,0.0,0.0,0.0,0.0,0.0,0.0,0.0,0.0,0.0,1.44,0.0,0.0,0.0,0.0,0.0,0.0,0.0,0.0,0.0,0.0,0.0,0.0,0.0,0.0,0.0,0.0,0.0,0.0,0.0,0.0,0.0,0.2752,0.2866,0.3175,0.3534,0.3924,0.3903,0.3973,0.4185,0.3878,0.0,0.0,0.0,0.0,0.3569,0.3649,0.447,0.6046,0.6565,0.7648,0.9208,0.9208,0.881,0.8036,0.6887,0.0,0.0,0.0,0.0,0.0,0.0,0.0,0.0,0.0,0.0,0.0,0.0,0.0,0.0,0.0,0.0,0.0,0.0,0.0,0.0,0.0,0.0,0.0,0.0,0.0,0.0,0.0,0.0,0.0,0.0,0.0,0.0,0.0,0.0,0.0,0.0,0.0,0.0,0.0,0.0,0.0,0.0,0.0,0.0,0.0,0.0,0.0,0.0,0.0,0.0,0.0,0.0,0.0,0.0,0.0,0.0,0.0,0.0,0.0,0.0,0.0,0.0,0.0,1.7983,1.8853,1.8894,1.957,2.096,2.2668,1.9457,1.8676,1.9467,1.6608,0.0,0.0,0.0,0.0,0.0,0.0,0.0,0.0,0.0,0.0,0.0,0.0,0.0,0.0,0.0,0.0,0.0,0.0,0.0,0.2981,0.3515,0.3861,0.4325,0.4944,0.4733,0.4582,0.4621,0.4256,0.0,0.0,0.0,0.3605,0.3838,0.4241,0.505,0.6256,0.8827,1.0633,1.1632,1.1632,1.1633,1.1542,0.9499,0.8446,0.8178,0.0,0.0,0.0,0.0,0.0,0.0,0.0,0.0,0.0,0.0,0.0,0.0,0.0,0.0,0.0,0.0,0.0,0.0,0.0,0.0,0.0,0.0,0.0,0.0,0.0,0.0,0.0,0.0,0.0,0.0,0.0,0.0,0.0,0.0,0.0,0.0,0.0,0.0,0.0,0.0,0.0,1.3897,1.5225,0.0,0.0,0.0,0.0,0.0,0.0,0.0,0.0,0.0,0.0,0.0,0.0,0.0,1.68,1.8078,1.9488,2.0552,2.1261,2.294,2.3833,2.3936,2.411,2.4359,2.4632,2.4118,0.0,2.189,2.0866,0.0,0.0,0.0,0.0,0.0,0.0,0.0,0.0,0.0,0.0,0.0,0.0,0.0,0.0,0.0,0.0,0.0,0.0,0.0,0.0,0.0,0.527,0.5776,0.6222,0.6165,0.594,0.5564,0.5025,0.0,0.0,0.3894,0.4006,0.4508,0.5204,0.6608,0.8771,1.1011,1.2308,1.2713,1.2805,1.2851,1.2865,1.1969,1.0954,0.984,0.9163,0.0,0.0,0.0,0.0,0.0,0.0,0.0,0.0,0.0,0.0,0.0,0.0,0.0,0.0,0.0,0.0,0.0,0.0,0.0,0.0,0.0,0.0,0.0,0.0,0.0,0.0,0.0,0.0,0.0,0.0,0.0,0.0,0.0,0.0,0.0,0.0,0.0,0.0,0.0,1.3738,1.5359,1.6204,1.4573,1.2772,0.0,0.0,0.0,0.0,0.0,0.0,0.0,0.0,0.0,1.9253,1.9276,2.0084,2.1854,2.2599,2.3146,2.3513,2.4762,2.5415,2.5478,2.6046,2.6281,2.6281,2.6281,2.5927,2.5198,2.2982,2.0713,1.8538,0.0,0.0,0.0,0.0,1.7205,1.741,0.0,0.0,0.0,0.0,0.0,0.0,0.0,0.0,0.0,0.0,0.0,0.0,0.5911,0.6561,0.711,0.7476,0.7401,0.7146,0.6738,0.5896,0.5243,0.4902,0.4475,0.4566,0.5235,0.6614,0.8509,1.0927,1.2395,1.3132,1.318,1.329,1.3372,1.342,1.3539,1.2853,1.1551,1.08,0.9897,0.8874,0.0,0.0,0.0,0.0,0.0,0.0,0.0,0.0,0.0,0.0,0.0,0.0,0.0,0.0,0.0,0.0,0.0,0.0,0.0,0.0,0.0,0.0,0.0,0.0,0.0,0.0,0.0,0.0,0.0,0.0,0.0,0.0,0.0,0.0,0.0,0.0,0.0,1.5684,1.6578,1.6697,1.5525,1.3924,0.0,0.0,0.0,0.0,0.0,0.0,1.9004,1.8916,2.0083,2.2832,2.2622,2.3302,2.5049,2.5066,2.5113,2.5207,2.5909,2.6293,2.6402,2.7143,2.7483,2.7465,2.7496,2.763,2.761,2.4972,2.3293,2.2193,2.0887,1.982,1.9208,2.0951,2.1055,2.0951,0.0,0.0,0.0,0.0,0.0,0.0,0.0,0.0,0.0,0.0,0.0,0.6005,0.6915,0.7395,0.7924,0.856,0.8048,0.7786,0.8085,0.6754,0.5952,0.593,0.5301,0.5267,0.5932,0.8678,1.0586,1.1545,1.2455,1.2978,1.3109,1.319,1.329,1.342,1.3539,1.3545,1.3369,1.2089,1.1448,1.1141,0.8936,0.0,0.0,0.0,0.0,0.0,0.0,0.0,0.0,0.0,0.0,0.0,0.0,0.0,0.0,0.0,0.0,0.0,0.0,0.0,0.0,0.0,0.0,0.0,0.0,0.0,0.0,0.0,0.0,0.0,0.0,0.0,0.0,0.0,0.0,0.0,0.0,0.0,0.0,1.6845,1.7011,0.0,0.0,0.0,0.0,1.7006,1.8388,1.9976,2.1709,2.3045,2.4258,2.5374,2.6082,2.6471,2.6589,2.6589,2.6738,2.7078,2.7172,2.7404,2.7722,2.7883,2.7954,2.7968,2.8034,2.8075,2.8043,2.7624,2.6299,2.4533,2.4432,2.3535,2.2431,2.3929,2.5102,2.6145,0.0,0.0,0.0,0.337,0.3501,0.3645,0.3736,0.4039,0.446,0.5018,0.6017,0.6965,0.7714,0.8326,0.8824,0.9248,0.9366,0.9314,0.9043,0.8145,0.7865,0.8413,0.747,0.7779,0.9577,1.0605,1.1555,1.2436,1.2749,1.2929,1.2978,1.3089,1.319,1.329,1.3409,1.3515,1.3579,1.3456,1.2872,1.1966,1.146,0.9901,0.0,0.0,0.0,0.0,0.0,0.0,0.0,0.0,0.0,0.0,0.0,0.0,0.0,0.0,0.0,0.0,0.0,0.0,0.0,0.0,0.0,0.0,0.0,0.0,0.0,0.0,0.0,0.0,0.0,0.0,0.0,0.0,0.0,0.0,0.0,0.0,0.0,1.8128,1.763,0.0,1.6228,1.7552,1.8996,2.0234,2.2235,2.3884,2.4972,2.5495,2.5932,2.6302,2.6771,2.7021,2.7021,2.7227,2.7398,2.7519,2.758,2.7683,2.7803,2.7883,2.7954,2.7996,2.8024,2.8188,2.8399,2.8326,2.7727,2.6892,2.6892,2.6565,2.6192,2.694,2.7447,2.7888,0.0,0.0,0.0,0.3776,0.3971,0.4188,0.4406,0.4842,0.5334,0.5861,0.6865,0.7786,0.8458,0.9177,0.9688,0.9858,1.0362,1.0629,1.05,0.9576,0.9413,1.0263,0.9328,0.9665,1.1567,1.19,1.2387,1.3096,1.3317,1.3421,1.3421,1.3586,1.361,1.3512,1.3644,1.3659,1.3644,1.4163,1.3861,1.3003,1.3054,1.1785,0.9851,0.0,0.0,0.0,0.0,0.0,0.0,0.0,0.0,0.0,0.0,0.0,0.0,0.0,0.0,0.0,0.0,0.0,0.0,0.0,0.0,0.0,0.0,0.0,0.0,0.0,0.0,0.0,0.0,0.0,0.0,0.0,0.0,0.0,0.0,0.0,1.9171,1.8542,1.8594,1.8488,1.8025,1.998,2.1828,2.3126,2.4935,2.6184,2.6674,2.6808,2.6874,2.6874,2.718,2.7369,2.7369,2.7597,2.776,2.7844,2.7886,2.7957,2.8073,2.8138,2.8188,2.8246,2.8259,2.843,2.8706,2.8682,2.8551,2.8373,2.8399,2.8399,2.8425,2.8651,2.8731,2.8755,0.0,0.0,0.3923,0.4005,0.4392,0.4848,0.5253,0.5599,0.6155,0.7085,0.7778,0.8451,0.9126,0.9928,1.0403,1.0403,1.0905,1.1567,1.2348,1.0986,1.05,1.1289,1.0732,1.0792,1.1665,1.2494,1.313,1.3525,1.4113,1.441,1.44,1.4672,1.4558,1.4103,1.4229,1.4045,1.3634,1.4163,1.4373,1.4343,1.3572,1.3254,1.3004,0.0,0.0,0.0,0.0,0.0,0.0,0.0,0.0,0.0,0.0,0.0,0.0,0.0,0.0,0.0,0.0,0.0,0.0,0.0,0.0,0.0,0.0,0.0,0.0,0.0,0.0,0.0,0.0,0.0,0.0,0.0,0.0,0.0,1.8885,1.9416,1.9384,1.8117,2.0001,2.1017,1.9977,2.2629,2.4785,2.5559,2.6302,2.6708,2.6708,2.7021,2.7197,2.7213,2.7552,2.7698,2.7698,2.773,2.7855,2.8116,2.8116,2.8299,2.86,2.8675,2.8694,2.8694,2.8773,2.8834,2.8893,2.8822,2.8834,2.8905,2.8964,2.8994,2.8994,2.9005,2.9005,2.9005,0.3192,0.3417,0.3772,0.4274,0.4595,0.4968,0.5578,0.5953,0.6412,0.7114,0.7778,0.8451,0.9126,0.9928,1.0403,1.0403,1.1293,1.2059,1.259,1.1715,1.1433,1.1943,1.2376,1.2871,1.3393,1.3359,1.3606,1.4143,1.4324,1.4453,1.4539,1.4619,1.4454,1.4093,1.4143,1.3947,1.361,1.3763,1.4046,1.4444,1.4897,1.4361,1.3288,0.0,0.0,0.0,0.0,0.0,0.0,0.0,0.0,0.0,0.0,0.0,0.0,0.0,0.0,0.0,0.0,0.0,0.0,0.0,0.0,0.0,0.0,0.0,0.0,0.0,0.0,0.0,0.0,0.0,0.0,0.0,0.0,1.9145,1.9808,2.0457,2.105,2.1441,2.1856,2.2572,2.371,2.4609,2.5479,2.6336,2.659,2.6808,2.7053,2.7149,2.7307,2.755,2.784,2.7992,2.7992,2.8219,2.8401,2.8448,2.8448,2.8505,2.86,2.8625,2.8644,2.8694,2.8706,2.8773,2.8822,2.8798,2.881,2.8834,2.8905,2.8929,2.8929,2.8982,2.9005,2.9005,0.3192,0.3467,0.387,0.4414,0.4659,0.5031,0.5696,0.6091,0.6566,0.7311,0.7997,0.8648,0.9292,1.0201,1.0753,1.0753,1.1937,1.278,1.3016,1.2623,1.249,1.273,1.3242,1.3685,1.4094,1.4072,1.425,1.4641,1.4884,1.5112,1.5219,1.5311,1.5028,1.4491,1.4491,1.4157,1.3597,1.3597,1.3787,1.414,1.4903,1.4914,1.4478,1.4481,1.401,1.3235,1.2636,1.2353,1.227,1.2364,0.0,0.0,0.0,0.0,0.0,0.0,0.0,0.0,0.0,0.0,0.0,0.0,0.0,0.0,0.0,0.0,0.0,0.0,0.0,0.0,0.0,0.0,0.0,0.0,1.999,2.0833,2.172,2.1918,2.2209,2.2872,2.3028,2.3736,2.5296,2.543,2.5798,2.664,2.6691,2.6841,2.7181,2.7338,2.755,2.7855,2.8147,2.8313,2.8313,2.8505,2.86,2.86,2.86,2.86,2.86,2.86,2.8625,2.8662,2.8662,2.87,2.8761,2.8724,2.8737,0.0,0.0,0.0,0.0,0.0,2.9005,2.9005,0.3192,0.3584,0.4039,0.443,0.4645,0.4989,0.5698,0.6104,0.6676,0.7574,0.8282,0.8926,0.9548,1.0558,1.12,1.12,1.2649,1.3574,1.3574,1.3623,1.3603,1.3516,1.3555,1.3753,1.4172,1.459,1.4898,1.5087,1.5637,1.599,1.6142,1.6316,1.5915,1.4997,1.4997,1.448,1.3597,1.3597,1.3597,1.3634,1.4116,1.496,1.5792,1.4721,1.4964,1.5622,1.3895,1.3588,1.3951,1.3593,0.0,0.0,0.0,0.0,0.0,0.0,0.0,0.0,0.0,0.0,0.0,0.0,0.0,0.0,0.0,0.0,0.0,0.0,0.0,0.0,0.0,0.0,0.0,0.0,2.1882,2.3207,2.3901,2.3503,2.3171,2.3217,2.3799,2.4579,2.5513,2.5597,2.5916,2.664,2.6725,2.6907,2.7244,0.0,0.0,0.0,0.0,2.8562,2.86,2.86,2.86,2.86,2.86,2.86,2.86,2.86,2.86,2.86,2.86,2.8637,2.8682,2.8625,2.865,2.8706,2.8846,2.8893,2.8917,2.8982,2.9005,2.9005,0.3192,0.3285,0.3596,0.4364,0.4487,0.4782,0.5667,0.627,0.6888,0.7603,0.8282,0.8926,0.9548,1.0558,1.12,1.12,1.2909,1.3987,1.3987,1.4346,1.4228,1.3535,1.3802,1.4192,1.4648,1.4746,1.5102,1.5726,1.5845,1.6058,1.6345,1.6374,1.5915,1.4997,1.4997,1.448,1.3597,1.3597,1.3597,1.361,1.3716,1.4177,1.4835,1.5026,1.5545,1.6147,1.5788,1.6007,1.6558,1.6954,1.6104,1.4915,1.5133,1.4136,0.0,0.0,0.0,0.0,0.0,0.0,0.0,0.0,0.0,0.0,0.0,0.0,0.0,0.0,0.0,0.0,0.0,0.0,0.0,2.1388,2.2619,2.3538,2.3951,2.4398,2.4679,2.4696,2.4812,2.5228,2.6064,2.6233,2.6386,2.6589,2.6924,2.726,2.7597,2.7654,2.7961,2.8492,2.8295,2.8326,2.86,2.86,2.86,2.86,0.0,0.0,2.86,2.86,2.86,2.86,2.86,2.86,2.8625,2.86,2.865,2.8706,2.8785,2.8858,2.8917,2.8982,2.9005,2.9005,0.3245,0.3444,0.3799,0.4445,0.4584,0.4871,0.5682,0.6051,0.6596,0.7567,0.8282,0.8926,0.9548,1.031,1.0822,1.0878,1.2271,1.3334,1.3763,1.4023,1.4043,1.3802,1.4228,1.4658,1.5088,1.5098,1.533,1.5798,1.5798,1.5914,1.6144,1.6144,1.5693,1.4892,1.4892,1.4429,1.3597,1.3597,1.3597,1.3597,1.3597,1.3766,1.4084,1.4421,1.513,1.593,1.5666,1.6139,1.6901,1.7196,1.6818,1.6282,1.6493,1.5582,1.4261,0.0,0.0,0.0,0.0,0.0,0.0,0.0,0.0,0.0,0.0,0.0,0.0,0.0,0.0,1.69,0.0,0.0,2.0909,2.2448,2.3425,2.4198,2.4733,2.5111,2.5298,2.5178,2.5477,2.5878,2.6349,2.6468,2.6537,2.6589,2.694,2.7307,2.7686,2.7701,2.7901,2.8339,2.8201,2.817,2.8352,2.8518,2.86,2.86,2.86,2.86,2.86,2.86,2.86,2.86,2.86,2.86,2.86,2.86,2.8625,2.8662,2.8724,2.8798,2.8858,2.8929,2.894,2.8952,0.3327,0.37,0.4151,0.4538,0.4736,0.5055,0.5698,0.5847,0.6331,0.753,0.8224,0.8831,0.946,0.9933,1.0433,1.0917,1.1663,1.2522,1.3539,1.3633,1.374,1.3977,1.4512,1.4941,1.5283,1.5371,1.5507,1.5701,1.5701,1.5719,1.5783,1.5783,1.5383,1.467,1.467,1.4271,1.3597,1.3597,1.3597,1.3597,1.3597,1.3597,1.361,1.3716,1.4456,1.5365,1.5005,1.5579,1.65,1.65,1.6808,1.7199,1.7199,1.6571,1.5754,1.5333,1.4862,0.0,0.0,0.0,0.0,0.0,0.0,0.0,0.0,0.0,1.5879,1.7004,1.7681,1.8419,1.9624,2.0868,2.2062,2.318,2.401,2.4756,2.5489,2.5605,2.5507,2.5291,2.5842,2.6277,2.6433,2.645,2.6486,2.6537,2.6858,2.7211,2.755,2.758,2.7728,2.8006,2.802,2.8047,2.8102,2.8435,2.86,2.86,2.86,2.86,2.86,2.86,2.86,2.86,2.86,2.86,2.86,2.86,2.86,2.86,2.8662,2.8724,2.8761,2.8858,2.8893,2.8917,0.345,0.38,0.4188,0.4532,0.4812,0.5166,0.5713,0.6061,0.6588,0.758,0.8034,0.8502,0.9178,0.9461,1.0302,1.2052,1.1926,1.2387,1.3931,1.4036,1.389,1.3594,1.4355,1.4805,1.4882,1.5215,1.5507,1.5701,1.5701,1.5588,1.5356,1.5356,1.4935,1.4175,1.4175,1.3963,1.3597,1.3597,1.3597,1.3597,1.3597,1.3597,1.3597,1.3621,1.4118,1.4789,1.4744,1.55,1.65,1.65,1.6808,1.7199,1.7199,1.7107,1.701,1.7006,1.6672,1.6218,1.5733,1.5125,1.4763,1.5398,1.5239,1.5533,0.0,0.0,1.7537,1.8901,1.9474,1.9847,2.0252,2.1078,2.2025,2.3055,2.3939,2.476,2.5489,2.5605,2.5591,2.5566,2.5795,2.6025,2.6203,2.6293,2.633,2.633,2.6691,2.6987,2.7149,2.7182,2.7336,2.7728,2.7742,2.7855,2.8102,2.8435,2.86,2.86,2.86,2.86,2.86,2.86,2.86,2.86,2.86,2.86,2.86,2.86,2.86,2.86,2.86,2.8612,2.8637,2.8761,2.8846,2.8905,0.3483,0.4043,0.4552,0.4692,0.4962,0.5314,0.5743,0.5913,0.6353,0.7289,0.7691,0.8099,0.856,0.8758,0.9354,1.061,1.1035,1.1715,1.2865,1.3452,1.3691,1.3516,1.4082,1.4521,1.4775,1.4707,1.4823,1.5172,1.4888,1.4727,1.4594,1.4594,1.4374,1.3988,1.3988,1.3834,1.3597,1.3597,1.3597,1.3597,1.3597,1.3597,1.3597,1.3597,1.4012,1.4639,1.4987,1.5695,0.0,1.6821,1.7275,1.7656,1.7303,1.7199,1.722,1.724,1.7431,1.7651,1.7739,1.7327,1.6872,0.0,1.7228,1.7751,1.8469,1.8794,1.912,1.9873,2.0135,2.0323,2.0579,2.1609,2.2532,0.0,2.4021,2.4888,2.5211,2.5243,2.5298,2.5413,2.5489,2.5675,2.5989,2.6151,2.6276,2.6295,2.6641,2.6873,2.6971,2.6987,2.71,2.7353,2.7353,2.7519,2.7855,2.8161,2.8409,2.86,2.86,2.86,2.86,2.86,2.8853,2.93,2.93,2.9554,3.0007,3.0007,2.9717,2.93,2.93,2.8998,2.8612,2.8712,2.8755,2.8791,0.3532,0.4124,0.467,0.4782,0.5081,0.5419,0.5749,0.5796,0.6131,0.7078,0.7414,0.7647,0.7909,0.801,0.8346,0.9017,0.9958,1.0929,1.1914,1.2742,1.3253,1.334,1.3714,1.4085,1.4424,1.4211,1.426,1.4609,1.426,1.4046,1.3938,1.3938,1.3844,1.3676,1.3691,1.3648,1.3549,1.3586,1.3597,1.3597,1.3597,1.3597,1.3597,1.3597,1.3782,1.4113,1.4893,1.5695,1.6433,1.6475,1.707,1.7678,1.6963,1.695,1.7264,1.7578,1.8122,1.8612,1.8685,1.854,0.0,1.766,1.8424,1.9178,1.8657,1.9295,2.0078,2.0342,2.0461,2.0562,2.0761,2.1807,2.2693,2.2866,2.391,2.4764,2.4954,2.5005,2.5045,2.5217,2.5275,2.541,2.5712,2.597,2.6133,2.6189,2.6469,2.6657,2.6724,2.6724,2.6808,2.6924,2.7005,2.7195,2.7537,2.788,2.8201,2.8448,2.8562,2.86,2.86,2.86,2.9047,2.9802,2.9802,3.0255,3.0998,3.0998,3.0672,3.0129,3.0129,2.9771,2.9264,2.9315,2.9063,2.8706,0.3586,0.394,0.4333,0.4734,0.5081,0.5419,0.5749,0.5796,0.6131,0.7078,0.7216,0.7231,0.7238,0.7231,0.7458,0.7988,0.8969,1.0115,1.1532,1.2198,1.2651,1.292,1.3301,1.3525,1.3545,1.3909,1.4114,1.4124,1.4114,1.3899,1.3525,1.3525,1.3376,1.3119,1.3176,1.33,1.3409,1.3539,1.3597,1.3597,1.3597,1.3597,1.3597,1.3597,1.3244,1.2914,1.4113,1.5255,1.6053,1.5011,1.5724,1.6855,1.5853,1.631,1.7421,1.8532,1.8953,1.8878,1.7993,1.7868,1.7891,1.7424,1.8078,1.8884,1.9118,1.9606,2.0078,2.0342,2.0596,2.0794,2.0794,2.141,2.2137,2.2787,2.348,2.4191,2.4891,2.5005,2.5005,2.5005,2.5178,2.5314,0.0,2.5675,2.5915,2.5899,2.6114,2.624,2.6296,2.633,2.6382,2.6502,2.6774,2.6971,2.7119,2.771,2.8051,2.8116,2.8435,2.86,2.86,2.86,2.9047,2.9802,2.9802,3.0255,3.0998,3.0998,3.0998,3.0962,3.0962,3.0962,3.0926,3.0926,2.9987,2.8706,0.3971,0.4105,0.4291,0.461,0.4828,0.5081,0.5419,0.5655,0.5994,0.6537,0.6757,0.0,0.0,0.0,0.0,0.0,0.8961,0.9864,1.0756,1.1613,1.2257,1.2614,1.2855,1.3148,1.3496,1.3369,1.3437,1.3695,1.3437,1.3232,1.3096,1.3096,1.3091,1.3109,1.3113,1.319,1.329,1.3409,1.3467,1.3491,1.3563,1.3597,1.3659,1.4304,1.4219,1.3835,0.0,1.4836,1.5106,1.5774,1.6209,1.6345,1.5614,1.5685,1.6304,1.7539,1.8244,1.8605,1.8355,1.8221,1.8094,1.794,1.8378,1.8964,1.9314,1.9681,2.0052,2.051,2.1346,2.1864,2.1464,2.3085,2.4265,2.3607,2.4516,2.5219,2.5017,2.5005,2.5005,2.5005,2.5045,0.0,0.0,0.0,0.0,2.5881,2.5952,2.6061,2.6222,2.6222,2.6276,2.6365,2.6453,2.664,2.6971,2.7177,2.7527,2.8037,2.8427,2.8871,2.9391,2.9391,3.0133,3.1397,3.1397,3.1836,3.2596,3.2596,3.227,3.1799,3.1799,3.1143,3.0201,3.0201,2.9531,2.8722,0.4238,0.4266,0.4364,0.4657,0.4825,0.0,0.0,0.0,0.0,0.0,0.0,0.0,0.0,0.0,0.0,0.0,0.0,0.9416,0.9874,1.0814,1.1548,1.2024,1.2017,1.236,1.3128,1.2694,1.285,1.3704,1.3164,1.3062,1.332,1.3018,1.2954,1.3027,1.3085,1.3113,1.3166,1.3266,1.3555,1.3879,1.3625,1.3666,1.3865,1.4159,1.3811,0.0,1.3545,1.3423,1.3362,1.4525,1.5038,1.5144,1.4771,1.5297,1.6205,1.7031,1.76,1.8009,1.8137,1.8064,1.7969,1.8023,1.8352,1.8736,1.9109,1.9482,1.9879,2.0309,2.1071,2.1629,2.1655,2.3229,2.4411,2.4131,2.5109,2.5868,2.5699,2.5447,2.5309,2.5349,2.5144,2.5005,0.0,0.0,0.0,2.577,2.5862,2.5989,2.6185,2.6202,2.6221,2.6259,2.6259,2.6401,2.6674,2.679,2.7345,2.8333,2.8744,2.9367,3.0125,3.0193,3.0962,3.2198,3.2198,3.2651,3.3393,3.3393,3.3103,3.2632,3.2632,3.1999,3.1089,3.1089,3.0586,2.9844,0.4413,0.4418,0.45,0.0,0.0,0.0,0.0,0.0,0.0,0.0,0.0,0.0,0.0,0.0,0.0,0.0,0.0,0.0,0.8981,0.9851,1.0585,1.1124,1.0915,1.1307,1.2373,1.1874,1.2353,1.3956,1.3221,1.3241,1.3973,1.3252,1.2905,1.2905,1.3027,1.3085,1.3085,1.3166,1.3765,1.4563,1.3695,1.3666,1.4051,1.3225,1.2247,1.137,1.1493,1.1308,1.1095,1.1615,1.2545,1.3497,1.357,1.5131,1.6925,1.6972,1.7081,1.7253,1.7363,1.744,1.7516,1.7659,1.7942,1.8248,1.8514,1.9035,1.9518,1.9829,1.9927,2.0292,0.0,0.0,2.284,2.4367,2.5305,2.6094,2.6753,2.6251,2.5837,0.0,0.0,0.0,0.0,0.0,0.0,2.5549,0.0,2.5952,2.6168,2.6168,2.6185,2.6202,2.6202,2.6222,2.6295,2.6641,2.7459,2.8795,2.9294,2.9942,3.0697,3.0924,3.1478,3.2252,3.2252,3.2687,3.3393,3.3393,3.3393,3.3393,3.3393,3.3375,3.3339,3.3339,3.2832,3.1813,0.0,0.0,0.0,0.0,0.0,0.0,0.0,0.0,0.0,0.0,0.0,0.0,0.0,0.0,0.0,0.0,0.0,0.0,0.8753,0.9275,0.9795,1.0278,1.0537,1.0845,1.123,1.1268,1.1501,1.1953,1.2168,1.241,1.2607,1.2806,1.2905,1.2905,1.2929,1.2954,1.2954,1.3065,1.2902,1.2551,1.2467,1.2341,1.2262,1.2717,1.252,1.1956,1.1897,1.1564,1.135,1.2671,1.3849,1.4743,1.4817,1.5329,1.5984,1.6427,1.6939,1.735,1.7384,1.744,1.7496,1.755,1.7686,1.7909,1.8299,1.8577,1.8945,1.9684,2.0262,2.0803,0.0,0.0,0.0,2.4605,2.5864,0.0,2.6283,2.6078,0.0,2.5318,0.0,2.5005,2.5005,2.5005,0.0,0.0,2.5413,2.5619,2.5952,2.597,2.6059,2.6202,2.6202,2.6203,2.6239,2.6607,2.6992,2.7343,2.8326,2.938,3.0493,3.1097,3.2011,3.3085,3.3085,3.3212,3.3393,3.3393,3.3393,3.3393,3.3393,3.3031,3.2506,3.2506,3.1999,3.1143,0.0,0.0,0.0,0.0,0.0,0.0,0.0,0.0,0.0,0.0,0.0,0.0,0.0,0.0,0.0,0.0,0.0,0.0,0.0,0.8475,0.8845,0.9406,0.9518,0.9832,1.0438,1.0163,1.0472,1.1376,1.117,1.1368,1.1874,1.1794,1.1756,1.176,1.176,1.176,1.176,1.1827,1.1834,0.0,0.0,1.1583,1.1819,1.1964,1.1849,1.1593,1.1312,1.1545,1.2162,1.3202,1.4243,1.514,1.5222,1.5685,1.6211,1.6569,1.6977,1.7308,1.7308,1.7378,1.7461,1.7461,1.7522,1.7672,1.7902,1.8133,1.8401,1.8658,1.9214,1.9748,2.0068,2.1881,2.3495,0.0,0.0,0.0,2.6319,2.6052,2.5738,0.0,2.5075,0.0,2.4906,2.4982,2.506,0.0,2.5256,2.5448,2.5752,2.5844,2.5952,2.6061,2.615,2.6202,2.6202,2.6538,2.7029,2.769,2.8526,2.9767,3.1274,3.1799,3.2532,3.3393,0.0,3.3393,3.3393,3.3393,3.3393,3.3393,3.3393,3.3121,3.2723,3.2723,3.2433,3.1981,0.0,0.0,0.0,0.0,0.0,0.0,0.0,0.0,0.0,0.6406,0.6392,0.6453,0.0,0.0,0.0,0.0,0.0,0.0,0.0,0.0,0.7968,0.8531,0.8334,0.8686,0.9739,0.8945,0.9399,1.1229,1.0181,1.0211,1.1159,1.0478,1.0128,1.0098,1.0117,1.0166,1.0215,1.0215,1.0676,1.1372,1.0674,1.0973,1.1727,0.0,1.0778,1.084,1.0518,1.1438,1.2896,1.3455,1.4339,1.5247,1.5351,1.6129,1.6981,1.7002,1.7073,1.7178,1.7199,1.7274,1.737,1.737,1.7419,1.7488,1.7488,1.77,1.7799,1.7384,1.7562,1.7911,1.8335,1.9845,2.1515,2.3049,0.0,2.5879,2.6476,2.6065,2.5659,2.5571,2.5102,2.4782,2.4782,2.4866,2.4946,2.4966,2.5139,2.5317,2.5565,2.5733,2.5844,2.5897,2.6096,2.6202,2.6202,2.6533,2.7344,2.8624,2.9193,3.0422,3.2176,3.2433,3.2864,3.3364,3.3364,3.3364,3.3393,3.3393,3.3393,3.3393,3.3393,3.3393,3.3393,3.3393,3.3393,3.3375,0.0,0.0,0.0,0.0,0.0,0.0,0.0,0.0,0.0,0.0,0.6904,0.6746,0.0,0.0,0.0,0.0,0.0,0.0,0.0,0.0,0.0,0.788,0.8085,0.8298,0.8498,0.8625,0.8828,0.9203,0.9164,0.9095,0.904,0.9288,0.9244,0.8993,0.9159,0.9406,0.9728,0.9728,0.9629,0.9469,0.94,0.9534,0.9795,0.9702,0.0,0.0,1.126,1.1576,1.2114,1.3822,1.5313,1.6405,1.6426,1.6659,1.6918,1.6981,1.7023,1.7065,1.7178,1.722,1.722,1.722,1.7316,1.7425,1.7425,1.7183,0.0,1.7258,1.668,1.6498,1.7763,1.8815,2.02,2.247,2.3973,2.5113,2.5795,2.5774,2.5477,0.0,2.4708,2.463,2.463,2.465,0.0,0.0,2.4862,2.5005,2.5352,2.5391,2.5562,2.5897,2.6096,2.6202,2.6202,2.6854,2.7306,2.759,2.8829,2.9939,3.0924,3.1583,3.2351,3.3147,3.3147,0.0,3.3393,3.3393,3.3393,3.3393,3.3393,3.3393,3.3393,3.3393,3.3393,3.3302,0.0,0.0,0.0,0.0,0.0,0.0,0.0,0.6127,0.6848,0.8103,0.8129,0.793,0.775,0.7122,0.6833,0.0,0.0,0.0,0.0,0.0,0.0,0.718,0.7341,0.7421,0.7421,0.7434,0.7527,0.7654,0.0,0.7581,0.7576,0.7981,0.807,0.7934,0.8204,0.8314,0.8295,0.8295,0.8188,0.8018,0.8073,0.8588,0.9315,0.9372,0.0,0.0,1.1436,1.2072,1.2792,1.3527,1.504,1.6611,1.6751,1.6846,1.6897,1.6939,1.6939,1.696,1.7044,1.7086,1.7094,1.7094,1.7191,1.7308,1.7308,0.0,0.0,1.633,1.5487,1.4972,1.5858,1.7238,1.8672,2.0076,2.2243,2.3871,2.4204,2.4725,2.4916,2.4493,2.4503,2.4544,2.4544,2.4569,2.463,2.4686,2.4762,2.4902,2.5139,2.5236,2.547,2.5897,2.5989,2.6096,2.6202,2.6551,2.7098,2.7879,2.8575,2.9607,3.0976,3.1485,3.2144,3.2896,3.3039,3.3211,3.3393,3.3393,3.3393,3.3393,3.3393,3.3393,3.3393,3.3393,3.3393,3.3339,0.0,0.0,0.0,0.0,0.0,0.0,0.0,0.6395,0.7192,0.8896,0.9166,0.9059,0.8594,0.7675,0.7154,0.0,0.0,0.0,0.0,0.0,0.0,0.0,0.0,0.0,0.0,0.0,0.0,0.6811,0.6526,0.0,0.0,0.0,0.0,0.0,0.7248,0.7252,0.6953,0.6953,0.7012,0.0,0.0,0.8014,0.0,0.0,0.0,0.0,0.0,1.2457,1.3379,1.3313,1.4472,1.5993,1.6501,1.6735,1.6837,1.6995,1.6944,1.6867,1.6876,1.6939,1.7002,1.7002,1.7094,1.7173,1.7055,1.6127,1.5265,1.5147,1.4219,1.3569,1.4098,1.562,1.7024,1.7795,2.0324,2.235,2.2803,2.3662,2.4313,2.4487,2.4472,0.0,2.4457,2.4503,0.0,2.4584,2.4686,2.4826,2.4985,2.5197,2.5432,2.5768,2.586,2.597,2.6132,2.65,2.7247,2.8392,2.8707,2.9733,3.1353,3.1564,3.2021,3.2685,3.2961,3.3165,3.3334,3.3378,3.3393,3.3393,3.3393,3.3393,3.3393,3.3393,3.3393,3.3393,0.0,0.0,0.0,0.0,0.0,0.0,0.0,0.6967,0.8015,0.9291,0.9349,0.9391,0.9616,0.8912,0.8187,0.0,0.0,0.0,0.0,0.0,0.0,0.0,0.0,0.0,0.0,0.0,0.0,0.7165,0.6819,0.0,0.0,0.0,0.0,0.0,0.0,0.6504,0.6475,0.6475,0.0,0.0,0.0,0.0,0.0,0.0,0.0,0.0,0.0,1.2318,1.2614,1.3845,1.4125,1.4172,1.5503,1.6194,1.6665,1.7267,1.7099,1.674,1.6854,1.6939,1.7002,1.7002,1.7094,1.7068,1.6584,1.5539,1.4533,1.4066,1.3001,1.2505,1.3641,1.436,1.5338,1.7084,1.8848,2.0644,2.2465,2.3127,2.3876,2.505,0.0,0.0,2.4317,2.4323,2.438,2.4498,2.4584,2.4731,2.4985,2.5197,2.5314,2.5352,2.5712,2.5915,2.5934,2.7437,2.8276,2.8426,2.9698,3.0724,3.1466,3.1504,3.1912,3.2605,3.2818,3.3011,0.0,3.3334,3.3393,3.3393,3.3393,3.3393,3.3393,3.3393,3.3393,3.3393,0.0,0.0,0.0,0.0,0.0,0.0,0.6536,0.7027,0.7817,0.93,0.952,0.9487,0.9339,0.9221,0.8804,0.7914,0.0,0.0,0.0,0.0,0.0,0.0,0.0,0.0,0.0,0.0,0.6899,0.6899,0.6768,0.0,0.0,0.0,0.0,0.0,0.0,0.6711,0.6426,0.6709,0.0,0.0,0.0,0.0,0.0,0.0,0.0,0.0,0.0,0.0,1.3116,1.3405,1.3934,1.4563,1.4903,1.5311,1.5898,1.7097,1.7279,1.7062,1.6751,1.6507,1.6335,1.6335,1.6478,1.6536,1.6222,1.5094,1.4019,1.3747,1.2238,1.1434,1.2977,1.3107,1.3612,1.5483,1.6876,1.8343,2.0148,2.1186,2.2306,2.3846,2.383,0.0,0.0,0.0,2.4359,2.4498,2.4523,2.4605,2.4751,2.4906,2.51,2.5294,2.5467,2.587,2.6571,2.7221,2.8026,2.9003,2.9782,3.0519,3.1213,3.1579,3.1966,3.2386,3.2737,3.2979,0.0,3.3319,3.3393,3.3393,3.3393,3.3393,3.3393,3.3393,3.3393,3.3393,0.0,0.0,0.0,0.0,0.0,0.5639,0.6687,0.6963,0.7546,0.8979,0.9142,0.9063,0.8823,0.8836,0.863,0.8041,0.7663,0.0,0.0,0.0,0.0,0.0,0.0,0.0,0.0,0.0,0.6848,0.6848,0.6848,0.675,0.0,0.0,0.6852,0.6861,0.0,0.0,0.0,0.0,0.0,0.0,0.0,0.0,0.0,0.0,0.0,0.0,0.0,0.0,0.0,0.0,0.0,1.4569,1.4495,1.4774,1.5452,1.7176,1.7331,1.6943,1.6992,1.6469,1.5894,1.5894,1.601,1.5988,1.5396,1.4464,1.3568,1.2984,1.1509,1.073,1.2143,1.2179,1.2546,1.423,1.5548,1.7046,1.8953,1.9855,2.1045,2.3031,0.0,2.3036,0.0,2.4194,2.4338,2.4421,2.4436,2.4482,2.4564,2.4686,2.4882,2.5139,2.5444,2.5976,2.6786,2.7329,2.8188,2.9316,2.9832,3.0395,3.1015,3.1543,3.1894,3.2144,3.2606,3.2898,0.0,3.3244,3.3349,3.3393,3.3393,3.3393,3.3393,3.3393,3.3393,3.3393,0.0,0.0,0.0,0.0,0.0,0.0,0.6374,0.6839,0.7424,0.8286,0.808,0.7932,0.8265,0.7726,0.7511,0.7953,0.799,0.0,0.0,0.0,0.0,0.0,0.0,0.0,0.0,0.0,0.7202,0.7202,0.7202,0.7202,0.718,0.7206,0.7197,0.7204,0.0,0.0,0.0,0.0,0.0,0.0,0.0,0.0,0.0,0.0,0.0,0.0,0.0,0.0,0.0,0.0,0.0,0.0,0.0,1.4772,1.5612,1.7682,1.7122,1.6163,1.7761,1.7074,1.5894,1.5894,1.5949,1.5569,1.3907,1.356,1.3136,1.1468,1.069,1.0482,1.1109,1.1643,1.2398,1.3605,1.5204,1.7162,1.964,1.966,2.0385,0.0,0.0,2.178,2.3179,2.3917,2.4302,2.4302,2.4302,0.0,2.4498,2.4564,2.465,2.4802,2.5767,2.6294,2.6294,2.8147,2.9091,2.9108,3.0059,3.0675,3.1015,3.1349,3.1654,3.193,3.2403,3.2721,0.0,3.3039,3.3226,3.3393,3.3393,3.3393,3.3393,3.3393,3.3393,3.3393,0.0,0.0,0.0,0.0,0.0,0.0,0.0,0.6437,0.6933,0.7198,0.7325,0.7429,0.7542,0.7488,0.7552,0.7831,0.783,0.0,0.0,0.0,0.0,0.0,0.0,0.0,0.0,0.7486,0.7647,0.7895,0.7895,0.7756,0.7551,0.7532,0.7422,0.7212,0.7369,0.7301,0.0,0.0,0.0,0.0,0.0,0.0,0.0,0.0,0.0,0.0,0.0,0.0,0.0,0.0,0.0,0.0,0.0,0.0,0.0,1.6218,1.71,1.7436,1.7127,1.6983,1.6737,1.5968,1.5848,1.5578,1.4219,1.3745,1.3091,1.1273,1.0534,1.0392,1.0961,1.087,1.162,1.4436,1.5002,1.5954,1.8477,2.0036,2.1298,2.231,2.3376,2.4184,0.0,0.0,2.4302,2.4302,2.4712,2.4995,2.5053,2.5592,2.5804,2.556,2.5898,2.6618,2.7721,2.8319,2.9043,2.9845,3.0336,3.072,3.1015,3.1349,3.1559,3.1635,3.1877,3.2196,3.257,3.275,3.3055,3.3393,3.3393,3.3393,3.3393,3.3393,3.3393,3.3393,0.0,0.0,0.0,0.0,0.0,0.0,0.0,0.5965,0.6324,0.6431,0.6458,0.6655,0.7079,0.713,0.7317,0.7751,0.7801,0.0,0.0,0.0,0.0,0.0,0.0,0.0,0.7808,0.7808,0.8009,0.8423,0.849,0.8641,0.8859,0.8566,0.8342,0.8193,0.7874,0.7577,0.0,0.0,0.0,0.0,0.0,0.0,1.0332,0.0,0.0,0.0,0.0,0.0,0.0,0.0,0.0,0.0,0.0,0.0,0.0,0.0,1.6246,1.7071,1.6638,1.6492,1.6292,1.5588,1.5149,1.4626,1.367,1.3162,1.2429,1.0834,1.0314,1.0264,1.0637,1.0586,1.1284,1.3717,1.4345,1.5485,1.8214,1.9674,2.0776,2.1599,0.0,0.0,0.0,2.441,2.4302,2.4302,2.4702,2.5019,2.5281,2.5821,2.6252,2.6563,2.6671,2.7231,2.8283,2.8642,2.9193,2.9951,3.0284,3.0535,3.0712,3.1117,3.131,3.1332,3.1638,3.1967,0.0,3.2654,3.2977,3.3286,3.3364,3.3393,3.3393,3.3393,3.3393,3.3393,0.0,0.0,0.0,0.0,0.0,0.0,0.0,0.5472,0.5678,0.5906,0.5613,0.5766,0.6859,0.6739,0.6893,0.7752,0.0,0.0,0.0,0.0,0.0,0.0,0.0,0.0,0.7992,0.7977,0.8255,0.8871,0.9035,0.9699,1.0762,1.0058,0.9769,0.9806,0.8921,0.8258,0.0,0.0,0.0,0.0,0.0,1.0332,0.0,0.0,0.0,0.0,0.0,0.0,0.0,0.0,0.0,0.0,0.0,0.0,0.0,0.0,0.0,0.0,0.0,1.562,1.4933,1.4859,1.4011,1.3048,1.2463,1.2014,0.0,1.0236,1.0059,1.0135,1.0277,1.0703,1.1286,1.2095,1.3601,1.5699,1.8657,1.8996,1.9579,0.0,2.2724,0.0,2.3456,2.401,2.4364,2.4302,2.4327,2.4656,2.5266,2.5512,2.6255,2.7649,2.7872,2.8039,2.8173,2.9038,2.947,2.9515,2.9951,3.0167,3.021,3.0712,3.0955,0.0,3.1581,3.1966,3.2231,3.2688,3.2945,3.3117,3.3319,3.3393,3.3393,3.3393,3.3393,3.3393,0.0,0.0,0.0,0.0,0.0,0.0,0.0,0.0,0.0,0.0,0.5723,0.6161,0.6771,0.7047,0.7426,0.0,0.0,0.0,0.0,0.0,0.0,0.0,0.0,0.0,0.7985,0.7744,0.82,0.9408,0.9464,0.9869,1.0642,1.0973,1.0426,0.9224,0.956,0.938,0.0,0.0,0.0,0.0,1.0283,1.0322,0.0,0.0,0.0,0.0,1.148,1.1872,0.0,0.0,0.0,0.0,0.0,0.0,0.0,0.0,1.2893,1.2995,1.3002,0.0,1.5391,1.4513,1.3735,1.2947,0.0,1.1736,1.1363,1.0171,0.9983,1.0275,1.1121,1.0719,1.1185,1.3998,1.4888,1.6032,1.838,2.0666,2.2844,2.4793,2.5413,2.5435,2.4811,2.4931,2.4835,2.4348,2.4795,2.5127,2.5281,2.6356,2.7172,2.7619,2.8241,2.8685,2.8861,2.9088,2.9305,2.9493,2.9605,2.9864,3.0189,3.0338,3.0609,3.0995,3.1154,3.1581,3.2214,3.2437,3.2734,3.3117,3.3319,3.3393,3.3393,3.3393,3.3393,3.3393,0.0,0.0,0.0,0.0,0.0,0.0,0.0,0.0,0.0,0.0,0.0,0.6246,0.6999,0.0,0.0,0.0,0.0,0.0,0.0,0.0,0.0,0.0,0.0,0.7152,0.7664,0.7656,0.8301,0.9645,0.9882,1.0771,1.2259,1.2021,1.1487,1.0705,1.004,0.9676,0.0,0.0,0.0,0.0,1.0458,0.0,0.0,0.0,0.0,0.0,1.1387,1.1725,0.0,1.2728,1.304,1.2982,0.0,0.0,0.0,0.0,1.1825,1.164,1.1597,1.3153,1.4675,1.4219,1.3463,1.2751,1.24,1.158,1.0689,1.0031,0.9919,1.0147,1.0793,1.1316,1.2114,1.3502,1.5883,1.8313,2.0506,2.2398,2.4109,2.5579,2.5516,2.5345,0.0,2.4998,2.4702,2.4333,2.4656,2.4973,2.5281,2.6026,2.6809,2.7611,2.8085,2.8529,2.899,2.9075,2.9167,2.9328,2.9425,2.9627,2.987,2.9979,3.0305,3.0821,3.0982,3.1432,3.2091,3.247,3.2768,3.3024,3.3304,3.3393,3.3393,3.3393,3.3393,3.3393,0.0,0.0,0.0,0.0,0.0,0.0,0.0,0.0,0.0,0.0,0.0,0.0,0.0,0.0,0.0,0.0,0.0,0.0,0.0,0.0,0.0,0.0,0.0,0.7062,0.761,0.7734,0.8488,0.9891,1.0394,1.1789,1.3987,1.3241,1.2888,1.2822,1.0706,0.9856,1.0021,0.0,0.0,0.0,1.064,0.0,0.0,0.0,0.0,0.0,0.0,0.0,0.0,1.2233,1.2491,1.2458,1.2159,0.0,0.0,0.0,0.0,0.0,1.1136,1.2395,1.3594,1.3586,1.2923,1.235,1.2622,1.1247,0.9905,0.9905,0.9905,1.0096,1.0755,1.2153,1.311,1.2816,1.6902,2.0914,2.3236,2.4038,2.4576,2.5114,2.4805,0.0,2.509,2.4712,2.4425,2.4317,2.4302,2.4564,2.5112,2.5342,2.6099,2.7463,2.7742,2.8201,2.8897,2.9029,2.9098,2.9098,2.9312,2.9448,2.9515,2.9677,3.0081,3.0686,3.0985,0.0,3.202,3.2606,3.2868,3.2932,3.3244,3.3364,3.3393,3.3393,3.3393,3.3393,0.0,0.0,0.0,0.0,0.0,0.0,0.0,0.0,0.0,0.0,0.0,0.0,0.0,0.0,0.0,0.0,0.0,0.0,0.0,0.0,0.0,0.738,0.6997,0.7523,0.904,0.8234,0.8796,1.0809,1.1106,1.1911,1.3206,1.4792,1.4788,1.3442,1.2326,1.1191,1.0116,1.0509,0.0,1.0621,1.0602,0.0,0.0,0.0,0.0,0.0,0.0,0.0,0.0,1.159,1.1999,1.1976,1.1255,0.0,0.0,0.0,0.0,0.0,1.1035,1.2467,1.3222,1.1609,1.1475,1.1487,1.0608,1.0131,0.9905,0.9905,0.9905,1.0828,1.3848,1.2757,1.2469,1.5774,1.8446,2.1101,0.0,0.0,2.5821,2.528,0.0,2.5613,2.4489,2.4839,2.4896,2.4348,2.4302,2.4327,2.4456,2.558,2.6341,2.6586,2.7922,2.8685,2.8803,2.8998,2.9098,2.9098,2.9144,2.9282,2.9493,2.9538,3.0097,3.1024,0.0,3.1562,3.2354,3.2574,3.2737,3.2916,3.307,3.3241,3.3393,3.3393,3.3393,3.3393,0.0,0.0,0.0,0.0,0.0,0.0,0.0,0.0,0.0,0.0,0.0,0.0,0.0,0.0,0.0,0.0,0.0,0.0,0.0,0.0,0.0,0.7884,0.792,0.8135,0.8519,0.827,0.9152,1.1265,1.2244,1.3178,1.4088,1.4714,1.4514,1.3545,1.2355,1.1346,1.0555,1.075,1.0813,1.0756,0.0,0.0,0.0,0.0,0.0,0.0,0.0,0.0,0.0,0.0,1.1276,1.1711,1.045,0.0,0.0,0.0,0.0,0.0,0.9977,1.1263,1.2337,1.1846,1.3044,1.4239,1.3785,1.3234,1.273,1.2395,1.2331,1.2938,1.4937,1.5615,1.7249,2.1442,2.1689,2.2183,2.4586,2.4722,2.4738,0.0,0.0,2.5115,2.4823,2.4768,2.462,2.4333,2.4302,2.4471,2.482,2.5456,2.6193,2.7017,2.7798,2.8412,2.8842,2.9266,2.9493,2.9493,2.9236,2.9425,3.0032,2.9788,3.0251,3.1261,0.0,3.1694,3.2405,3.254,3.2721,3.2916,3.3039,3.3226,3.3393,3.3393,3.3393,3.3393,0.0,0.0,0.0,0.0,0.0,0.0,0.0,0.0,0.0,0.0,0.0,0.0,0.0,0.0,0.0,0.0,0.0,0.0,0.0,0.0,0.7568,0.8242,0.8588,0.8754,0.867,0.904,1.0212,1.2171,1.3662,1.4929,1.5933,1.5051,1.4378,1.3855,1.2414,1.1429,1.091,1.091,1.091,1.091,0.0,0.0,0.0,0.0,0.0,0.0,0.0,0.0,0.0,0.0,0.0,0.0,0.0,0.0,0.0,0.9501,0.9233,0.9467,0.9533,1.0657,1.2017,1.2939,1.4579,1.6031,1.6414,1.5679,1.4841,1.466,1.4609,1.4904,1.5839,1.8418,2.1454,2.4606,2.3883,2.3533,2.5236,2.4496,2.4155,2.5111,2.4781,2.4618,2.5019,2.461,2.4302,2.4302,2.4302,2.4594,2.525,2.545,2.6163,2.7512,2.792,2.8378,2.9005,2.9661,2.9903,2.9793,2.9544,2.9793,3.0497,3.014,3.0485,3.1376,3.1397,3.1768,3.2371,3.2489,3.269,3.2916,3.3008,3.3196,3.3393,3.3393,3.3393,3.3393,0.0,0.0,0.0,0.0,0.0,0.0,0.0,0.0,0.0,0.0,0.0,0.0,0.0,0.0,0.0,0.0,0.0,0.0,0.0,0.0,0.7392,0.7837,0.8222,0.9317,1.1185,1.1574,1.2524,1.4094,1.5458,1.7053,1.8779,1.7037,1.5753,1.4842,1.3421,1.2077,1.091,1.091,1.091,1.091,1.091,0.0,0.0,0.0,0.0,0.0,0.0,0.0,0.0,0.0,0.0,0.0,0.0,0.0,1.0755,0.9747,0.9388,0.9594,1.0885,1.1963,1.3056,1.4556,1.4268,1.3952,1.5138,1.4544,1.3998,1.5021,1.5241,1.5767,1.7492,1.9941,2.1585,2.1341,2.3074,2.4882,2.6128,0.0,2.5927,2.5373,2.525,2.5004,2.4441,2.4333,2.4302,2.4302,2.4302,2.4594,2.525,2.5896,2.6573,2.7388,2.8633,2.9313,2.9361,3.0102,3.0246,2.9793,3.0204,3.0418,3.0497,3.0477,3.0764,3.1315,3.1376,3.1712,3.2214,3.2354,3.2608,3.29,3.2916,3.3104,3.3393,3.3393,3.3393,3.3393,0.0,0.0,0.0,0.0,0.0,0.0,0.0,0.0,0.0,0.0,0.0,0.0,0.0,0.0,0.0,0.0,0.0,0.0,0.0,0.6667,0.7305,0.8382,0.8974,0.9968,1.1455,1.2651,1.391,1.5306,1.6387,1.7671,1.9056,1.6564,1.5094,1.4521,1.3354,1.2128,1.0921,1.1209,1.1168,1.091,1.091,1.0716,0.0,0.0,0.0,0.0,0.0,0.0,0.0,0.0,0.9574,1.0276,0.9685,1.0347,1.1095,0.986,0.9615,0.9824,1.0235,1.1609,1.3185,1.4328,1.4821,1.544,1.7109,1.7394,1.7493,1.8,1.8453,1.9136,2.0271,2.2403,2.3672,2.2735,2.3949,2.5061,2.5096,2.5087,2.4995,2.4697,2.4687,2.4594,2.4333,2.4302,2.4302,2.4302,2.4302,2.4795,2.5918,2.6226,2.6872,2.7996,2.8909,2.9406,2.9406,3.0381,3.0767,3.0605,3.0522,3.0784,3.1295,3.1004,3.1181,3.1693,3.1785,3.1984,3.2214,3.2354,3.2524,3.2737,3.2945,3.3086,3.3226,3.3349,3.3481,3.3591,0.0,0.0,0.0,0.0,0.0,0.0,0.0,0.0,0.0,0.0,0.0,0.0,0.0,0.0,0.0,0.0,0.0,0.0,0.6061,0.6361,0.7098,0.8354,0.9103,1.0053,1.1277,1.328,1.4742,1.5566,1.6896,1.7803,1.8328,1.591,1.4692,1.4469,1.2976,1.2002,1.149,1.1356,1.1192,1.1048,1.0913,1.0695,0.0,0.0,0.0,0.0,0.0,0.0,0.0,0.0,0.9187,1.0096,0.9552,1.0324,1.1157,1.0046,1.0233,1.0741,1.0546,1.18,1.3451,1.4531,1.5395,1.6473,1.8384,1.8942,1.9305,2.0167,2.0435,2.0844,2.1752,2.3157,2.4072,0.0,2.4557,2.5066,2.4374,2.4302,2.4302,2.4302,2.4302,2.4302,2.4302,2.4302,2.4302,2.4302,2.4502,2.5133,2.6303,2.6722,2.7471,2.8622,2.9445,2.9854,2.9881,3.0831,3.1334,3.1315,3.1044,3.1218,3.18,3.1485,3.1524,3.1875,3.1984,3.209,3.2179,3.2284,3.2439,3.2639,3.293,3.3024,3.3055,3.3241,3.343,3.3611,0.0,0.0,0.0,0.0,0.0,0.0,0.0,0.0,0.0,0.0,0.0,0.0,0.0,0.0,0.0,0.0,0.0,0.0,0.6377,0.64,0.677,0.7579,0.837,0.9455,1.0859,1.3556,1.4941,1.4911,1.6973,1.7553,1.6745,1.5419,1.4856,1.4857,1.2343,1.1803,1.2687,1.1237,1.0913,1.1358,1.0949,1.0833,1.0807,0.0,0.0,0.0,0.0,0.0,0.0,0.0,0.9345,0.9484,1.0545,1.09,1.0817,1.0334,1.129,1.2429,1.2235,1.2877,1.3993,1.5492,1.5916,1.6437,1.8374,1.8345,1.8591,2.1015,2.061,2.0237,2.1465,2.1787,0.0,2.3404,2.4557,2.505,2.4394,2.4302,2.4302,2.4302,2.4302,2.4302,2.4302,2.4302,2.4302,2.4302,2.4912,2.5588,2.6265,2.7447,2.8437,2.9187,3.0234,3.0831,3.0897,3.1506,3.18,3.18,3.18,3.18,3.18,3.18,3.18,3.18,3.1875,3.1984,3.2108,3.2161,3.2353,3.2622,3.2818,3.29,3.2916,3.3055,3.3217,3.3433,0.0,0.0,0.0,0.0,0.0,0.0,0.0,0.0,0.0,0.0,0.0,0.0,0.0,0.0,0.0,0.0,0.0,0.0,0.6323,0.6331,0.6776,0.7764,0.8496,0.9267,1.0114,1.1724,1.3721,1.6167,1.6342,1.5751,1.4412,1.4383,1.3727,1.2604,1.2762,1.2376,1.1576,1.1254,1.1166,1.1216,1.0822,1.0727,1.0742,0.0,0.0,0.0,0.0,0.0,0.0,0.0,0.0,0.0,0.9675,1.0365,1.0817,1.0334,1.0816,1.1363,1.064,1.2584,1.4796,1.4783,1.6653,1.8655,1.9229,1.9216,1.961,2.1415,2.2102,2.2285,2.1963,2.2847,0.0,2.2908,2.3821,2.4533,2.4333,2.4302,2.4302,2.4302,2.4302,2.4302,2.4302,2.4302,2.4302,2.4302,2.4912,2.5762,2.68,2.7646,2.8592,2.9647,3.0423,3.0831,3.0897,3.1506,3.18,3.18,3.18,3.18,3.18,3.18,3.18,3.18,3.1875,3.1984,3.2108,3.2267,3.2388,3.2473,3.264,3.2688,3.2719,3.3096,3.3404,3.3648,0.0,0.0,0.0,0.0,0.0,0.0,0.0,0.0,0.7373,0.7573,0.7671,0.7691,0.0,0.0,0.0,0.6731,0.6446,0.0,0.6446,0.6236,0.6616,0.7764,0.8259,0.9104,1.0368,1.1201,1.248,1.4246,1.4531,1.4021,1.2779,1.3587,1.3462,1.2593,1.3173,1.2929,1.2109,1.1787,1.1463,1.1145,1.0895,1.0802,1.0712,0.0,0.0,0.0,0.0,0.0,0.0,0.0,0.0,0.0,0.9127,0.9764,1.0428,1.0798,1.1722,1.2624,1.2693,1.463,1.6651,1.6746,1.8022,1.9409,1.9911,2.0197,2.0612,2.1561,2.2272,2.2703,2.2618,2.3177,0.0,2.3625,2.4008,2.4302,2.4302,2.4302,2.4302,2.4302,2.4302,2.4302,2.4302,2.4302,2.4493,2.4942,2.5617,2.6539,2.7705,2.8587,2.9431,3.0222,3.0804,3.114,3.1261,3.1617,3.18,3.18,3.18,3.18,3.18,3.18,3.18,3.1818,3.1929,3.2037,3.2108,3.2319,3.2406,3.2423,3.249,3.2589,3.2718,3.3096,3.3458,3.3858,0.0,0.0,0.0,0.0,0.0,0.0,0.0,0.6944,0.7348,0.7375,0.7581,0.7683,0.0,0.0,0.0,0.6695,0.6431,0.6419,0.6688,0.6168,0.6419,0.7683,0.7949,0.9042,1.114,1.1495,1.1244,1.0392,1.2019,1.2385,1.1599,1.2907,1.3588,1.3711,1.3422,1.3359,1.3447,1.2486,1.1694,1.1073,1.1043,1.0955,1.0724,0.9686,0.0,0.0,0.0,0.0,0.0,0.0,0.0,0.0,0.8844,0.9175,0.9789,1.1303,1.3163,1.5034,1.6439,1.7657,1.8814,1.9969,1.9627,1.9298,2.0504,2.1119,2.1433,2.1459,2.1636,2.2131,2.3236,2.304,2.3236,2.494,2.4697,2.4302,2.4302,2.4302,2.4302,2.4302,2.4302,2.4333,2.4394,2.4436,2.4906,2.6029,2.6809,2.7726,2.8814,2.9914,3.0621,3.0865,3.1291,3.1595,3.18,3.18,3.18,3.18,3.18,3.18,3.18,3.18,3.18,3.1837,3.2018,3.209,3.2126,3.2336,3.2422,3.2406,3.2457,3.2622,3.2827,3.3063,3.3504,3.4011,0.0,0.0,0.0,0.0,0.0,0.0,0.7356,0.7567,0.7709,0.7981,0.7831,0.7596,0.7341,0.7246,0.0,0.6434,0.6341,0.6419,0.6688,0.6373,0.6764,0.8041,0.8919,0.9678,1.0264,1.0439,1.0254,0.9628,1.085,1.0866,0.9795,1.1921,1.238,1.1535,1.2713,1.2806,1.2009,1.1431,1.1084,1.092,1.0596,1.0765,1.1034,0.9657,0.9451,0.0,0.0,0.0,0.0,0.0,0.0,0.0,0.8766,0.9175,0.9561,0.9804,1.1588,1.3452,1.3324,1.5654,1.818,1.8484,1.9425,2.0466,2.1172,2.117,2.1034,2.1108,2.2251,2.3202,2.3069,2.3606,2.4161,2.448,2.4374,2.4302,2.4302,2.4302,2.4302,2.4302,2.4302,2.4518,2.5019,2.541,2.5983,2.6799,2.7838,2.8705,2.9316,3.012,3.0804,3.1329,3.1502,3.1653,3.18,3.18,3.18,3.18,3.18,3.18,3.18,3.18,3.1838,3.1893,3.2037,3.2126,3.2214,3.2554,3.2589,3.244,3.2912,3.297,3.2874,3.3451,3.3762,3.3959,0.0,0.0,0.0,0.0,0.0,0.0,0.0,0.0,0.7953,0.7968,0.7662,0.7399,0.7231,0.7051,0.0,0.0,0.6304,0.6353,0.6504,0.6228,0.6698,0.8136,0.9166,0.9758,0.9895,0.957,0.9283,0.9076,0.9525,0.9684,0.9589,1.1523,1.1982,1.1296,1.2634,1.2625,1.16,1.1552,1.1182,1.0605,1.0586,1.0587,1.0465,0.9442,0.915,0.9151,0.8118,0.0,0.0,0.0,0.0,0.0,0.0,0.0,0.9258,1.0186,1.169,1.3332,1.4639,1.663,1.8533,1.9139,2.0175,2.1126,2.1469,2.1616,2.1698,2.1779,2.2566,2.3131,2.2847,2.3666,2.4383,2.4322,2.4302,2.4302,2.4302,2.4302,2.4302,2.4302,2.4574,2.4933,2.5266,2.6046,2.692,2.7833,2.8677,2.9505,3.0314,3.0723,3.1103,3.1521,3.1579,3.1654,3.18,3.18,3.18,3.18,3.18,3.18,3.18,3.18,3.1838,3.1894,3.2055,3.2232,3.2437,3.2275,3.2246,3.2262,3.2169,3.2119,3.2129,3.2464,3.2987,3.3549,0.0,0.0,0.0,0.0,0.0,0.0,0.0,0.0,0.0,0.7727,0.7414,0.7187,0.711,0.6837,0.6516,0.0,0.0,0.0,0.6297,0.6192,0.6727,0.8063,0.9029,0.9592,0.9736,0.8928,0.8568,0.8721,0.8519,0.8939,0.9971,1.1259,1.1785,1.1655,1.2636,1.2441,1.1421,1.1749,1.1191,1.0107,1.0439,1.0214,0.9643,0.9104,0.8737,0.8426,0.7916,0.7807,0.7912,0.7927,0.0,0.0,0.0,0.0,0.8946,1.0794,1.2045,1.3483,1.6324,1.7926,1.9137,2.0483,2.118,2.1554,2.1698,2.2119,2.2535,2.2672,2.2785,2.2867,2.2867,2.3638,2.4302,2.4302,2.4302,2.4302,2.4302,2.4302,2.4302,2.4302,2.4858,2.5333,2.5586,2.6651,2.7805,2.9002,2.9538,3.0261,3.1242,3.1334,3.1428,3.1598,3.1617,3.169,3.18,3.18,3.18,3.18,3.18,3.1819,3.1874,3.1736,3.1808,3.202,3.2144,3.235,3.2547,3.1998,3.1822,3.183,3.1275,3.1162,3.1323,3.1519,3.2132,3.2914,0.0,0.0,0.0,0.0,0.0,0.0,0.0,0.0,0.0,0.0,0.7414,0.7081,0.6804,0.6519,0.6221,0.5891,0.5862,0.5986,0.6282,0.0,0.0,0.7749,0.8714,0.9351,0.9541,0.8853,0.862,0.8876,0.8548,0.9003,1.016,1.0731,1.1073,1.1301,1.1824,1.1526,1.0561,1.0561,1.001,0.918,0.9238,0.9259,0.9223,0.8743,0.8535,0.8442,0.8024,0.7884,0.7912,0.8029,0.8125,0.0,0.0,0.0,0.8748,0.9564,1.0988,1.2469,1.3207,1.6055,1.9209,2.0894,2.166,2.2035,2.2189,2.2351,2.2535,0.0,2.3135,2.3486,2.3486,2.3931,2.4302,2.4302,0.0,0.0,0.0,0.0,0.0,0.0,0.0,0.0,0.0,0.0,0.0,0.0,3.0771,3.1135,3.1295,3.1485,3.1579,3.1598,3.1709,3.1781,3.18,3.18,3.18,3.18,3.18,3.1947,3.2214,3.1497,3.1669,3.2505,3.2605,3.2454,3.2188,3.2393,3.191,3.1098,3.152,3.1525,3.1421,3.2415,3.2428,3.2188,0.0,0.0,0.0,0.0,0.0,0.0,0.0,0.0,0.0,0.0,0.0,0.7066,0.6738,0.646,0.6172,0.5825,0.5796,0.5935,0.6282,0.7002,0.7501,0.7683,0.8304,0.8584,0.8483,0.7933,0.7824,0.8179,0.7882,0.8704,1.06,1.0722,1.1089,1.1601,1.1783,1.1298,1.0315,1.004,0.9561,0.8984,0.875,0.9116,0.9661,0.8261,0.8289,0.8976,0.7847,0.7641,0.7912,0.7966,0.8087,0.8215,0.8343,0.0,0.0,0.0,1.0242,1.1833,1.4013,1.6434,1.8835,2.088,2.1756,2.2198,2.2649,2.2987,2.329,2.3501,2.3754,2.3861,0.0,0.0,0.0,0.0,0.0,0.0,0.0,0.0,0.0,0.0,0.0,0.0,0.0,0.0,0.0,0.0,3.0788,3.1353,3.1449,3.156,3.1635,3.1709,3.1781,3.18,3.18,3.18,3.1893,3.2073,3.1811,3.1769,3.1881,3.1146,3.1311,3.2117,3.1719,3.1578,3.1636,3.1314,3.1005,3.0772,3.1017,3.1039,3.0956,3.147,3.1719,3.1861,0.0,0.0,0.0,0.0,0.0,0.0,0.0,0.0,0.0,0.0,0.0,0.6971,0.6731,0.0,0.0,0.0,0.5722,0.5737,0.5906,0.6497,0.6947,0.7214,0.769,0.7807,0.7538,0.7164,0.7196,0.766,0.7344,0.8447,1.0844,1.0811,1.119,1.1986,1.1995,1.1373,1.0261,0.9801,0.9367,0.8984,0.8779,0.9268,0.998,0.8737,0.904,0.9902,0.8224,0.796,0.0,0.0,0.796,0.8215,0.8287,0.8572,0.0,0.0,0.0,1.103,1.4326,1.612,1.7671,2.0284,2.137,2.2089,2.3062,0.0,2.3882,0.0,2.4202,0.0,0.0,0.0,0.0,0.0,0.0,0.0,0.0,0.0,0.0,0.0,0.0,0.0,0.0,0.0,0.0,0.0,3.0719,3.143,3.1598,3.1635,3.169,3.18,3.18,3.1714,3.1524,3.1407,3.1603,3.212,3.1552,3.1304,3.1301,3.069,3.075,3.1315,3.0932,3.0906,3.1072,3.0483,3.0249,3.0288,3.0288,3.0418,3.0604,3.0604,3.0976,3.1452,0.0,0.0,0.0,0.0,0.0,0.0,0.0,0.0,0.0,0.0,0.0,0.6724,0.6702,0.646,0.6172,0.5825,0.551,0.5195,0.4902,0.551,0.5884,0.5898,0.6757,0.0,0.7042,0.6953,0.7189,0.7794,0.7399,0.8407,1.0709,1.0707,1.1226,1.2192,1.2444,1.1712,1.0261,0.9801,0.9367,0.9043,0.9396,0.9581,0.9776,1.1,1.1482,1.1273,0.9675,0.0,0.0,0.0,0.0,0.0,0.0,0.0,0.8626,0.0,0.0,0.0,1.214,1.3614,1.5302,1.875,2.0325,2.1532,2.3347,0.0,2.3882,0.0,0.0,0.0,0.0,0.0,0.0,0.0,0.0,0.0,0.0,0.0,0.0,0.0,0.0,0.0,0.0,0.0,0.0,0.0,3.1039,3.1579,3.1598,3.1727,3.18,3.18,3.18,3.1455,3.0766,3.0313,3.0605,3.1629,3.0843,3.0502,3.0529,3.0049,2.9935,3.0146,3.0923,3.1022,3.062,3.0583,3.0129,2.9452,2.9452,2.9935,3.0604,3.0604,3.0623,3.0772,0.0,0.0,0.0,0.0,0.0,0.0,0.0,0.0,0.0,0.0,0.0,0.0,0.0,0.646,0.6172,0.5825,0.5693,0.548,0.5136,0.5744,0.6128,0.6128,0.6819,0.6999,0.6558,0.6779,0.6947,0.704,0.7062,0.812,1.0131,1.0306,1.0848,1.1676,1.161,1.0908,0.974,0.8862,0.8374,0.817,0.8281,0.9346,1.0839,1.0341,1.1262,0.0,0.0,0.0,0.0,0.0,0.0,0.0,0.0,0.0,0.0,0.8644,0.9182,1.0071,1.2058,1.29,1.3861,1.6578,1.8663,2.0284,2.127,2.262,2.3739,2.4024,0.0,0.0,0.0,0.0,0.0,0.0,0.0,0.0,0.0,0.0,0.0,0.0,0.0,0.0,0.0,0.0,0.0,0.0,0.0,3.0931,3.1021,3.1058,3.0851,3.0351,3.0525,3.0605,3.0518,3.0558,3.0765,3.1135,3.055,3.028,3.0288,2.9637,2.9409,2.9508,2.986,2.9954,2.9824,2.9824,2.9657,2.9452,2.9973,3.0344,3.0604,3.0604,3.0604,3.0567,0.0,0.0,0.0,0.0,0.0,0.0,0.0,0.0,0.0,0.7195,0.0,0.0,0.0,0.0,0.6507,0.5854,0.5796,0.5612,0.5158,0.5656,0.5973,0.5973,0.6563,0.6676,0.6173,0.652,0.6674,0.6598,0.6786,0.7682,0.9266,0.9616,1.009,1.0637,1.0346,1.0086,0.9775,0.889,0.8384,0.8229,0.8504,0.9635,1.113,0.0,0.0,0.0,0.0,0.0,0.0,0.0,0.0,0.0,0.0,0.0,0.0,0.811,0.8692,0.9416,1.1211,1.1824,1.255,1.5033,1.6711,1.8285,2.0306,0.0,2.2823,0.0,0.0,0.0,0.0,0.0,0.0,0.0,0.0,0.0,0.0,0.0,0.0,0.0,0.0,0.0,0.0,0.0,0.0,0.0,0.0,0.0,3.0696,3.0437,3.0093,2.9693,2.9723,3.0016,3.056,3.0283,3.0305,3.067,3.0076,2.974,2.9649,2.9313,2.9112,2.9041,2.9251,2.9365,2.9396,2.9396,2.9396,2.9452,2.9991,3.0363,3.0567,3.0288,3.0363,3.0474,0.0,0.0,0.0,0.0,0.0,0.0,0.0,0.0,0.6833,0.718,0.0,0.0,0.0,0.0,0.0,0.5935,0.5832,0.5554,0.4865,0.5129,0.5319,0.5297,0.5935,0.6166,0.5896,0.6159,0.6389,0.6583,0.6591,0.7134,0.8157,0.8627,0.8958,0.912,0.8816,0.932,1.0368,0.0,0.9449,0.9252,0.0,1.0433,1.0588,0.0,0.0,0.0,1.2462,1.2301,0.0,1.1373,0.0,0.0,0.0,0.0,0.0,0.0,0.7452,0.7699,0.0,0.0,0.0,1.4159,1.4563,0.0,2.0528,0.0,0.0,0.0,0.0,0.0,0.0,0.0,0.0,0.0,0.0,0.0,0.0,0.0,0.0,0.0,0.0,0.0,0.0,0.0,0.0,0.0,3.0609,3.0662,3.0662,2.9886,2.959,2.9916,2.95,2.9751,3.083,2.9355,2.9125,3.0173,2.9372,2.887,2.8644,2.9014,2.903,2.8736,2.9192,2.9396,2.9396,2.9396,2.9396,2.9396,2.9396,2.988,3.0474,2.9694,2.988,3.0456,0.0,0.0,0.0,0.0,0.0,0.7479,0.7246,0.711,0.7195,0.0,0.0,0.0,0.7567,0.764,0.7362,0.6531,0.6677,0.6334,0.5231,0.548,0.5554,0.5304,0.5935,0.615,0.5842,0.6135,0.6227,0.6086,0.6328,0.6687,0.7113,0.7501,0.7725,0.783,0.7937,0.8016,0.8066,0.7536,0.0,0.8745,0.8576,0.9505,0.0,0.0,0.0,0.0,0.0,1.3895,1.2926,0.0,1.2019,1.0057,0.0,0.0,0.5702,0.0,0.7161,0.8083,0.9065,0.0,0.0,0.0,0.0,0.0,0.0,0.0,0.0,0.0,0.0,0.0,0.0,0.0,0.0,0.0,0.0,0.0,0.0,0.0,0.0,0.0,0.0,0.0,0.0,0.0,0.0,0.0,3.0127,2.9834,2.9834,2.861,2.8138,2.8607,2.8311,2.8594,2.9515,2.8912,2.8852,2.9335,2.9115,2.897,2.8893,2.9055,2.9093,2.9064,2.9251,2.9355,2.9396,2.9396,2.9396,2.9396,2.9396,2.9527,2.9712,2.9471,2.9527,2.9694,0.0,0.0,0.7778,0.807,0.8004,0.7903,0.7918,0.7809,0.786,0.0,0.0,0.0,0.8192,0.8274,0.8063,0.7384,0.7253,0.683,0.594,0.5824,0.5708,0.5517,0.5876,0.601,0.5803,0.5986,0.6026,0.585,0.6083,0.6254,0.6383,0.6755,0.6892,0.6803,0.6963,0.693,0.6704,0.6058,0.0,0.0,0.8401,0.0,0.0,1.1587,1.2281,0.0,0.0,0.0,1.3031,1.4235,1.2525,0.0,0.0,0.0,0.0,0.0,0.709,0.8293,0.9191,0.9667,1.0006,1.0483,0.0,0.0,1.4957,1.6002,0.0,0.0,0.0,0.0,0.0,0.0,0.0,0.0,0.0,0.0,0.0,0.0,0.0,0.0,0.0,0.0,0.0,2.9265,2.9816,3.1058,3.0127,2.923,2.8627,2.7858,2.7615,2.7926,2.7897,2.8174,2.8834,2.8682,2.8731,2.9005,2.9005,2.9017,2.9051,2.91,2.9186,2.9251,2.9304,2.9365,2.9396,2.9396,2.9396,2.9396,2.9396,2.9396,2.9396,2.9396,2.9396,2.9396,0.0,0.0,0.8063,0.8641,0.8531,0.8507,0.8909,0.8769,0.8721,0.0,0.8912,0.8926,0.9116,0.9195,0.9002,0.8363,0.7654,0.7088,0.6731,0.6139,0.5796,0.5796,0.5796,0.5796,0.5796,0.5796,0.5796,0.5796,0.5865,0.5888,0.5911,0.6295,0.6275,0.5929,0.5914,0.5898,0.5814,0.5238,0.0,0.7674,0.8866,0.9432,0.0,0.0,1.1463,1.1267,1.3118,1.3319,1.2941,1.4705,1.3023,0.0,0.0,0.0,0.0,0.0,0.7233,0.8508,0.9542,0.9943,1.0295,1.1201,0.0,0.0,1.618,1.6541,1.7084,0.0,0.0,0.0,0.0,0.0,0.0,0.0,0.0,0.0,0.0,0.0,0.0,0.0,0.0,0.0,3.0451,3.0626,3.1007,3.1731,3.0368,2.8885,2.7489,2.7561,2.7672,2.7701,2.794,2.8242,2.8589,2.8601,2.8731,2.9005,2.9005,2.9051,2.9096,2.9167,2.924,2.9302,2.9376,2.9396,2.9396,2.9396,2.9396,2.9396,2.9396,2.9396,2.9396,2.9396,2.9396,2.9396,0.8443,0.873,0.8958,0.9082,0.9226,0.9362,0.9456,0.9405,0.9471,0.9671,0.968,0.9927,1.0609,0.9967,0.938,0.9038,0.8151,0.7348,0.6746,0.6139,0.5796,0.5796,0.5796,0.5796,0.5796,0.5796,0.5796,0.5796,0.5811,0.585,0.5897,0.5725,0.5347,0.4813,0.4811,0.4634,0.4391,0.5258,0.0,0.7446,0.7613,0.0,1.0223,1.0958,1.1488,1.1963,1.3268,1.371,1.3799,1.4333,1.3975,1.2782,0.0,0.0,0.0,0.6696,0.0,0.0,0.0,0.0,0.0,0.0,0.0,0.0,1.1096,1.1374,1.2331,0.0,0.0,0.0,0.0,0.0,0.0,0.0,0.0,0.0,0.0,0.0,0.0,0.0,0.0,0.0,3.0575,3.0679,3.1007,3.1731,3.0368,2.9127,2.823,2.7673,2.7465,2.7701,2.7742,2.8037,2.8589,2.8601,2.8731,2.9005,2.9044,2.9062,2.9028,2.9197,2.9251,2.9229,2.9355,2.9396,2.9396,2.9396,2.9396,2.9396,2.9396,2.9396,2.9396,2.9396,2.9396,2.9396,0.8655,0.9065,0.9446,0.9607,0.9892,1.0186,1.0408,1.0342,1.0321,1.0588,1.0689,1.0748,1.0748,1.0223,0.9731,0.9424,0.8363,0.7559,0.7231,0.6468,0.5964,0.5803,0.5796,0.5796,0.5796,0.5796,0.5796,0.5796,0.5634,0.5568,0.5598,0.5252,0.528,0.5554,0.4619,0.454,0.5075,0.475,0.5184,0.6244,0.777,0.0,1.061,1.1137,1.1547,1.1912,1.2805,1.3603,1.4344,1.4975,1.4329,0.0,0.0,1.0814,0.9843,0.0,0.9117,1.0147,0.0,0.0,0.0,1.0369,0.0,0.0,0.0,0.0,0.0,0.0,0.0,0.0,0.0,0.0,0.0,0.0,0.0,0.0,0.0,0.0,0.0,0.0,0.0,0.0,3.1214,3.1248,3.1248,3.1248,3.0541,2.9592,2.8454,2.8184,2.7938,2.7719,2.7844,2.812,2.8589,2.8601,2.8731,2.9005,2.904,2.9074,2.9089,2.9207,2.9272,2.9304,2.9376,2.9396,2.9396,2.9396,2.9396,2.9396,2.9396,2.9396,2.9396,2.9396,2.9396,2.9396,0.8838,0.9372,0.9863,1.006,1.047,1.0901,1.1207,1.1144,1.1115,1.1337,1.1544,1.1399,1.0731,1.0494,1.0234,0.9908,0.8755,0.7968,0.7758,0.6979,0.6385,0.6089,0.5898,0.5884,0.6067,0.5891,0.5796,0.5796,0.5466,0.529,0.5268,0.4889,0.5218,0.6082,0.482,0.487,0.5825,0.0,0.0,0.5875,0.0,0.9717,1.0099,1.0909,1.1217,1.1337,1.2181,1.3316,1.4565,1.5479,1.4554,1.3111,1.3567,1.2566,0.0,0.0,0.0,0.0,0.0,0.0,0.0,0.0,0.0,1.0314,0.0,0.0,0.0,0.0,0.0,0.0,0.0,0.0,0.0,0.0,0.0,0.0,0.0,0.0,0.0,0.0,0.0,0.0,0.0,3.0403,3.0386,3.0697,2.9868,2.9144,2.8644,2.8727,2.8458,2.7719,2.8024,2.8321,2.8589,2.8639,2.8779,2.9005,2.9017,2.9085,2.9178,2.9218,2.9283,2.9386,2.9396,2.9396,2.9396,2.9396,2.9396,2.9396,2.9396,2.9396,2.9396,2.9386,2.9386,2.9396,0.9402,1.0031,1.0397,1.0148,1.088,1.1408,1.1165,1.1348,1.1524,1.1553,1.1724,1.1798,1.1654,1.1403,1.1128,1.087,0.0,0.0,0.795,0.7497,0.7197,0.7037,0.6241,0.6182,0.7027,0.6219,0.5796,0.5796,0.5466,0.5276,0.5197,0.4632,0.4273,0.416,0.5088,0.5131,0.0,0.0,0.7238,0.0,0.9104,0.8407,0.0,0.916,0.9833,1.0061,1.186,1.3207,1.4196,0.0,1.5134,1.5243,0.0,1.312,1.3842,1.0666,0.0,0.0,0.0,0.0,0.0,0.0,1.1372,0.0,0.0,0.0,0.0,0.8238,0.0,0.0,0.0,0.0,0.0,0.0,0.0,0.0,0.0,0.0,0.0,0.0,0.0,0.0,0.0,2.5416,2.637,3.0403,2.6902,2.599,2.9213,2.9006,2.8458,2.7719,2.8246,2.8563,2.8601,2.8846,2.897,2.9005,2.9062,2.9108,2.9119,2.9229,2.9302,2.9312,2.9376,2.9396,2.9396,2.9396,2.9396,2.9396,2.9396,2.9396,2.9396,2.9334,2.9355,2.9396,0.927,0.987,1.0265,1.0126,1.0594,1.1041,1.1092,1.1509,1.1838,1.1838,1.1902,1.1951,1.192,0.0,0.0,0.0,0.0,0.9424,0.0,0.0,0.766,0.6942,0.638,0.6273,0.6665,0.6104,0.57,0.551,0.5138,0.4857,0.4683,0.4694,0.4981,0.5509,0.6161,0.6704,0.7119,0.0,0.6903,0.0,0.0,0.0,0.0,0.9994,1.1273,1.1431,1.2663,1.3244,1.3617,0.0,1.4654,0.0,0.0,0.0,0.0,0.0,0.0,0.0,0.0,0.0,0.0,0.0,0.0,0.0,0.9157,0.0,0.7601,0.0,0.0,0.0,0.0,0.0,0.0,0.0,0.0,0.0,0.0,0.0,0.0,0.0,0.0,0.0,0.0,0.0,0.0,0.0,2.6592,2.5971,2.9334,2.9912,2.9693,2.8713,2.9049,2.9142,2.8945,2.9021,2.9062,2.9062,2.9096,2.9112,2.9156,2.9218,2.9283,2.9365,2.9386,2.9376,2.9344,2.9386,2.9376,2.9344,2.9344,2.9365,2.9386,2.9283,2.9283,2.9344,0.9002,0.9541,0.9965,0.9965,1.0309,1.0697,1.1056,1.1472,1.177,1.1793,0.0,0.0,1.1937,1.1485,0.0,0.0,1.0998,1.0262,0.0,0.0,0.8313,0.7767,0.6727,0.0,0.6996,0.6219,0.5619,0.5276,0.4888,0.4597,0.441,0.457,0.5176,0.6178,0.686,0.782,0.8884,0.0,0.7713,0.7675,0.8202,0.8209,0.8217,1.0946,1.2211,1.2552,1.3042,1.3248,1.3451,1.4574,1.4139,0.0,1.5245,0.0,0.0,0.0,0.0,0.0,1.2466,0.0,0.0,0.0,0.0,0.0,0.0,0.0,0.0,0.0,0.0,0.0,0.0,0.0,0.0,0.0,0.0,0.0,0.0,0.0,0.0,0.0,0.0,0.0,0.0,0.0,0.0,0.0,0.0,2.4681,2.8972,3.0017,3.0125,2.9422,2.9629,2.9776,2.9854,2.9798,2.9764,2.9752,2.952,2.9432,2.9481,2.9278,2.924,2.9355,2.9355,2.9334,2.9291,2.9334,2.9323,2.9262,2.924,2.9302,2.9326,2.9229,2.9218,2.9262,0.8641,0.9204,0.9603,0.9603,1.0163,1.0697,1.1056,1.1122,1.1186,0.0,0.0,0.0,0.0,0.0,0.0,0.0,0.0,1.1765,1.0701,0.0,0.9384,1.0324,0.7452,0.6753,0.0,0.6839,0.5604,0.5211,0.4868,0.4691,0.467,0.4036,0.4107,0.4847,0.6738,0.7815,0.8334,0.9833,1.118,1.2255,1.1694,1.2193,1.306,0.0,1.1428,1.2485,1.2519,0.0,0.0,1.3512,1.397,0.0,0.0,0.0,0.0,0.0,0.0,0.0,0.0,0.0,0.0,1.1434,0.0,0.0,0.0,0.0,0.7262,0.0,0.0,0.0,0.0,0.0,0.0,0.0,0.0,0.0,0.0,0.0,0.0,0.0,0.0,0.0,0.0,0.0,0.0,0.0,0.0,0.0,2.804,2.8709,2.9041,2.9388,2.9722,3.0411,3.151,3.1457,3.1421,3.1403,3.0576,3.019,3.0242,2.9469,2.9134,2.9218,2.9218,2.9218,2.92,2.9218,2.9218,2.9189,2.9123,2.9163,2.9189,2.9123,2.9163,2.9189,1.0023,1.0254,1.0171,0.9472,0.953,0.9873,1.0494,1.0971,0.0,0.0,0.0,0.0,0.0,1.2508,1.2756,0.0,0.0,1.2522,1.1606,1.0482,0.0,0.0,0.0,0.7244,0.0,0.0,0.5854,0.5261,0.511,0.4918,0.4704,0.5057,0.5155,0.5125,0.749,0.8882,0.0,0.0,0.0,0.0,0.0,1.2244,1.3126,0.0,0.0,1.317,1.317,1.3229,0.0,1.3932,1.3787,1.3561,1.4476,1.4482,1.425,1.4877,1.519,1.5309,0.0,0.0,1.5573,1.2724,0.0,0.0,0.0,0.0,0.0,0.0,0.0,0.0,0.0,0.0,0.0,0.0,0.0,0.0,0.0,0.0,0.0,0.0,0.0,0.0,0.0,0.0,0.0,0.0,0.0,0.0,0.0,2.913,2.9386,2.9276,2.9511,2.9717,2.9869,2.9945,3.0009,3.0043,2.9664,2.9789,3.0362,3.0033,3.021,3.0785,3.0785,3.0761,3.0726,3.0773,3.0459,2.9927,2.9892,2.9591,2.9141,2.9062,2.9085,2.9289,1.0542,1.0511,1.0342,0.9784,0.9646,0.984,0.0,0.0,0.0,0.0,1.172,0.0,1.2336,0.0,1.2837,0.0,1.3132,1.2832,1.2009,1.1201,0.0,1.1246,0.9237,0.0,0.0,0.0,0.0,0.0,0.5593,0.5211,0.4888,0.5331,0.543,0.5327,0.73,0.8892,1.0155,1.1041,1.1933,0.0,0.0,1.3007,0.0,0.0,1.355,1.3177,0.0,1.3423,1.3488,1.4421,1.4161,1.3752,1.5193,1.5078,1.4633,1.5731,1.592,1.5833,1.6075,1.6464,0.0,1.3839,1.2873,0.0,0.8675,0.0,0.8829,0.0,0.0,0.0,0.0,0.0,0.0,0.0,0.0,0.0,0.0,0.0,0.0,0.0,0.0,0.0,0.0,0.0,0.0,0.0,0.0,0.0,0.0,0.0,2.9043,2.9204,2.9326,2.9507,2.9716,2.9777,2.98,2.9831,2.943,2.9509,2.9996,2.9679,2.9971,3.0794,3.0794,3.0919,3.1109,3.1162,3.0916,3.0472,3.0198,2.9837,2.946,2.9108,2.9212,2.9717,1.0279,1.014,1.0278,1.0697,1.0499,0.0,0.0,0.0,1.1308,0.0,1.164,1.188,1.2295,1.2351,1.2599,1.318,1.3247,1.2893,1.2074,1.1775,0.0,0.0,1.0685,1.0482,1.1614,0.0,0.0,0.0,0.0,0.5558,0.5247,0.4911,0.4952,0.5356,0.628,0.0,1.0185,1.1434,1.312,1.49,1.464,1.4526,1.4489,1.4518,1.3697,1.265,1.3294,1.3731,1.4082,1.4857,1.5005,1.5049,1.588,1.6124,1.6243,1.684,1.7212,1.7359,1.7205,1.7019,1.6492,1.4789,1.4395,0.0,0.0,0.0,1.1778,0.0,0.0,0.0,0.0,0.0,0.0,0.0,0.0,0.0,0.0,0.0,0.0,0.0,0.0,0.0,0.0,0.0,0.0,0.0,0.0,0.0,0.0,0.0,2.7812,2.909,2.9137,2.9711,3.0857,3.079,3.0739,3.067,2.9835,2.9392,2.929,2.8509,2.8602,2.9355,2.9408,2.9822,3.0469,3.0505,3.0679,3.0862,3.0085,2.9973,3.0131,2.9354,2.9574,3.0485,1.1648,1.1871,1.2376,0.0,1.1309,1.0048,0.0,0.0,0.0,0.0,1.1784,1.2056,1.2603,1.3033,1.332,1.3473,1.3734,0.0,0.0,0.0,0.0,1.3474,1.1566,1.0936,1.1891,0.9542,0.0,0.8049,0.0,0.5861,0.6007,0.567,0.5575,0.57,0.6399,0.7968,1.017,1.1261,1.3082,1.5258,1.5218,1.475,0.0,0.0,1.4165,1.3301,1.3711,1.3756,1.379,1.4777,1.5069,1.5219,1.624,1.6562,1.6641,1.7145,1.7416,1.7602,1.7898,1.8026,1.7804,1.6777,1.5622,1.4505,0.0,0.0,0.0,0.0,0.0,0.0,0.0,0.0,0.0,0.0,0.0,0.0,0.0,0.0,0.0,0.0,0.0,0.0,0.0,0.0,0.0,0.0,0.0,0.0,0.0,0.0,0.0,2.798,2.828,2.8522,2.8829,2.8941,2.8994,2.9007,2.8636,2.8778,2.9375,2.9108,2.9433,3.0234,3.0826,3.1186,3.1418,3.1974,3.1882,3.1407,3.1193,3.0952,3.0656,3.0106,3.0393,3.1237,1.2356,1.272,0.0,1.347,0.0,0.0,1.1684,1.1238,0.0,1.1621,1.1823,0.0,1.2543,1.2973,1.3353,1.358,1.3753,0.0,1.3333,0.0,0.0,1.3113,1.2284,1.2016,1.2526,1.0707,0.0,0.8827,0.0,0.6499,0.6083,0.5884,0.5642,0.5392,0.6295,0.7662,0.9416,1.1701,1.3499,1.4831,1.5221,1.5061,0.0,1.498,1.4688,1.415,1.434,1.4106,1.3896,1.5152,1.5367,1.5324,1.6584,1.6748,1.6594,1.7285,1.7357,1.7379,1.8168,1.8414,1.8325,1.8039,1.7487,1.6736,1.5545,1.5776,1.6271,0.0,1.6437,1.646,0.0,0.0,0.0,0.0,0.0,0.0,0.0,0.0,0.0,0.0,0.0,0.0,0.0,0.0,0.0,0.0,0.0,0.0,0.0,0.0,0.0,2.748,2.6725,2.677,2.7783,2.6853,2.6921,2.801,2.7883,2.8055,2.8464,2.8438,2.9022,3.0078,3.0536,3.1117,3.1787,3.2175,3.2172,3.188,3.1669,3.1213,3.0689,3.0781,3.1281,3.2045,1.2898,1.3258,0.0,0.0,0.0,0.0,0.0,1.2064,0.0,1.184,0.0,1.2158,1.2445,1.275,1.3073,1.3553,0.0,1.3253,1.2478,1.3114,1.3126,1.2127,1.2792,1.3213,1.3213,1.2125,1.0894,0.0,0.0,0.7147,0.5846,0.5818,0.5495,0.4983,0.6144,0.737,0.0,1.2306,1.3938,1.4245,1.5053,1.5389,1.5389,1.5389,1.5214,1.4966,1.4966,1.4589,1.426,1.5602,1.5705,1.5506,1.6897,1.6831,1.6458,1.7392,1.7268,1.7047,1.8195,1.8438,1.8438,1.8774,1.9297,1.9137,1.7027,1.7479,1.8412,1.8608,1.7222,1.7335,0.0,0.0,0.0,0.0,0.0,0.0,0.0,0.0,0.0,0.0,0.0,0.0,0.0,0.0,0.0,0.0,0.0,0.0,0.0,0.0,0.0,2.7253,2.5282,2.5054,2.6905,0.0,2.5147,2.6953,2.7201,2.7263,2.7137,2.7137,2.7892,2.9196,2.9299,3.0158,3.1479,3.1582,3.1839,3.2109,3.1727,3.1213,3.0729,3.1484,3.2112,3.272,1.4301,1.4753,0.0,0.0,0.0,1.3578,1.3138,1.2629,1.238,1.2723,1.2907,1.3086,1.3333,1.3413,1.3487,1.3593,1.36,0.0,0.0,0.0,0.0,1.2986,1.3126,1.3213,1.3213,1.1881,1.0721,0.0,0.0,0.6988,0.6049,0.588,0.5737,0.5649,0.6148,0.7945,1.0696,1.2153,0.0,1.5148,1.5316,1.5389,1.5389,1.5389,1.5352,1.5301,1.5301,1.4933,1.4495,1.5087,1.5605,1.6134,1.6768,1.7064,1.7288,1.7778,1.7687,1.7615,1.8308,1.8617,1.8774,1.9008,1.9131,1.9248,1.935,1.9557,2.0045,2.1176,2.1114,2.0507,1.9283,0.0,0.0,0.0,0.0,0.0,0.0,0.0,0.0,0.0,0.0,0.0,0.0,0.0,0.0,0.0,0.0,0.0,0.0,0.0,0.0,0.0,2.6093,0.0,0.0,0.0,2.537,2.4058,2.5597,2.6333,2.6315,2.6315,2.6782,2.7648,2.8248,2.8984,2.9782,3.0456,3.0965,3.1321,3.1526,3.176,3.2015,3.2451,3.263,3.2713,1.3561,0.0,0.0,0.0,0.0,0.0,0.0,1.3481,1.3244,1.2914,1.2963,1.3019,1.316,1.332,1.344,1.3586,1.36,1.3547,1.3407,1.3393,1.3293,1.2979,1.2973,0.0,1.2746,1.2074,1.0934,0.9322,0.0,0.7356,0.5786,0.5695,0.5585,0.5529,0.6644,0.827,0.0,0.0,0.0,1.4515,1.5143,1.5389,1.5389,1.5389,1.5389,1.5389,1.5389,1.5226,1.501,1.5288,1.5471,1.5768,1.6641,1.6834,1.6935,1.7779,1.7772,1.7626,1.8228,1.8516,1.8674,1.8875,1.9008,1.9164,1.9518,1.9846,2.0387,2.1396,2.1865,2.1328,1.877,1.56,0.0,0.0,0.0,0.0,0.0,0.0,0.0,0.0,0.0,0.0,0.0,0.0,0.0,0.0,0.0,0.0,0.0,0.0,0.0,0.0,0.0,0.0,0.0,0.0,0.0,2.6118,2.6647,2.6902,2.6877,2.6672,2.6967,2.7701,2.8025,2.8619,2.936,2.9943,3.0423,3.0808,3.0957,3.1172,3.1346,3.1105,3.1022,3.1163,1.2862,1.35,0.0,0.0,1.4127,1.4319,1.4041,1.4063,1.3834,1.3166,1.3072,1.3072,1.3072,1.3247,1.3467,1.3586,1.36,1.358,1.3513,1.3507,1.334,1.2904,1.2817,1.2677,1.2405,1.2338,1.1303,0.0,0.0,0.0,0.5874,0.5665,0.5606,0.573,0.0,0.0,0.0,0.0,1.3409,1.3991,1.4993,1.5389,1.5389,1.5389,1.5389,1.5389,1.5389,1.5389,1.5418,1.5449,1.5348,1.5367,1.6226,1.6432,1.6551,1.7483,1.7663,1.7654,1.8146,1.8371,1.8516,1.8741,1.8908,1.9042,1.9108,1.9518,2.0074,2.0741,2.1585,2.1375,1.8867,1.673,0.0,0.0,0.0,0.0,0.0,0.0,0.0,0.0,0.0,0.0,0.0,0.0,0.0,0.0,0.0,0.0,0.0,0.0,0.0,0.0,0.0,2.2053,2.4863,0.0,2.4347,2.725,2.7142,2.7148,2.7221,2.6757,2.7028,2.7845,2.7709,2.818,2.9039,2.9342,2.9632,2.9899,2.9899,2.9863,2.9791,2.927,2.9039,2.9284,0.0,0.0,0.0,0.0,0.0,1.4158,1.3397,1.3749,1.4055,1.3975,1.3961,1.3961,1.3961,1.3988,1.3908,1.3626,1.36,1.3493,1.3267,1.3253,1.3227,1.3173,1.2938,1.2808,1.2744,1.2476,1.1677,0.0,0.0,0.8349,0.7106,0.6202,0.6284,0.7208,0.0,0.0,0.0,1.2301,1.3498,1.5009,1.5269,1.5389,1.5389,1.5389,1.5389,1.5389,1.5389,1.5389,1.5372,1.5054,1.5215,1.5508,1.5338,1.5985,1.6851,1.6957,1.7448,1.7993,1.8226,1.8303,1.8405,1.8707,1.8808,1.8875,1.9075,1.9142,1.9396,2.0074,2.1365,2.1562,1.8892,2.0376,2.0526,0.0,0.0,0.0,0.0,0.0,0.0,0.0,0.0,0.0,0.0,0.0,0.0,0.0,0.0,0.0,0.0,0.0,0.0,2.2081,0.0,2.0226,1.9277,2.2502,2.3593,2.2567,2.4319,2.5497,2.6039,2.5385,2.5796,2.6968,2.6443,2.6886,2.803,2.8055,2.8046,2.7951,2.7951,2.7864,2.7712,2.7943,2.7927,2.7847,0.0,0.0,0.0,0.0,0.0,0.0,0.0,1.3935,1.4088,1.4088,1.4088,1.4088,1.4088,1.4088,1.4041,1.3921,1.3908,1.3861,1.3748,1.3734,1.3654,1.344,1.3353,1.32,1.3026,1.2764,1.2027,0.0,0.0,0.0,0.7238,0.6951,0.7487,0.8704,0.0,1.0679,1.2154,1.31,1.4122,1.5131,1.5305,1.5389,1.5389,1.5389,1.5389,1.5389,1.5389,1.5389,1.5367,1.5236,1.5175,1.5192,1.5128,1.5434,1.5956,1.6683,1.7113,1.7467,1.7964,1.8202,1.8337,1.8583,1.8707,1.8841,1.9031,1.9108,1.9297,1.9977,2.1227,2.194,2.1089,2.0227,1.9805,2.0231,0.0,0.0,0.0,0.0,0.0,0.0,0.0,0.0,0.0,0.0,0.0,0.0,0.0,0.0,0.0,0.0,0.0,1.8137,0.0,2.1177,2.0427,2.2875,2.4277,2.4604,2.505,2.5404,2.5639,2.5145,2.5175,2.5667,2.6238,2.6684,2.7025,2.743,2.7703,2.7825,2.7825,2.7759,2.7611,2.6825,2.6485,2.6302,1.3128,0.0,1.3096,0.0,1.3628,1.3723,1.4063,1.4088,1.4088,1.4088,1.4088,1.4088,1.4088,1.4088,1.4088,1.4088,1.4088,1.4088,1.4088,1.4088,1.3995,1.374,1.3646,0.0,1.3307,1.3039,1.2516,1.1643,1.0228,0.0,0.835,0.814,0.8703,0.9994,1.1033,1.1947,1.2756,1.3904,1.4676,1.5131,1.5305,1.5389,1.5389,1.5389,1.5389,1.5389,1.5389,1.5389,1.5389,1.5389,1.5236,1.5065,1.5026,1.5083,1.527,1.6128,1.6605,1.701,1.7545,1.793,1.8245,1.8414,1.8573,1.8774,1.8975,1.9075,1.9297,1.9977,2.0942,2.1791,2.2237,2.0257,1.9325,2.1686,0.0,0.0,0.0,0.0,0.0,0.0,1.8882,1.7705,0.0,0.0,0.0,0.0,0.0,0.0,0.0,0.0,0.0,0.0,0.0,0.0,0.0,2.2975,2.4379,2.5679,2.5269,2.5178,2.5348,2.5058,2.4801,2.4614,2.5602,2.5988,2.6013,2.6303,2.6546,2.6783,2.695,2.6791,2.6371,2.578,2.5343,2.5005,1.3464,1.3391,1.354,1.4017,1.4075,1.4082,1.4088,1.4088,1.4088,1.4088,1.4088,1.4088,1.4088,1.4088,1.4088,1.4088,1.4088,1.4088,1.4088,1.4088,1.4088,0.0,0.0,1.36,1.36,1.3313,1.32,1.3186,0.0,0.0,1.1027,0.9833,0.9883,1.1007,1.1682,1.2676,1.3817,1.4587,1.496,1.5131,1.5305,1.5389,1.5389,1.5389,1.5389,1.5389,1.5389,1.5389,1.5389,1.5389,1.5382,1.5323,1.4995,1.4979,1.5096,1.5125,1.5956,1.6897,1.6906,1.7432,1.8042,1.8236,1.8414,1.8549,1.8741,1.8975,1.9297,1.9977,2.0376,2.0814,2.1491,2.131,2.0557,1.901,0.0,0.0,0.0,0.0,0.0,0.0,1.2962,1.1593,1.6803,0.0,0.0,0.0,0.0,0.0,0.0,0.0,0.0,2.1118,2.0584,0.0,2.1184,2.2412,2.3352,2.4014,2.4014,2.4381,2.5007,2.5007,2.4653,2.4014,2.411,2.4463,2.4981,2.4368,2.411,2.411,2.4686,2.418,2.3264,2.4815,2.4781,2.4047,1.3926,1.389,1.3903,1.4055,1.4249,1.4382,1.4382,1.4556,1.4727,1.4727,1.4727,1.4727,1.4727,1.4329,1.4291,0.0,1.4496,1.4382,0.0,1.4382,1.4295,1.4095,1.3995,1.3948,1.3948,1.3613,1.3541,1.3736,0.0,0.0,0.0,1.1118,1.1525,1.2501,1.2964,1.3584,1.4284,1.4729,1.5049,1.5305,1.5389,1.5389,1.5389,1.5389,1.5389,1.5389,1.5389,1.5389,1.5389,1.5389,1.5389,1.5374,1.5265,1.4983,1.4751,1.5018,1.5207,1.5552,1.662,1.7079,1.7432,1.8124,1.8414,1.8549,1.8741,1.8975,1.9164,1.9363,1.9868,2.0376,2.0846,2.0837,2.0854,2.1122,2.102,0.0,2.0819,0.0,0.0,0.0,1.8017,1.7332,0.0,1.5383,0.0,0.0,0.0,0.0,0.0,0.0,0.0,0.0,2.0119,0.0,2.0537,2.2175,2.3138,2.3379,2.3379,2.3499,2.3727,2.4133,2.3933,2.3379,2.4313,2.4557,2.4312,2.446,2.4569,2.4679,2.4736,2.453,2.4162,2.4081,2.3743,2.3298,1.4355,1.4387,1.4383,1.4383,1.4583,1.4689,1.4689,1.4888,1.5008,1.5008,1.5008,1.5055,1.5162,1.4703,0.0,1.4975,1.4689,1.4522,1.4522,1.4522,1.4389,1.4102,1.4088,1.4088,1.4088,1.3908,0.0,1.4159,1.3109,1.2516,1.2325,1.26,1.2921,1.3275,1.3708,1.4082,1.4408,1.4689,1.5008,1.5389,1.5389,1.5389,1.5389,1.5389,1.5389,1.5389,1.5389,1.5389,1.5389,1.5389,1.5389,1.5389,1.5389,1.5065,1.4692,1.4851,1.4827,1.5021,1.6167,1.6655,1.7148,1.8056,1.8414,1.8583,1.8841,1.9008,1.9108,1.9108,1.9462,1.9879,2.0161,2.0302,2.0592,2.1365,2.1223,2.1092,2.1297,0.0,2.0461,0.0,0.0,0.0,0.0,1.6727,0.0,0.0,0.0,0.0,0.0,0.0,0.0,1.8428,2.1097,0.0,2.1676,2.2589,2.3061,2.3106,2.3106,2.3106,2.3106,2.3496,2.3261,2.2613,2.3316,2.3273,2.2727,2.2954,2.3161,2.3369,2.3504,2.3416,2.3141,2.3061,2.2731,2.2326,1.4733,1.4835,1.4911,1.4911,1.498,1.5035,1.5035,1.5055,1.5068,1.5068,1.5068,1.5169,1.5398,1.517,1.5048,1.5068,0.0,0.0,1.4556,1.4549,1.4409,1.4102,1.4088,1.4088,1.4088,1.4088,1.4201,1.4398,1.4371,1.42,1.3937,1.4141,1.3917,1.3414,1.3984,1.4212,1.4212,1.4503,1.4941,1.5389,1.5389,1.5389,1.5389,1.5389,1.5389,1.5389,1.5389,1.5389,1.5389,1.5389,1.5389,1.5389,1.5389,1.5185,1.4871,1.4607,1.4752,1.5091,1.5528,1.6193,1.7044,1.7988,1.8371,1.8617,1.9008,1.9108,1.9108,1.9108,1.9208,1.9341,1.955,1.9736,1.9944,2.0074,2.06,2.0806,2.0317,2.0358,1.9739,0.0,0.0,0.0,0.0,1.6094,1.6447,0.0,0.0,0.0,0.0,0.0,1.8275,2.2881,2.2993,2.3256,2.3872,2.3263,2.2944,2.2944,2.2944,2.2944,2.2944,2.2944,2.2506,2.1791,2.1415,2.1004,2.0589,2.039,2.0418,2.0687,2.1346,2.1169,2.0739,2.1841,2.1711,2.1106,0.0,0.0,1.4997,1.4997,1.5149,1.5297,1.5297,1.5484,1.5625,1.5625,1.5625,1.5651,1.5718,1.5471,1.5384,1.5605,1.5357,1.5097,1.4921,1.4863,1.4673,1.4108,1.4088,1.4088,1.4088,1.4088,1.4201,1.4398,1.4754,1.4687,1.4214,1.4422,1.4123,1.3428,1.4015,1.4247,1.422,1.478,1.515,1.5389,1.5389,1.5389,1.5389,1.5389,1.5389,1.5389,1.5389,1.5389,1.5389,1.5389,1.5389,1.5389,1.5389,1.5338,1.5163,1.4633,1.4384,1.4343,1.474,1.5419,1.6202,1.7148,1.8046,1.8808,1.9042,1.9108,1.9108,1.9108,1.9142,1.9241,1.9539,1.9638,1.978,2.0042,2.0417,2.0728,2.0788,2.079,2.0675,0.0,1.9729,1.9396,1.9676,1.9471,1.9047,0.0,0.0,0.0,0.0,1.8076,1.8794,2.1057,2.1522,2.1752,2.1791,2.1647,2.1491,2.133,2.133,2.131,2.1195,2.1195,2.1121,2.1046,2.0837,2.0753,2.0728,2.0435,2.0426,2.059,2.0632,2.0504,2.043,2.0705,2.0589,2.0365,1.5342,1.5289,1.53,1.53,1.545,1.5591,1.5591,1.5732,1.5784,1.5784,1.5784,1.5784,1.5784,1.5691,1.5658,1.5764,1.5444,1.5182,1.5022,1.4836,1.4563,1.4108,1.4088,1.4088,1.4088,1.4088,1.4243,1.4524,1.4915,1.5004,1.4791,1.4914,1.4614,1.3959,1.4292,1.4356,1.4261,1.4684,1.5036,1.5257,1.5347,1.5389,1.5389,1.5389,1.5389,1.5389,1.5389,1.5389,1.5389,1.5389,1.5389,1.5389,1.5389,1.5389,1.5294,1.4831,1.4457,1.4387,1.5199,1.5554,1.6018,1.732,1.8158,1.8717,1.8908,1.8975,1.9008,1.9065,1.9108,1.9175,1.9417,1.9473,1.9583,1.9944,2.0302,2.051,2.05,2.0736,2.095,2.1047,2.08,2.0706,2.0959,2.0725,2.0249,1.9372,1.938,0.0,1.9502,1.9756,2.0139,2.0606,2.0862,2.095,2.0858,2.0858,2.0826,2.0707,2.0707,2.0675,2.059,2.059,2.0419,2.0128,2.0128,1.9911,1.9519,1.9497,1.9441,1.9398,1.9398,1.9332,1.9233,1.9233,1.921,1.911,1.5711,1.5696,1.5742,1.5742,1.5759,1.5784,1.5784,1.5784,1.5784,1.5784,1.5784,1.5784,1.5784,1.5784,1.5784,1.5784,1.5337,1.5075,1.5075,1.475,1.4476,1.4229,1.4175,1.4155,1.4155,1.4108,1.4292,1.465,1.4915,1.5131,1.5347,1.5389,1.5131,1.4617,1.466,1.4538,1.4367,1.4579,1.4839,1.5173,1.534,1.5389,1.5389,1.5389,1.5389,1.5389,1.5389,1.5389,1.5389,1.5389,1.5389,1.5389,1.5389,1.5389,1.5372,1.5216,1.4866,1.4762,1.5774,1.585,1.6079,1.7789,1.8255,1.8381,1.8571,1.8604,1.867,1.8835,1.8953,1.9038,1.918,1.9266,1.9356,1.9426,1.9954,2.0156,1.9644,2.0331,2.0902,2.1005,2.0867,2.0931,2.1416,2.1086,2.0822,2.0763,2.0926,2.1013,2.1013,2.1383,2.1302,2.0684,2.0631,2.0494,2.0301,2.0268,2.0268,2.0236,2.0236,2.0236,2.0204,2.0204,1.9814,1.9144,1.9199,1.8744,1.8042,1.8066,1.7998,1.7828,1.7886,1.7784,1.7623,1.7623,1.7588,1.7535,1.5886,1.5974,1.6055,1.5812,1.5798,1.5784,1.5784,1.5784,1.5784,1.5784,1.5784,1.5784,1.5784,1.5784,1.5784,1.5784,1.5524,1.5331,1.5331,1.5102,1.4921,1.4874,1.4589,1.4449,1.4449,1.4215,1.4201,1.444,1.465,1.4908,1.5131,1.5305,1.5131,1.4624,1.4896,1.486,1.4591,1.4903,1.5171,1.5347,1.5389,1.5389,1.5389,1.5389,1.5389,1.5389,1.5389,1.5389,1.5389,1.5389,1.5389,1.5389,1.5389,1.5389,1.5541,1.6242,1.5663,1.4775,1.4478,1.488,1.581,1.7333,1.7672,1.7654,1.7685,1.778,1.7874,1.7905,1.8237,1.856,1.8774,1.9056,1.8901,1.7656,1.8864,1.9539,1.8283,1.9561,2.0873,2.1502,2.1568,2.1575,2.1658,2.1827,2.1841,2.154,2.181,2.1976,2.1976,2.1214,2.0531,1.9975,2.0385,2.002,1.8831,1.8841,1.8764,1.8664,1.8664,1.8563,1.8395,1.8395,1.8428,1.8395,1.7653,1.7662,1.8134,1.6724,1.6515,1.701,1.6376,1.6026,1.5886,1.5886,1.5772,1.5623,1.6298,1.6218,1.6177,1.6028,1.5879,1.5784,1.5784,1.5784,1.5784,1.5784,1.5784,1.5784,1.5784,1.5784,1.5784,1.5784,1.5705,1.5565,1.5404,1.5169,1.5008,1.5008,1.483,1.4763,1.4763,1.4592,1.4572,1.4658,1.4565,1.4741,1.509,1.5173,1.5177,1.5047,1.5191,1.5135,1.4882,1.515,1.5257,1.5257,1.5347,1.5389,1.5389,1.5389,1.5389,1.5389,1.5389,1.5389,1.5389,1.5389,1.5389,1.5389,1.5389,1.5389,1.5465,1.5865,1.569,1.521,1.4728,1.4911,1.5485,1.6566,1.6957,1.7138,1.7294,1.7388,1.7481,1.7668,1.7864,1.8061,1.8145,1.8311,1.8322,1.7961,1.8731,1.9264,1.8986,1.9876,2.0732,2.1083,2.1305,2.1443,2.1443,2.158,2.1612,2.1443,2.1368,2.1293,2.1187,2.0526,1.9835,1.9112,1.9,1.8643,1.8056,1.8056,1.81,1.8144,1.8144,1.7886,1.7398,1.7285,1.7113,1.6862,1.6376,1.6411,1.6724,1.5921,1.5807,1.6097,1.5631,1.5455,1.5498,1.5384,1.5269,1.5128,1.6683,1.6501,1.6366,1.6224,1.6028,1.5879,1.5832,1.5784,1.5784,1.5784,1.5784,1.5784,1.5784,1.5784,1.5784,1.5784,1.5784,1.5705,1.5418,1.5251,1.5149,1.5015,1.4993,1.4997,1.4997,1.4861,1.4797,1.4767,1.4521,1.4608,1.4999,1.509,1.5215,1.5389,1.5389,1.5305,1.5173,1.534,1.5305,1.5173,1.5347,1.5389,1.5389,1.5389,1.5389,1.5389,1.5389,1.5389,1.5389,1.5389,1.5389,1.5389,1.5389,1.5389,1.5389,1.5389,1.539,1.541,1.5274,1.4993,1.4934,1.5737,1.6083,1.6333,1.6766,1.6889,1.7012,1.7287,1.7441,1.7544,1.7544,1.7626,1.7771,1.7988,1.8501,1.8956,1.9178,1.9877,2.0442,2.0571,2.0839,2.1042,2.1063,2.1169,2.1158,2.1063,2.0741,2.0462,2.0301,1.9868,1.9212,1.8341,1.7794,1.7564,1.7647,1.7647,1.7725,1.7872,1.7872,1.7476,1.6759,1.6611,1.6184,1.5561,1.5286,1.5251,1.5392,1.5037,1.5002,1.5108,1.478,1.4744,1.4816,1.4665,1.4557,1.4414,1.6676,1.6784,1.6791,1.6272,1.617,1.6076,1.5832,1.5784,1.5784,1.5784,1.5784,1.5784,1.5784,1.5784,1.5784,1.5784,1.5784,1.5705,1.5418,1.5625,1.5524,1.5035,1.493,1.4918,1.4918,1.4597,1.4432,1.4432,1.4405,1.4524,1.4734,1.4999,1.5215,1.5389,1.5389,1.5389,1.5389,1.5389,1.5389,1.5389,1.5389,1.5389,1.5389,1.5389,1.5389,1.5389,1.5389,1.5389,1.5389,1.5389,1.5389,1.5389,1.5389,1.5389,1.5389,1.5389,1.501,1.4743,1.5447,1.465,1.3851,1.4926,1.5006,1.5016,1.5654,1.5994,1.6187,1.6216,1.667,1.7058,1.7058,1.742,1.7326,1.6186,1.7516,1.8353,1.7356,1.8644,1.99,2.0539,2.0529,2.0496,2.0635,2.0967,2.1063,2.0667,2.0441,2.0333,2.0301,1.9519,1.8667,1.7774,1.7598,1.7505,1.7505,1.7505,1.7539,1.7539,1.7539,1.7132,1.6341,1.6332,1.5948,1.5199,1.443,1.4537,1.5092,1.368,1.3506,1.4042,1.3324,1.2959,1.2813,1.2813,1.2666,1.2482,1.6629,1.6548,1.6461,1.6224,1.6076,1.5927,1.5832,1.5784,1.5784,1.5784,1.5784,1.5784,1.5784,1.5784,1.5784,1.5784,1.5784,1.5705,1.5418,1.5331,1.5277,1.5237,1.5486,1.5476,1.5164,1.5152,1.507,1.4892,1.4572,1.4482,1.4692,1.4783,1.4999,1.5215,1.5347,1.5389,1.5389,1.5389,1.5389,1.5389,1.5389,1.5389,1.5389,1.5389,1.5389,1.5389,1.5389,1.5389,1.5389,1.5389,1.5389,1.5389,1.5389,1.5389,1.5389,1.5389,1.497,1.4525,1.4611,1.4065,1.3603,1.4014,1.4351,1.4677,1.5108,1.5536,1.5923,1.622,1.6372,1.6466,1.6603,1.6777,1.6901,1.6972,1.7686,1.8291,1.8427,1.9094,1.9704,1.9966,2.0031,2.0107,2.0161,2.0388,2.0464,2.0302,1.9726,1.9309,1.9189,1.824,1.7545,1.7201,1.6899,1.6934,1.7314,1.7314,1.7392,1.7505,1.7505,1.683,1.5613,1.5507,1.4824,1.3753,1.3208,1.3135,1.3339,1.2622,1.2519,1.2732,1.2298,1.2081,1.1985,1.2018,1.1892,1.1695,1.6588,1.6447,1.6312,1.6224,1.6028,1.5879,1.5832,1.5784,1.5784,1.5784,1.5784,1.5784,1.5784,1.5784,1.5784,1.5784,1.5784,1.5705,1.5418,1.5211,1.5109,1.499,1.5476,1.5521,1.5129,1.5261,1.5284,1.5191,1.4712,1.4566,1.4692,1.4692,1.4824,1.509,1.5257,1.5347,1.5389,1.5389,1.5389,1.5389,1.5389,1.5389,1.5389,1.5389,1.5389,1.5389,1.5389,1.5389,1.5389,1.5389,1.5389,1.5389,1.5389,1.5389,1.5389,1.5389,1.497,1.446,1.4232,1.3772,1.3351,1.3325,1.3612,1.4034,1.4628,1.5089,1.5546,1.6058,1.6124,1.6085,1.6038,1.623,1.6574,1.7114,1.7606,1.8187,1.8993,1.929,1.9473,1.9572,1.9681,1.9736,1.9802,1.9878,1.9944,1.9944,1.9008,1.8216,1.7687,1.695,1.6551,1.6551,1.6307,1.6333,1.6742,1.6742,1.6821,1.6968,1.6968,1.6298,1.4991,1.4653,1.3897,1.2783,1.2305,1.2114,1.2114,1.1966,1.1892,1.1892,1.1744,1.1608,1.1498,1.1546,1.1458,1.1319,1.6588,1.6588,1.6494,1.6224,1.6224,1.6123,1.5832,1.5784,1.5784,1.5784,1.5784,1.5784,1.5784,1.5784,1.5784,1.5784,1.5784,1.5705,1.5418,1.5398,1.501,1.4128,1.464,1.4819,1.4699,1.4692,1.4824,1.509,1.4824,1.4692,1.4692,1.4692,1.4824,1.509,1.509,1.5215,1.5389,1.5389,1.5389,1.5389,1.5389,1.5389,1.5389,1.5389,1.5389,1.5389,1.5389,1.5389,1.5389,1.5389,1.5389,1.5389,1.5389,1.5389,1.5389,1.5389,1.497,1.4511,1.4511,1.3755,1.2986,1.3,1.2743,1.2848,1.4192,1.4588,1.4893,1.5556,1.5923,1.5912,1.5323,1.5865,1.6316,1.6147,1.6991,1.7916,1.8606,1.8927,1.9231,1.955,1.9417,1.9374,1.9572,1.9605,1.9605,1.9605,1.8418,1.7148,1.5868,1.5798,1.5798,1.5798,1.5798,1.5798,1.5798,1.5798,1.5798,1.5798,1.5798,1.5374,1.4569,1.397,1.3317,1.2562,1.1966,1.1706,1.1706,1.1706,1.1706,1.1706,1.17,1.1535,1.1293,1.1293,1.1293,1.1257,1.6312,1.6163,1.6015,1.5927,1.5927,1.5879,1.5832,1.5784,1.5784,1.5784,1.5784,1.5784,1.5784,1.5784,1.5784,1.5784,1.5784,1.5705,1.5418,1.5585,1.5304,1.4429,1.4896,1.5033,1.4706,1.4692,1.4908,1.5305,1.4741,1.4566,1.4692,1.4566,1.4524,1.4615,1.4957,1.5131,1.5215,1.5347,1.5389,1.5389,1.5389,1.5389,1.5389,1.5389,1.5389,1.5389,1.5389,1.5389,1.5389,1.5389,1.5389,1.5389,1.5389,1.5389,1.5389,1.5389,1.509,1.475,1.457,1.3923,1.3227,1.277,1.276,1.3033,1.3778,1.4252,1.4804,1.5643,1.5459,1.5264,1.5729,1.5284,1.5282,1.6537,1.6638,1.701,1.831,1.857,1.8778,1.9199,1.8831,1.8764,1.9341,1.9065,1.9054,1.9572,1.8418,1.7148,1.5868,1.5798,1.5798,1.5798,1.5515,1.5374,1.5374,1.5657,1.5798,1.5798,1.5798,1.5152,1.397,1.3781,1.3055,1.1966,1.1632,1.1484,1.1484,1.1335,1.1298,1.1279,1.1052,1.082,1.0612,1.0796,1.0747,1.0637,1.6359,1.6123,1.5974,1.5974,1.5879,1.5784,1.5784,1.5784,1.5784,1.5784,1.5784,1.5784,1.5784,1.5784,1.5784,1.5784,1.5784,1.5752,1.5578,1.5732,1.5545,1.4897,1.5179,1.5106,1.458,1.4698,1.4958,1.5257,1.4873,1.4741,1.4866,1.4608,1.4524,1.4524,1.4824,1.4999,1.509,1.5305,1.5389,1.5389,1.5389,1.5347,1.5305,1.5389,1.5347,1.5305,1.5389,1.5389,1.5389,1.5389,1.5389,1.5389,1.5389,1.5389,1.5389,1.5389,1.5109,1.4714,1.4562,1.3996,1.3367,1.2848,1.2665,1.2695,1.3136,1.3476,1.4079,1.5309,1.4907,1.4536,1.5299,1.474,1.4494,1.5393,1.5857,1.6483,1.7598,1.814,1.8482,1.8636,1.8351,1.8172,1.8351,1.807,1.7925,1.8094,1.7662,1.6768,1.5409,1.5346,1.5346,1.5346,1.5098,1.4955,1.4955,1.5204,1.5346,1.5346,1.5346,1.4875,1.4042,1.3608,1.2959,1.215,1.1558,1.1298,1.126,1.1149,1.1111,1.1093,1.0936,1.0617,1.0328,1.0587,1.0521,1.0352,1.6636,1.6407,1.6224,1.6224,1.6021,1.5832,1.5832,1.5832,1.5784,1.5784,1.5784,1.5784,1.5784,1.5784,1.5784,1.5784,1.5784,1.5784,1.5784,1.5784,1.5698,1.5411,1.5424,1.5107,1.4418,1.4733,1.4998,1.5132,1.5104,1.509,1.509,1.4824,1.465,1.465,1.465,1.4824,1.5082,1.5305,1.5389,1.5389,1.5389,1.5305,1.5131,1.534,1.5305,1.5131,1.534,1.5389,1.5389,1.5389,1.5389,1.5389,1.5389,1.5389,1.5389,1.5389,1.4992,1.454,1.4518,1.4011,1.3455,1.3097,1.2529,1.2191,1.25,1.2583,1.3026,1.4688,1.4285,1.38,1.4332,1.4202,1.3916,1.3544,1.4815,1.6088,1.6713,1.7617,1.8194,1.803,1.7906,1.7619,1.7035,1.6941,1.6594,1.5868,1.642,1.6175,1.4677,1.4605,1.4605,1.4605,1.4605,1.4605,1.4605,1.4605,1.4605,1.4605,1.4605,1.4569,1.4489,1.3404,1.2863,1.2753,1.1595,1.1111,1.1111,1.1111,1.1074,1.1031,1.1013,1.0695,1.0224,1.0515,1.045,1.023,1.6925,1.669,1.6494,1.6494,1.6312,1.6123,1.6123,1.5927,1.5784,1.5784,1.5784,1.5784,1.5784,1.5784,1.5784,1.5784,1.5784,1.5784,1.5784,1.5784,1.5698,1.5411,1.5611,1.5324,1.4486,1.4756,1.5059,1.5405,1.4986,1.4908,1.509,1.465,1.4482,1.4482,1.4482,1.4566,1.4783,1.5048,1.5264,1.5389,1.5389,1.5389,1.5347,1.5389,1.5389,1.5347,1.5389,1.5389,1.5389,1.5389,1.5389,1.5389,1.5389,1.5389,1.5389,1.5389,1.5112,1.4787,1.4577,1.4218,1.374,1.3155,1.2899,1.288,1.3228,1.3091,1.3219,1.4403,1.3845,1.3474,1.4451,1.3589,1.3156,1.4557,1.4481,1.4787,1.6423,1.6789,1.7216,1.7988,1.7248,1.6897,1.7457,1.7148,1.6594,1.5868,1.5939,1.5621,1.4641,1.4605,1.4605,1.4605,1.4605,1.4605,1.4605,1.4605,1.4605,1.4605,1.4605,1.4382,1.3941,1.3222,1.2636,1.215,1.1409,1.1111,1.1111,1.1111,1.0925,1.0608,1.0412,0.9962,0.9478,0.9697,0.9631,0.9512,1.7153,1.6965,1.6784,1.6784,1.6548,1.64,1.64,1.617,1.5981,1.5981,1.5879,1.5784,1.5784,1.5784,1.5784,1.5784,1.5784,1.5832,1.5974,1.5879,1.5812,1.5798,1.5799,1.5571,1.5105,1.5242,1.529,1.5375,1.493,1.4902,1.5311,1.4937,1.4608,1.4398,1.4482,1.4608,1.4741,1.4999,1.5215,1.5389,1.5389,1.5347,1.5257,1.5347,1.5347,1.5257,1.5389,1.5389,1.5389,1.5389,1.5389,1.5389,1.5389,1.5389,1.5389,1.5389,1.5155,1.4863,1.4743,1.4465,1.4137,1.3594,1.347,1.3409,1.3101,1.2905,1.3072,1.4087,1.3478,1.3105,1.4205,1.3404,1.2884,1.3876,1.4015,1.4396,1.562,1.6044,1.6365,1.6799,1.6217,1.586,1.6105,1.6202,1.5921,1.5196,1.5444,1.5338,1.4533,1.4497,1.4533,1.4605,1.4533,1.4497,1.4497,1.4425,1.4353,1.4353,1.4086,1.3637,1.3055,1.2254,1.1744,1.1409,1.0775,1.0513,1.0513,1.0513,1.04,1.0207,1.0079,0.9663,0.9249,0.9568,0.9616,0.9583,1.7246,1.7149,1.7058,1.7058,1.6862,1.6665,1.6713,1.6435,1.6232,1.6184,1.5981,1.5784,1.5784,1.5784,1.5784,1.5784,1.5784,1.5927,1.617,1.5927,1.5927,1.6265,1.5974,1.5805,1.5805,1.571,1.5565,1.5357,1.4993,1.5128,1.5648,1.5282,1.4873,1.4482,1.4608,1.465,1.4692,1.4957,1.5173,1.5389,1.5389,1.5298,1.5173,1.5347,1.5298,1.5173,1.5347,1.5389,1.5389,1.5389,1.5389,1.5389,1.5389,1.5389,1.5389,1.5389,1.5155,1.49,1.49,1.4706,1.4445,1.4128,1.4108,1.385,1.3038,1.2733,1.2925,1.3805,1.3225,1.2865,1.3832,1.3363,1.2867,1.296,1.3626,1.4279,1.4781,1.5291,1.5607,1.5469,1.5288,1.4919,1.4353,1.4875,1.501,1.4389,1.4854,1.4917,1.4389,1.4307,1.4335,1.4489,1.4425,1.4353,1.4353,1.4165,1.4057,1.3949,1.3353,1.2865,1.2382,1.1292,1.0812,1.0775,1.0143,0.9884,0.9884,0.9884,0.9846,0.9809,0.9765,0.9443,0.9008,0.9395,0.9584,0.9657,1.7077,1.7194,1.7332,1.7332,1.7125,1.7029,1.7284,1.6697,1.6271,1.6211,1.5981,1.5784,1.5784,1.5784,1.5784,1.5784,1.5784,1.5927,1.617,1.5927,1.6021,1.6541,1.6069,1.5812,1.5795,1.5563,1.5633,1.5994,1.5595,1.5555,1.5863,1.5324,1.4957,1.465,1.4524,1.4524,1.4692,1.4734,1.4992,1.5389,1.5389,1.5389,1.5347,1.5389,1.5389,1.5347,1.5389,1.5389,1.5389,1.5389,1.5389,1.5389,1.5389,1.5389,1.5389,1.5389,1.5155,1.49,1.49,1.4706,1.4496,1.4452,1.4445,1.4408,1.4276,1.377,1.3411,1.3563,1.3241,1.3081,1.3504,1.3233,1.3108,1.3575,1.3522,1.3689,1.4445,1.4574,1.4788,1.5266,1.5087,1.4661,1.3935,1.4137,1.4238,1.4165,1.3947,1.3944,1.4114,1.3869,1.3846,1.4158,1.4165,1.4129,1.4129,1.4093,1.3848,1.3302,1.2893,1.2732,1.2792,1.1434,1.0812,1.0775,1.0143,0.9884,0.9884,0.9884,0.9695,0.9359,0.9193,0.8665,0.7983,0.8075,0.8286,0.8632,1.7579,1.7473,1.7398,1.7471,1.7204,1.7099,1.7429,1.7009,1.6704,1.667,1.6408,1.6211,1.6028,1.5879,1.5784,1.5784,1.5784,1.5927,1.617,1.6076,1.6211,1.6588,1.6211,1.6015,1.6033,1.5738,1.5779,1.6152,1.577,1.5688,1.5769,1.5633,1.517,1.4524,1.4566,1.4608,1.4692,1.4692,1.495,1.5389,1.5389,1.5389,1.5389,1.5389,1.5389,1.5389,1.5389,1.5389,1.5389,1.5389,1.5389,1.5389,1.5389,1.5389,1.5389,1.5389,1.5287,1.517,1.517,1.5068,1.4962,1.4779,1.4867,1.4911,1.4592,1.4384,1.4201,1.3843,1.3506,1.3323,1.347,1.3375,1.3367,1.3579,1.3598,1.3716,1.4057,1.4092,1.4112,1.4281,1.4209,1.4029,1.3826,1.3899,1.3852,1.3663,1.352,1.3422,1.3369,1.3233,1.3343,1.3818,1.3719,1.3739,1.3928,1.3819,1.3637,1.3346,1.2716,1.215,1.1545,1.0663,1.0062,0.9609,0.9344,0.916,0.9046,0.9046,0.8899,0.8623,0.8426,0.812,0.7789,0.7789,0.8041,0.8403]}]]